[[{"header":{"parameterUnit":"m.s-1","parameterCategory":1,"la1":30.6,"la2":28.766,"lo1":-90.7593,"lo2":-88.6598,"dy":0.0162,"dx":0.0183,"nx":116,"ny":114,"refTime":"2023-09-21T00:00:00:Z","depth":0,"parameterNumber":2,"parameterNumberName":"U-component_of_WINDS"},"data":[0.0,0.0,0.0,0.0,0.0,0.0,0.0,0.0,0.0,0.0,0.0,0.0,0.0,0.0,0.0,0.0,0.0,0.0,0.0,0.0,0.0,0.0,0.0,0.0,0.0,0.0,0.0,0.0,0.0,0.0,0.0,0.0,0.0,0.0,0.0,0.0,0.0,0.0,0.0,0.0,0.0,0.0,0.0,0.0,0.0,0.0,0.0,0.0,0.0,0.0,0.0,0.0,0.0,0.0,0.0,0.0,0.0,0.0,0.0,0.0,0.0,0.0,0.0,0.0,0.0,0.0,0.0,0.0,0.0,0.0,0.0,0.0,0.0,0.0,0.0,0.0,0.0,0.0,0.0,0.0,0.0,0.0,0.0,0.0,0.0,0.0,0.0,0.0,0.0,0.0,0.0,0.0,0.0,0.0,0.0,0.0,0.0,0.0,0.0,0.0,0.0,0.0,0.0,0.0,0.0,0.0,0.0,0.0,0.0,0.0,0.0,0.0,0.0,0.0,0.0,0.0,0.0,0.0,0.0,0.0,0.0,0.0,0.0,0.0,0.0,0.0,0.0,0.0,0.0,0.0,0.0,0.0,0.0,0.0,0.0,0.0,0.0,0.0,0.0,0.0,0.0,0.0,0.0,0.0,0.0,0.0,0.0,0.0,0.0,0.0,0.0,0.0,0.0,0.0,0.0,0.0,0.0,0.0,0.0,0.0,0.0,0.0,0.0,0.0,0.0,0.0,0.0,0.0,0.0,0.0,0.0,0.0,0.0,0.0,0.0,0.0,0.0,0.0,0.0,0.0,0.0,0.0,0.0,0.0,0.0,0.0,0.0,0.0,0.0,0.0,0.0,0.0,0.0,0.0,0.0,0.0,0.0,0.0,0.0,0.0,0.0,0.0,0.0,0.0,0.0,0.0,0.0,0.0,0.0,0.0,0.0,0.0,0.0,0.0,0.0,0.0,0.0,0.0,0.0,0.0,0.0,0.0,0.0,0.0,0.0,0.0,0.0,0.0,0.0,0.0,0.0,0.0,0.0,0.0,0.0,0.0,0.0,0.0,0.0,0.0,0.0,0.0,0.0,0.0,0.0,0.0,0.0,0.0,0.0,0.0,0.0,0.0,0.0,0.0,0.0,0.0,0.0,0.0,0.0,0.0,0.0,0.0,0.0,0.0,0.0,0.0,0.0,0.0,0.0,0.0,0.0,0.0,0.0,0.0,0.0,0.0,0.0,0.0,0.0,0.0,0.0,0.0,0.0,0.0,0.0,0.0,0.0,0.0,0.0,0.0,0.0,0.0,0.0,0.0,0.0,0.0,0.0,0.0,0.0,0.0,0.0,0.0,0.0,0.0,0.0,0.0,0.0,0.0,0.0,0.0,0.0,0.0,0.0,0.0,0.0,0.0,0.0,0.0,0.0,0.0,0.0,0.0,0.0,0.0,0.0,0.0,0.0,0.0,0.0,0.0,0.0,0.0,0.0,0.0,0.0,0.0,0.0,0.0,0.0,0.0,0.0,0.0,0.0,0.0,0.0,0.0,0.0,0.0,0.0,0.0,0.0,0.0,0.0,0.0,0.0,0.0,0.0,0.0,0.0,0.0,0.0,0.0,0.0,0.0,0.0,0.0,0.0,0.0,0.0,0.0,0.0,0.0,0.0,0.0,0.0,0.0,0.0,0.0,0.0,0.0,0.0,0.0,0.0,0.0,0.0,0.0,0.0,0.0,0.0,0.0,0.0,0.0,0.0,0.0,0.0,0.0,0.0,0.0,0.0,0.0,0.0,0.0,0.0,0.0,0.0,0.0,0.0,0.0,0.0,0.0,0.0,0.0,0.0,0.0,0.0,0.0,0.0,0.0,0.0,0.0,0.0,0.0,0.0,0.0,0.0,0.0,0.0,0.0,0.0,0.0,0.0,0.0,0.0,0.0,0.0,0.0,0.0,0.0,0.0,0.0,0.0,0.0,0.0,0.0,0.0,0.0,0.0,0.0,0.0,0.0,0.0,0.0,0.0,0.0,0.0,0.0,0.0,0.0,0.0,0.0,0.0,0.0,0.0,0.0,0.0,0.0,0.0,0.0,0.0,0.0,0.0,0.0,0.0,0.0,0.0,0.0,0.0,0.0,0.0,0.0,0.0,0.0,0.0,0.0,0.0,0.0,0.0,0.0,0.0,0.0,0.0,0.0,0.0,0.0,0.0,0.0,0.0,0.0,0.0,0.0,0.0,0.0,0.0,0.0,0.0,0.0,0.0,0.0,0.0,0.0,0.0,0.0,0.0,0.0,0.0,0.0,0.0,0.0,0.0,0.0,0.0,0.0,0.0,0.0,0.0,0.0,0.0,0.0,0.0,0.0,0.0,0.0,0.0,0.0,0.0,0.0,0.0,0.0,0.0,0.0,0.0,0.0,0.0,0.0,0.0,0.0,0.0,0.0,0.0,0.0,0.0,0.0,0.0,0.0,0.0,0.0,0.0,0.0,0.0,0.0,0.0,0.0,0.0,0.0,0.0,0.0,0.0,0.0,0.0,0.0,0.0,0.0,0.0,0.0,0.0,0.0,0.0,0.0,0.0,0.0,0.0,0.0,0.0,0.0,0.0,0.0,0.0,0.0,0.0,0.0,0.0,0.0,0.0,0.0,0.0,0.0,0.0,0.0,0.0,0.0,0.0,0.0,0.0,0.0,0.0,0.0,0.0,0.0,0.0,0.0,0.0,0.0,0.0,0.0,0.0,0.0,0.0,0.0,0.0,0.0,0.0,0.0,0.0,0.0,0.0,0.0,0.0,0.0,0.0,0.0,0.0,0.0,0.0,0.0,0.0,0.0,0.0,0.0,0.0,0.0,0.0,0.0,0.0,0.0,0.0,0.0,0.0,0.0,0.0,0.0,0.0,0.0,0.0,0.0,0.0,0.0,0.0,0.0,0.0,0.0,0.0,0.0,0.0,0.0,0.0,0.0,0.0,0.0,0.0,0.0,0.0,0.0,0.0,0.0,0.0,0.0,0.0,0.0,0.0,0.0,0.0,0.0,0.0,0.0,0.0,0.0,0.0,0.0,0.0,0.0,0.0,0.0,0.0,0.0,0.0,0.0,0.0,0.0,0.0,0.0,0.0,0.0,0.0,0.0,0.0,0.0,0.0,0.0,0.0,0.0,0.0,0.0,0.0,0.0,0.0,0.0,0.0,0.0,0.0,0.0,0.0,0.0,0.0,0.0,0.0,0.0,0.0,0.0,0.0,0.0,0.0,0.0,0.0,0.0,0.0,0.0,0.0,0.0,0.0,0.0,0.0,0.0,0.0,0.0,0.0,0.0,0.0,0.0,0.0,0.0,0.0,0.0,0.0,0.0,0.0,0.0,0.0,0.0,0.0,0.0,0.0,0.0,0.0,0.0,0.0,0.0,0.0,0.0,0.0,0.0,0.0,0.0,0.0,0.0,0.0,0.0,0.0,0.0,0.0,0.0,0.0,0.0,0.0,0.0,0.0,0.0,0.0,0.0,0.0,0.0,0.0,0.0,0.0,0.0,0.0,0.0,0.0,0.0,0.0,0.0,0.0,0.0,0.0,0.0,0.0,0.0,0.0,0.0,0.0,0.0,0.0,0.0,0.0,0.0,0.0,0.0,0.0,0.0,0.0,0.0,0.0,0.0,0.0,0.0,0.0,0.0,0.0,0.0,0.0,0.0,0.0,0.0,0.0,0.0,0.0,0.0,0.0,0.0,0.0,0.0,0.0,0.0,0.0,0.0,0.0,0.0,0.0,0.0,0.0,0.0,0.0,0.0,0.0,0.0,0.0,0.0,0.0,0.0,0.0,0.0,0.0,0.0,0.0,0.0,0.0,0.0,0.0,0.0,0.0,0.0,0.0,0.0,0.0,0.0,0.0,0.0,0.0,0.0,0.0,0.0,0.0,0.0,0.0,0.0,0.0,0.0,0.0,0.0,0.0,0.0,0.0,0.0,0.0,0.0,0.0,0.0,0.0,0.0,0.0,0.0,0.0,0.0,0.0,0.0,0.0,0.0,0.0,0.0,0.0,0.0,0.0,0.0,0.0,0.0,0.0,0.0,0.0,0.0,0.0,0.0,0.0,0.0,0.0,0.0,0.0,0.0,0.0,0.0,0.0,0.0,0.0,0.0,0.0,0.0,0.0,0.0,0.0,0.0,0.0,0.0,0.0,0.0,0.0,0.0,0.0,0.0,0.0,0.0,0.0,0.0,0.0,0.0,0.0,0.0,0.0,0.0,0.0,0.0,0.0,0.0,0.0,0.0,0.0,0.0,0.0,0.0,0.0,0.0,0.0,0.0,0.0,0.0,0.0,0.0,0.0,0.0,0.0,0.0,0.0,0.0,0.0,0.0,0.0,0.0,0.0,0.0,0.0,0.0,0.0,0.0,0.0,0.0,0.0,0.0,0.0,0.0,0.0,0.0,0.0,0.0,0.0,0.0,0.0,0.0,0.0,0.0,0.0,0.0,0.0,0.0,0.0,0.0,0.0,0.0,0.0,0.0,0.0,0.0,0.0,0.0,0.0,0.0,0.0,0.0,0.0,0.0,0.0,0.0,0.0,0.0,0.0,0.0,0.0,0.0,0.0,0.0,0.0,0.0,0.0,0.0,0.0,0.0,0.0,0.0,0.0,0.0,0.0,0.0,0.0,0.0,0.0,0.0,0.0,0.0,0.0,0.0,0.0,0.0,0.0,0.0,0.0,0.0,0.0,0.0,0.0,0.0,0.0,0.0,0.0,0.0,0.0,0.0,0.0,0.0,0.0,0.0,0.0,0.0,0.0,0.0,0.0,0.0,0.0,0.0,0.0,0.0,0.0,0.0,0.0,0.0,0.0,0.0,0.0,0.0,0.0,0.0,0.0,0.0,0.0,0.0,0.0,0.0,0.0,0.0,0.0,0.0,0.0,0.0,0.0,0.0,0.0,0.0,0.0,0.0,0.0,0.0,0.0,0.0,0.0,0.0,0.0,0.0,0.0,0.0,0.0,0.0,0.0,0.0,0.0,0.0,0.0,0.0,0.0,0.0,0.0,0.0,0.0,0.0,0.0,0.0,0.0,0.0,0.0,0.0,0.0,0.0,0.0,0.0,0.0,0.0,0.0,0.0,0.0,0.0,0.0,0.0,0.0,0.0,0.0,0.0,0.0,0.0,0.0,0.0,0.0,0.0,0.0,0.0,0.0,0.0,0.0,0.0,0.0,0.0,0.0,0.0,0.0,0.0,0.0,0.0,0.0,0.0,0.0,0.0,0.0,0.0,0.0,0.0,0.0,0.0,0.0,0.0,0.0,0.0,0.0,0.0,0.0,0.0,0.0,0.0,0.0,0.0,0.0,0.0,0.0,0.0,0.0,0.0,0.0,0.0,0.0,0.0,0.0,0.0,0.0,0.0,0.0,0.0,0.0,0.0,0.0,0.0,0.0,0.0,0.0,0.0,0.0,0.0,0.0,0.0,0.0,0.0,0.0,0.0,0.0,0.0,0.0,0.0,0.0,0.0,0.0,0.0,0.0,0.0,0.0,0.0,0.0,0.0,0.0,0.0,0.0,0.0,0.0,0.0,0.0,0.0,0.0,0.0,0.0,0.0,0.0,0.0,0.0,0.0,0.0,0.0,0.0,0.0,0.0,0.0,0.0,0.0,0.0,0.0,0.0,0.0,0.0,0.0,0.0,0.0,0.0,0.0,0.0,0.0,0.0,0.0,0.0,0.0,0.0,0.0,0.0,0.0,0.0,0.0,0.0,0.0,0.0,0.0,0.0,0.0,0.0,0.0,0.0,0.0,0.0,0.0,0.0,0.0,0.0,0.0,0.0,0.0,0.0,0.0,0.0,0.0,0.0,0.0,0.0,0.0,0.0,0.0,0.0,0.0,0.0,0.0,0.0,0.0,0.0,0.0,0.0,0.0,0.0,0.0,0.0,0.0,0.0,0.0,0.0,0.0,0.0,0.0,0.0,0.0,0.0,0.0,0.0,0.0,0.0,0.0,0.0,0.0,0.0,0.0,0.0,0.0,0.0,0.0,0.0,0.0,0.0,0.0,0.0,0.0,0.0,0.0,0.0,0.0,0.0,0.0,0.0,0.0,0.0,0.0,0.0,0.0,0.0,0.0,0.0,0.0,-3.6296,0.0,0.0,0.0,0.0,0.0,0.0,0.0,0.0,0.0,0.0,0.0,0.0,0.0,0.0,0.0,0.0,0.0,0.0,0.0,0.0,0.0,0.0,0.0,0.0,0.0,0.0,0.0,0.0,0.0,0.0,0.0,0.0,0.0,0.0,0.0,0.0,0.0,0.0,0.0,-4.0797,-4.1057,-4.1532,-4.1958,-4.1662,-4.0797,0.0,0.0,0.0,0.0,0.0,0.0,0.0,0.0,0.0,0.0,0.0,0.0,0.0,0.0,0.0,0.0,0.0,0.0,0.0,0.0,0.0,0.0,0.0,0.0,0.0,0.0,0.0,0.0,0.0,0.0,0.0,0.0,0.0,0.0,0.0,0.0,0.0,0.0,0.0,0.0,0.0,0.0,0.0,0.0,0.0,0.0,0.0,0.0,0.0,0.0,0.0,0.0,0.0,0.0,0.0,0.0,0.0,0.0,0.0,0.0,0.0,0.0,0.0,0.0,0.0,0.0,0.0,0.0,0.0,0.0,0.0,-3.6813,0.0,0.0,0.0,0.0,0.0,0.0,0.0,0.0,0.0,0.0,0.0,0.0,0.0,0.0,0.0,0.0,0.0,0.0,0.0,0.0,0.0,0.0,0.0,0.0,-4.1028,-4.1028,-4.1028,-4.1028,0.0,0.0,0.0,0.0,0.0,0.0,0.0,-4.1085,-4.1143,-4.1318,-4.1318,-4.1724,-4.2552,-4.3337,-4.2838,-4.1318,-4.1318,0.0,0.0,0.0,0.0,0.0,0.0,0.0,0.0,0.0,0.0,0.0,0.0,0.0,0.0,0.0,0.0,0.0,0.0,0.0,0.0,0.0,0.0,0.0,0.0,0.0,0.0,0.0,0.0,0.0,0.0,0.0,0.0,0.0,0.0,0.0,0.0,0.0,0.0,0.0,0.0,0.0,0.0,0.0,0.0,0.0,0.0,0.0,0.0,0.0,0.0,0.0,0.0,0.0,0.0,0.0,0.0,0.0,0.0,0.0,0.0,0.0,0.0,0.0,-3.9182,-3.9182,-3.9182,-3.9162,-3.9083,-3.8988,-3.8978,-3.8601,-3.8007,-3.8161,0.0,0.0,0.0,0.0,0.0,0.0,0.0,0.0,0.0,0.0,0.0,0.0,0.0,0.0,0.0,0.0,0.0,0.0,0.0,0.0,0.0,-4.1171,-4.1171,-4.1171,-4.1171,-4.1171,-4.1171,0.0,0.0,0.0,0.0,0.0,-4.2165,-4.2185,-4.2556,-4.3318,-4.3318,-4.3397,-4.3515,-4.3633,-4.3554,-4.3318,-4.3318,-4.2877,-4.2158,0.0,0.0,0.0,0.0,0.0,0.0,0.0,0.0,0.0,0.0,0.0,0.0,0.0,0.0,0.0,0.0,0.0,0.0,0.0,0.0,0.0,0.0,0.0,0.0,0.0,0.0,0.0,0.0,0.0,0.0,0.0,0.0,0.0,0.0,0.0,0.0,0.0,0.0,0.0,0.0,0.0,-3.7661,-3.7661,0.0,0.0,0.0,0.0,0.0,0.0,0.0,0.0,0.0,0.0,0.0,0.0,0.0,-4.0851,-4.1607,-4.1595,-4.1976,-4.273,-4.273,-4.273,-4.2726,-4.2613,-4.2543,-4.2518,-4.2463,0.0,-3.8065,-3.8815,0.0,0.0,0.0,0.0,0.0,0.0,0.0,0.0,0.0,0.0,0.0,0.0,0.0,0.0,0.0,0.0,0.0,0.0,0.0,0.0,0.0,-4.1191,-4.1191,-4.1191,-4.1191,-4.1191,-4.1191,-4.1191,0.0,0.0,0.0,-4.2266,-4.3105,-4.3125,-4.332,-4.3691,-4.4199,-4.4433,-4.4433,-4.4922,-4.5156,-4.5156,-4.5156,-4.4393,-4.3117,-4.3489,0.0,0.0,0.0,0.0,0.0,0.0,0.0,0.0,0.0,0.0,0.0,0.0,0.0,0.0,0.0,0.0,0.0,0.0,0.0,0.0,0.0,0.0,0.0,0.0,0.0,0.0,0.0,0.0,0.0,0.0,0.0,0.0,0.0,0.0,0.0,0.0,0.0,0.0,0.0,-3.7757,-3.8031,-3.8099,-3.8483,-3.876,0.0,0.0,0.0,0.0,0.0,0.0,0.0,0.0,0.0,-4.1766,-4.2019,-4.2338,-4.2707,-4.2679,-4.2847,-4.3234,-4.3234,-4.3234,-4.3234,-4.3178,-4.3134,-4.3134,-4.3107,-4.2258,-4.0854,-4.0758,-4.0719,-4.0681,0.0,0.0,0.0,0.0,-4.0496,-4.0481,0.0,0.0,0.0,0.0,0.0,0.0,0.0,0.0,0.0,0.0,0.0,0.0,-4.1191,-4.1191,-4.1191,-4.1191,-4.1387,-4.1504,-4.1504,-4.1719,0.0,0.0,-4.2734,-4.3144,-4.4004,-4.4258,-4.4375,-4.4375,-4.5019,-4.5332,-4.5351,-4.5996,-4.6308,-4.6308,-4.6308,-4.5469,-4.4043,-4.4277,-4.4101,-4.3711,0.0,0.0,0.0,0.0,0.0,0.0,0.0,0.0,0.0,0.0,0.0,0.0,0.0,0.0,0.0,0.0,0.0,0.0,0.0,0.0,0.0,0.0,0.0,0.0,0.0,0.0,0.0,0.0,0.0,0.0,0.0,0.0,0.0,0.0,0.0,0.0,0.0,-3.8507,-3.8681,-3.878,-3.9275,-3.9723,0.0,0.0,0.0,0.0,0.0,0.0,-4.2319,-4.2364,-4.2689,-4.3326,-4.3246,-4.3278,-4.349,-4.3427,-4.3528,-4.3739,-4.3739,-4.3739,-4.3739,-4.3739,-4.3739,-4.3739,-4.3739,-4.3739,-4.3662,-4.2585,-4.2143,-4.2066,-4.1412,-4.117,-4.117,-4.117,-4.1091,-4.0995,0.0,0.0,0.0,0.0,0.0,0.0,0.0,0.0,0.0,0.0,0.0,-4.1191,-4.1191,-4.1191,-4.1191,-4.1191,-4.1894,-4.2344,-4.2344,-4.3105,-4.3594,-4.3633,-4.3633,-4.4043,-4.4922,-4.5742,-4.6172,-4.6172,-4.6211,-4.623,-4.623,-4.6289,-4.6308,-4.6308,-4.6308,-4.5781,-4.498,-4.582,-4.5215,-4.3769,-4.4609,0.0,0.0,0.0,0.0,0.0,0.0,0.0,0.0,0.0,0.0,0.0,0.0,0.0,0.0,0.0,0.0,0.0,0.0,0.0,0.0,0.0,0.0,0.0,0.0,0.0,0.0,0.0,0.0,0.0,0.0,0.0,0.0,0.0,0.0,0.0,0.0,0.0,0.0,-4.0377,-4.0427,0.0,0.0,0.0,0.0,-4.3189,-4.3261,-4.3285,-4.3324,-4.3214,-4.3163,-4.3221,-4.3146,-4.3467,-4.4237,-4.4248,-4.4662,-4.5479,-4.5479,-4.5479,-4.5479,-4.5479,-4.5479,-4.5479,-4.5479,-4.5479,-4.5344,-4.3701,-4.3028,-4.3028,-4.2989,-4.297,-4.297,-4.297,-4.2726,-4.2358,0.0,0.0,0.0,0.0,0.0,0.0,0.0,0.0,-4.1191,-4.1191,-4.1191,-4.1406,-4.1914,-4.1973,-4.2207,-4.2754,-4.3066,-4.3242,-4.3242,-4.3535,-4.3945,-4.4512,-4.4531,-4.4941,-4.582,-4.6133,-4.6308,-4.6308,-4.6308,-4.6308,-4.6308,-4.6308,-4.6308,-4.6308,-4.6308,-4.6133,-4.5859,-4.6172,-4.5937,-4.5391,-4.5703,-4.5312,0.0,0.0,0.0,0.0,0.0,0.0,0.0,0.0,0.0,0.0,0.0,0.0,0.0,0.0,0.0,0.0,0.0,0.0,0.0,0.0,0.0,0.0,0.0,0.0,0.0,0.0,0.0,0.0,0.0,0.0,0.0,0.0,0.0,0.0,0.0,0.0,0.0,-4.1466,-4.1874,0.0,-4.2731,-4.2721,-4.2852,-4.3187,-4.3213,-4.3426,-4.3947,-4.3921,-4.4423,-4.5552,-4.5563,-4.5932,-4.674,-4.6759,-4.6894,-4.7201,-4.7201,-4.7201,-4.7201,-4.7201,-4.7201,-4.7201,-4.7201,-4.6913,-4.6394,-4.5797,-4.4874,-4.3816,-4.3297,-4.3104,-4.3104,-4.3104,-4.3015,-4.2869,0.0,0.0,0.0,0.0,0.0,0.0,0.0,0.0,-4.1719,-4.1992,-4.2031,-4.2246,-4.2773,-4.2832,-4.3066,-4.3652,-4.3965,-4.4141,-4.4141,-4.4414,-4.4824,-4.541,-4.5449,-4.5703,-4.6289,-4.6308,-4.6308,-4.6308,-4.6308,-4.6308,-4.6308,-4.6308,-4.6308,-4.6308,-4.6308,-4.6308,-4.6308,-4.6308,-4.6308,-4.6308,-4.6308,-4.5957,-4.541,0.0,0.0,0.0,0.0,0.0,0.0,0.0,0.0,0.0,0.0,0.0,0.0,0.0,0.0,0.0,0.0,0.0,0.0,0.0,0.0,0.0,0.0,0.0,0.0,0.0,0.0,0.0,0.0,0.0,0.0,0.0,0.0,0.0,0.0,0.0,-4.2268,-4.2355,-4.2799,-4.3219,-4.3533,-4.3532,-4.3624,-4.3912,-4.422,-4.4605,-4.5143,-4.5432,-4.6105,-4.7278,-4.7288,-4.7567,-4.8086,-4.8105,-4.8105,-4.8105,-4.8105,-4.8105,-4.8105,-4.8105,-4.8105,-4.8105,-4.8105,-4.7798,-4.7288,-4.7288,-4.6624,-4.547,-4.4374,-4.3932,-4.3932,-4.3932,-4.3788,-4.3578,0.0,0.0,0.0,0.0,0.0,0.0,0.0,-4.2441,-4.2734,-4.3594,-4.3691,-4.3711,-4.373,-4.373,-4.375,-4.3789,-4.4551,-4.5039,-4.5039,-4.582,-4.6308,-4.6308,-4.6308,-4.6308,-4.6308,-4.6308,-4.6308,-4.6308,-4.6308,-4.6308,-4.6308,-4.6308,-4.6308,-4.6308,-4.6308,-4.6308,-4.6308,-4.6308,-4.6308,-4.6308,-4.6308,-4.6308,-4.6211,0.0,0.0,0.0,0.0,0.0,0.0,0.0,0.0,0.0,0.0,0.0,0.0,0.0,0.0,0.0,0.0,0.0,0.0,0.0,0.0,0.0,0.0,0.0,0.0,0.0,0.0,0.0,0.0,0.0,0.0,0.0,0.0,0.0,-4.3104,-4.3124,-4.3143,-4.3143,-4.3162,-4.3489,-4.4297,-4.4374,-4.4739,-4.5614,-4.6451,-4.6942,-4.6942,-4.7682,-4.8105,-4.8144,-4.8144,-4.8144,-4.8182,-4.8182,-4.8182,-4.8182,-4.8182,-4.8182,-4.8182,-4.8182,-4.8182,-4.8182,-4.8182,-4.8163,-4.8144,-4.8144,-4.8125,-4.7952,-4.6297,-4.5663,-4.5624,-4.5624,-4.518,-4.4501,0.0,0.0,0.0,0.0,0.0,0.0,0.0,-4.334,-4.3437,-4.3672,-4.3691,-4.3945,-4.457,-4.4648,-4.4902,-4.5527,-4.5801,-4.5937,-4.5937,-4.6172,-4.6308,-4.6308,-4.6308,-4.6308,-4.6308,-4.6308,-4.6308,-4.6308,-4.6308,-4.6308,-4.6308,-4.6308,-4.6308,-4.6308,-4.6308,-4.6308,-4.6308,-4.6308,-4.6308,-4.6308,-4.6308,-4.6308,-4.6269,0.0,0.0,0.0,0.0,0.0,0.0,0.0,0.0,0.0,0.0,0.0,0.0,0.0,0.0,0.0,0.0,0.0,0.0,0.0,0.0,0.0,0.0,0.0,0.0,0.0,0.0,0.0,0.0,0.0,0.0,0.0,0.0,-4.3778,-4.3181,-4.3605,-4.397,-4.397,-4.4528,-4.524,-4.6105,-4.6201,-4.6528,-4.7355,-4.7625,-4.7778,-4.7778,-4.799,-4.8394,-4.9029,-4.9048,-4.9356,-4.9971,-4.999,-4.999,-4.999,-4.999,-4.999,-4.999,-4.999,-4.999,-4.999,-4.999,-4.9625,-4.9048,-4.9048,-4.8663,-4.8048,-4.7586,-4.6887,-4.6103,-4.6103,-4.5472,-4.4567,0.0,0.0,0.0,0.0,0.0,0.0,0.0,-4.4238,-4.4375,-4.4746,-4.4785,-4.498,-4.5488,-4.5547,-4.5742,-4.6269,-4.6308,-4.6308,-4.6308,-4.6308,-4.6308,-4.6308,-4.6308,-4.6308,-4.6308,-4.6308,-4.6308,-4.6308,-4.6308,-4.6308,-4.6308,-4.6308,-4.6308,-4.6308,-4.6308,-4.6308,-4.6308,-4.6308,-4.6308,-4.6308,-4.6308,-4.6308,-4.6308,-4.6308,-4.6222,-4.603,-4.5566,-4.5094,-4.4615,-4.4035,0.0,0.0,0.0,0.0,0.0,0.0,0.0,0.0,0.0,0.0,0.0,0.0,0.0,0.0,0.0,0.0,0.0,0.0,0.0,0.0,0.0,0.0,0.0,0.0,-4.4836,-4.4816,-4.472,-4.4778,-4.497,-4.5355,-4.5836,-4.6471,-4.7317,-4.7413,-4.7605,-4.8067,-4.8432,-4.8644,-4.8644,-4.899,-4.9413,-4.9933,-4.9933,-5.0192,-5.0712,-5.0712,-5.0712,-5.0712,-5.0712,-5.0712,-5.0712,-5.0712,-5.0712,-5.0712,-5.0712,-5.0423,-4.9933,-4.9933,-4.9537,0.0,0.0,0.0,0.0,0.0,-4.586,-4.4829,0.0,0.0,0.0,0.0,0.0,0.0,0.0,-4.5156,-4.543,-4.6191,-4.6308,-4.6308,-4.6308,-4.6308,-4.6308,-4.6308,-4.6308,-4.6308,-4.6308,-4.6308,-4.6308,-4.6308,-4.6308,-4.6308,-4.6308,-4.6308,-4.6308,-4.6308,-4.6308,-4.6308,-4.6308,-4.6308,-4.6308,-4.6308,-4.6308,-4.6308,-4.6308,-4.6308,-4.6308,-4.6308,-4.6308,-4.6308,-4.6308,-4.6308,-4.6224,-4.6119,-4.6119,-4.5599,-4.4888,-4.4845,0.0,0.0,0.0,0.0,0.0,0.0,0.0,0.0,0.0,0.0,0.0,0.0,0.0,0.0,0.0,0.0,0.0,0.0,0.0,0.0,0.0,0.0,0.0,0.0,-4.5691,-4.6009,-4.6797,-4.6317,-4.6163,-4.6951,-4.7038,-4.7355,-4.8163,-4.8259,-4.8298,-4.8394,-4.9106,-4.9548,-4.9548,0.0,0.0,0.0,0.0,-5.0712,-5.0712,-5.0712,-5.0712,-5.0712,-5.0712,-5.0712,-5.0712,-5.0712,-5.0712,-5.0712,-5.0712,-5.0673,-5.0624,-5.0624,-5.0399,-4.9903,-4.8577,-4.8047,-4.7966,-4.7173,-4.6199,-4.5233,0.0,0.0,0.0,0.0,0.0,0.0,0.0,-4.6055,-4.6113,-4.6289,-4.6308,-4.6308,-4.6308,-4.6308,-4.6308,-4.6308,-4.6308,-4.6308,-4.6308,-4.6308,-4.6308,-4.6308,-4.6308,-4.6308,-4.6308,-4.6308,-4.6308,-4.6308,-4.6308,-4.6308,-4.6308,-4.6308,-4.6308,-4.6308,-4.6308,-4.6308,-4.6308,-4.6308,-4.6308,-4.6308,-4.6308,-4.6308,-4.6308,-4.6308,-4.6289,-4.6268,-4.6268,-4.6149,-4.5964,-4.5744,-4.5535,-4.5346,-4.5186,-4.5128,0.0,0.0,0.0,0.0,0.0,0.0,0.0,0.0,0.0,0.0,0.0,0.0,0.0,0.0,0.0,0.0,0.0,0.0,0.0,-4.5594,-4.6182,-4.6721,-4.6885,-4.7317,-4.7682,-4.7855,-4.7875,-4.8221,-4.9067,-4.9144,-4.9433,-5.0144,-5.0346,-5.0462,-5.0462,-5.0616,-5.0712,-5.0712,-5.0712,-5.0712,-5.0712,-5.0712,-5.0712,-5.0712,0.0,0.0,-5.0712,-5.0712,-5.0712,-5.0712,-5.0712,-5.0523,-5.0225,-5.0225,-4.9974,-4.9495,-4.8265,-4.7766,-4.7631,-4.6504,-4.5969,-4.577,0.0,0.0,0.0,0.0,0.0,0.0,0.0,-4.6308,-4.6308,-4.6308,-4.6308,-4.6308,-4.6308,-4.6308,-4.6308,-4.6308,-4.6308,-4.6308,-4.6308,-4.6308,-4.6308,-4.6308,-4.6308,-4.6308,-4.6308,-4.6308,-4.6308,-4.6308,-4.6308,-4.6308,-4.6308,-4.6308,-4.6308,-4.6308,-4.6308,-4.6308,-4.6308,-4.6308,-4.6268,-4.62,-4.62,-4.615,-4.6115,-4.6247,-4.6308,-4.6289,-4.6224,-4.62,-4.6173,-4.5974,-4.5877,-4.5836,-4.572,-4.5648,-4.5594,0.0,0.0,0.0,0.0,0.0,0.0,0.0,0.0,0.0,0.0,0.0,0.0,0.0,0.0,-4.5594,0.0,0.0,-4.5748,-4.6182,-4.6624,-4.7201,-4.8029,-4.8509,-4.8759,-4.8759,-4.8759,-4.9086,-4.9971,-5.0048,-5.0231,-5.0673,-5.0712,-5.0712,-5.0712,-5.0712,-5.0712,-5.0712,-5.0712,-5.0712,-5.0712,-5.0712,-5.0712,-5.0712,-5.1106,-5.1298,-5.1318,-5.1741,-5.1832,-5.1652,-5.1652,-5.1407,-5.0954,-5.0354,-4.9992,-4.9682,-4.8466,-4.8116,-4.8228,-4.7617,-4.702,-4.6507,0.0,0.0,0.0,0.0,0.0,0.0,0.0,-4.6308,-4.6308,-4.6308,-4.6308,-4.6308,-4.6308,-4.6308,-4.6308,-4.6308,-4.6308,-4.6308,-4.6308,-4.6308,-4.6308,-4.6308,-4.6308,-4.6308,-4.6308,-4.6308,-4.6308,-4.6308,-4.6308,-4.6308,-4.6308,-4.6308,-4.6308,-4.6308,-4.6308,-4.6289,-4.6268,-4.6268,-4.6177,-4.605,-4.605,-4.5995,-4.592,-4.6144,-4.6224,-4.6202,-4.6108,-4.605,-4.6039,-4.5927,-4.5847,-4.5796,-4.5775,-4.5696,-4.5594,-4.5594,-4.5594,0.0,0.0,0.0,0.0,0.0,0.0,0.0,0.0,0.0,-4.5594,-4.5594,-4.5594,-4.5652,-4.5825,-4.5845,-4.6124,-4.699,-4.7278,-4.7855,-4.9202,-4.9548,-4.9644,-4.9644,-4.9644,-4.9933,-5.0635,-5.0712,-5.0712,-5.0712,-5.0712,-5.0712,-5.0712,-5.0712,-5.0712,-5.0712,-5.0712,-5.0712,-5.0712,-5.0866,-5.0933,-5.0933,-5.176,-5.2104,-5.2052,-5.2762,-5.2862,-5.246,-5.2379,-5.2143,-5.1697,-5.0646,-5.0247,-5.0118,-4.8991,-4.8753,-4.902,-4.8834,-4.8161,-4.7333,0.0,0.0,0.0,0.0,0.0,0.0,0.0,0.0,-4.6308,-4.6308,-4.6308,-4.6308,-4.6308,-4.6308,-4.6308,-4.6308,-4.6308,-4.6308,-4.6308,-4.6308,-4.6308,-4.6308,-4.6308,-4.6308,-4.6308,-4.6308,-4.6308,-4.6308,-4.6308,-4.6308,-4.6308,-4.6308,-4.6308,-4.6308,-4.6308,-4.6226,-4.6119,-4.6119,-4.6042,-4.592,-4.592,-4.5912,-4.5903,-4.5928,-4.5936,-4.5936,-4.5924,-4.592,-4.5903,-4.5844,-4.5816,-4.5769,-4.5657,-4.5612,-4.5594,-4.5594,0.0,-4.5594,-4.5594,-4.5594,0.0,-4.5594,-4.5594,-4.5594,0.0,0.0,-4.5594,-4.5594,-4.5594,-4.5845,-4.6605,-4.6759,-4.7028,-4.7836,-4.8625,-4.9183,-4.9375,-5.0067,-5.0558,-5.0558,-5.0558,-5.0596,-5.0693,-5.0712,-5.0712,-5.0712,-5.0712,-5.0712,-5.0712,-5.0712,-5.0712,-5.0712,-5.0712,-5.0712,-5.0712,-5.1414,-5.1769,-5.1769,-5.2645,-5.2861,-5.252,-5.2616,-5.242,-5.1956,-5.1609,-5.1424,-5.1318,-5.0913,-5.0717,-5.0643,-4.9795,-4.9484,-4.9431,-4.864,-4.8271,-4.8177,0.0,0.0,0.0,0.0,0.0,0.0,0.0,0.0,0.0,-4.6308,-4.6308,-4.6308,-4.6308,-4.6308,-4.6308,-4.6308,-4.6308,-4.6308,-4.6308,-4.6308,-4.6308,-4.6308,-4.6308,-4.6308,-4.6308,-4.6308,-4.6308,-4.6308,-4.6308,-4.6308,-4.6308,-4.6308,-4.6308,-4.6308,-4.6308,-4.6268,-4.6202,-4.6122,-4.603,-4.5894,-4.5855,-4.5808,-4.5736,-4.5736,-4.5736,-4.5731,-4.5813,-4.5842,0.0,-4.5718,-4.5669,-4.5673,-4.562,-4.5594,-4.5594,-4.5594,-4.5594,0.0,-4.5594,0.0,0.0,0.0,-4.5594,-4.5594,-4.5594,-4.5594,-4.5594,-4.5594,-4.599,-4.6471,-4.6827,-4.7269,-4.7875,0.0,-4.9163,-4.9586,-5.0087,-5.0481,-5.0712,-5.0712,-5.0712,-5.0712,-5.0712,-5.0712,-5.0712,-5.0712,-5.0712,-5.0712,-5.0712,-5.0712,-5.0914,-5.1375,-5.1395,-5.1645,-5.2145,-5.2491,-5.2654,-5.2654,-5.3249,-5.346,-5.3308,-5.3585,-5.3462,-5.2983,-5.2585,-5.2408,-5.2352,-5.1746,-5.1499,-5.1408,-5.06,-5.0014,-4.95,-4.8618,-4.8306,-4.8306,0.0,0.0,0.0,0.0,0.0,0.0,0.0,0.0,0.0,0.0,-4.6308,-4.6308,-4.6308,-4.6308,-4.6308,-4.6308,-4.6308,-4.6308,-4.6308,-4.6308,-4.6308,-4.6308,-4.6308,-4.6308,-4.6308,-4.6308,-4.6308,-4.6308,-4.6308,-4.6308,-4.6308,-4.6308,-4.6308,-4.6308,-4.6308,-4.6289,-4.6246,-4.6144,-4.603,-4.589,-4.5826,-4.574,-4.566,-4.562,-4.5594,-4.5612,-4.5715,-4.5747,-4.5725,-4.5627,-4.5594,-4.5594,-4.5594,-4.5594,-4.5594,-4.5594,-4.5594,-4.5594,-4.5594,0.0,0.0,-4.5594,-4.5594,-4.5594,-4.5594,-4.5594,-4.5594,-4.5594,-4.6105,-4.6682,-4.7163,-4.7721,-4.8471,-4.9586,-4.976,-4.9971,-5.0616,-5.0712,-5.0712,-5.0712,-5.0712,-5.0712,-5.0712,-5.0712,-5.0712,-5.0712,-5.0712,-5.0808,-5.101,-5.1029,-5.1414,-5.2231,-5.225,-5.2558,-5.3203,-5.3433,-5.3568,-5.3568,-5.4077,-5.4212,-5.3997,-5.4107,-5.3961,-5.3624,-5.3336,-5.3185,-5.3148,-5.2564,-5.2325,-5.2252,-5.1444,-5.0637,-4.9831,-4.8967,-4.8508,-4.8306,0.0,0.0,0.0,0.0,0.0,0.0,0.0,0.0,0.0,0.0,0.0,0.0,0.0,-4.6308,-4.6308,-4.6308,-4.6308,-4.6308,-4.6308,-4.6308,-4.6308,-4.6308,-4.6308,-4.6308,-4.6308,-4.6308,-4.6308,-4.6308,-4.6308,-4.6308,-4.6308,-4.6308,-4.6308,-4.6308,-4.6308,-4.6225,-4.611,-4.611,-4.603,-4.589,-4.5826,-4.5796,-4.5776,-4.566,-4.5594,-4.5594,-4.5603,-4.5603,-4.5603,-4.5594,-4.5594,-4.5594,-4.5594,-4.5594,0.0,-4.5594,-4.5594,-4.5594,0.0,0.0,-4.5594,-4.5594,-4.5594,-4.5594,-4.5594,-4.5594,-4.5594,-4.5594,-4.5614,-4.6152,-4.7759,-4.8086,-4.8663,-5.0385,-5.0654,-5.0673,-5.0712,-5.0712,-5.0712,-5.0712,-5.0712,-5.0712,0.0,-5.0712,-5.0712,-5.0712,-5.0712,-5.1029,-5.1808,-5.1865,-5.225,-5.3126,-5.3164,-5.3164,-5.3203,-5.4049,-5.4453,-5.4472,-5.525,-5.5224,-5.4449,-5.3623,-5.3227,-5.3227,-5.3206,-5.3185,-5.3185,-5.3167,-5.317,-5.3096,-5.227,-5.1463,-5.0674,-4.9867,-4.9022,-4.8306,0.0,0.0,0.0,0.0,0.0,0.0,0.0,0.0,0.0,0.0,0.0,0.0,0.0,0.0,0.0,0.0,-4.6308,-4.6308,-4.6308,-4.6308,-4.6308,-4.6308,-4.6308,-4.6308,-4.6308,-4.6308,-4.6308,-4.6308,-4.6308,-4.6308,-4.6308,-4.6308,-4.6308,-4.6308,-4.6308,-4.6269,-4.6224,-4.6144,-4.6077,-4.6027,-4.5909,-4.5836,-4.5796,-4.5754,-4.568,-4.5594,0.0,-4.5594,-4.5594,-4.5594,-4.5594,-4.5594,-4.5594,-4.5594,-4.5594,-4.5594,-4.5594,-4.5594,-4.5594,0.0,-4.6471,-4.6471,-4.6855,-4.7124,-4.6586,-4.6471,-4.6297,-4.5729,-4.6067,-4.6624,-4.7201,-4.8221,-4.9144,-4.974,-5.0327,-5.0712,-5.0712,-5.0712,-5.0712,-5.0712,-5.0712,0.0,0.0,0.0,0.0,-5.0712,-5.1183,-5.1606,-5.1885,-5.2442,-5.3164,-5.4049,-5.4068,-5.4318,-5.4857,-5.5145,-5.5299,-5.5299,-5.5026,-5.4468,-5.3623,-5.3336,-5.3185,-5.3185,-5.3185,-5.3185,-5.3185,-5.3185,-5.3185,-5.3167,-5.2913,-5.2307,-5.1499,-5.0692,-4.9866,-4.9077,0.0,0.0,0.0,0.0,0.0,0.0,0.0,0.0,0.0,0.0,0.0,0.0,0.0,0.0,0.0,0.0,0.0,-4.6308,-4.6308,-4.6308,-4.6308,-4.6308,-4.6308,-4.6308,-4.6308,-4.6308,-4.6308,-4.6308,-4.6308,-4.6308,-4.6308,-4.6308,-4.6308,-4.6308,-4.6308,-4.6308,-4.6289,-4.6202,-4.6173,-4.615,-4.603,-4.5914,-4.5825,-4.5803,-4.5723,0.0,-4.5594,-4.5594,-4.5594,-4.5594,-4.5594,-4.5594,-4.5594,-4.5594,-4.5594,-4.5594,-4.5594,-4.5671,-4.597,-4.6471,-4.6962,-4.7259,-4.7509,-4.7548,-4.7019,-4.6663,-4.6278,-4.5729,-4.6047,-4.6528,-4.6827,-4.7778,-4.8702,-4.9298,-4.9875,-5.0346,-5.0654,-5.0712,-5.0712,-5.0712,-5.0712,0.0,0.0,0.0,0.0,-5.1106,-5.1606,-5.2173,-5.2799,-5.3356,-5.4049,-5.4895,-5.4934,-5.5122,-5.547,-5.5489,-5.5411,-5.525,-5.4575,-5.3961,-5.3402,-5.3272,-5.3185,-5.3185,-5.3185,-5.3185,-5.3185,-5.3185,-5.3185,-5.3185,-5.3185,-5.2711,-5.1885,-5.1096,-5.0288,-4.9482,0.0,0.0,0.0,0.0,0.0,0.0,0.0,0.0,0.0,0.0,0.0,0.0,0.0,0.0,0.0,0.0,0.0,0.0,-4.6308,-4.6308,-4.6308,-4.6308,-4.6308,-4.6308,-4.6308,-4.6308,-4.6308,-4.6308,-4.6308,-4.6308,-4.6308,-4.6308,-4.6308,-4.6308,-4.6308,-4.6308,-4.6308,-4.6308,-4.6308,-4.6289,-4.6152,-4.603,-4.589,-4.5832,-4.5711,-4.5594,-4.5594,-4.5594,-4.5594,-4.5594,0.0,0.0,-4.5594,-4.5594,-4.5594,-4.5594,-4.5633,-4.5845,-4.6682,-4.6962,-4.7212,-4.799,-4.7586,-4.7019,-4.6962,-4.6297,-4.5652,-4.5614,-4.5594,-4.5845,0.0,0.0,-4.7432,-4.9009,-4.9336,-4.9683,-5.0519,-5.0673,-5.0683,0.0,0.0,0.0,0.0,0.0,0.0,-5.1904,0.0,-5.2712,-5.4414,-5.4519,-5.4874,-5.5643,-5.5651,-5.5466,-5.5061,-5.5061,-5.4881,-5.4471,-5.4013,-5.3796,-5.3758,-5.3361,-5.3185,-5.3185,-5.3185,-5.3185,-5.3185,-5.3185,-5.3185,-5.3185,-5.3185,-5.2729,-5.1958,-5.1151,-5.0343,-4.9555,0.0,0.0,0.0,0.0,0.0,0.0,0.0,0.0,0.0,0.0,0.0,0.0,0.0,0.0,0.0,0.0,0.0,0.0,-4.6308,-4.6308,-4.6308,-4.6308,-4.6308,-4.6308,-4.6308,-4.6308,-4.6308,-4.6308,-4.6308,-4.6308,-4.6308,-4.6308,-4.6308,-4.6308,-4.6308,-4.6308,-4.6308,-4.6308,-4.6308,-4.6308,-4.6268,-4.6113,-4.5899,-4.5886,-4.5764,-4.5594,-4.5594,-4.5594,0.0,0.0,0.0,0.0,0.0,-4.5594,-4.5594,-4.5594,-4.6067,-4.6624,-4.6827,-4.7817,-4.8817,-4.9029,-4.8913,-4.8586,-4.7952,-4.7163,-4.6374,-4.5729,-4.5594,-4.5671,0.0,0.0,0.0,-4.7471,-4.8586,0.0,-4.9702,-5.0289,0.0,0.0,0.0,-5.0575,-5.0272,-5.106,0.0,0.0,-5.2876,-5.3356,-5.4434,-5.4779,-5.5027,-5.5237,-5.4966,-5.4764,-5.464,-5.464,-5.4436,-5.3977,-5.3869,-5.3644,-5.3339,-5.3251,-5.3185,-5.3185,-5.3185,-5.3185,-5.3185,-5.3185,-5.3185,-5.3185,-5.3185,-5.3057,-5.2803,-5.1995,-5.1169,-5.038,0.0,0.0,0.0,0.0,0.0,0.0,0.0,0.0,0.0,0.0,0.0,0.0,0.0,0.0,0.0,0.0,0.0,0.0,0.0,-4.6308,-4.6308,-4.6308,-4.6308,-4.6269,-4.6203,-4.6268,-4.6268,-4.6203,-4.6268,-4.6308,-4.6308,-4.6308,-4.6308,-4.6308,-4.6308,-4.6308,-4.6308,-4.6308,-4.6308,0.0,0.0,-4.6144,-4.5899,-4.5899,-4.5783,-4.5594,-4.5594,0.0,0.0,0.0,0.0,-4.5594,-4.5594,-4.5594,-4.5594,-4.5594,0.0,-4.6981,-4.7336,-4.8394,-4.9394,-4.9394,-4.9106,-4.8606,-4.7778,-4.6932,-4.6182,-4.571,-4.5893,0.0,0.0,0.0,0.0,0.0,0.0,0.0,-4.9298,-4.968,-4.9989,0.0,-5.041,0.0,-5.0116,-5.1029,-5.1917,0.0,-5.3157,-5.3851,-5.4714,-5.4819,-5.4852,-5.4852,-5.4628,-5.4387,-5.4187,-5.4033,-5.3796,-5.3545,-5.3545,-5.3422,-5.3185,-5.3185,-5.3185,-5.3185,0.0,-5.3185,-5.3185,-5.3185,-5.3185,-5.3185,-5.3185,-5.3185,-5.3093,-5.2289,-5.1481,-5.0674,0.0,0.0,0.0,0.0,0.0,0.0,0.0,0.0,0.0,0.0,0.0,0.0,0.0,0.0,0.0,0.0,0.0,0.0,0.0,0.0,-4.6247,-4.6247,-4.6247,-4.6199,-4.6077,-4.6198,-4.6198,-4.6077,-4.6202,-4.6269,-4.6269,-4.6289,-4.6308,-4.6308,-4.6308,-4.6308,-4.6308,-4.6308,-4.6308,-4.6308,-4.6308,-4.6144,-4.5899,0.0,-4.5783,-4.5594,0.0,0.0,0.0,0.0,-4.5594,-4.5594,-4.5594,-4.5594,-4.5594,-4.5594,-4.6297,-4.7212,-4.7913,-4.8817,-4.9529,-4.9433,-4.874,-4.7894,-4.7077,-4.622,-4.5633,-4.5748,0.0,-4.6923,-4.7038,0.0,-4.725,-4.7836,0.0,-4.7567,-4.9029,-4.8977,-4.9251,-5.0469,-5.0325,-5.008,-5.0031,-5.0799,-5.1502,-5.1949,-5.3016,-5.4039,-5.4983,-5.4625,-5.439,-5.4324,-5.4324,-5.4137,-5.372,-5.3361,-5.3185,-5.3185,-5.3185,-5.3185,-5.3185,-5.3185,-5.3185,-5.3185,-5.3185,0.0,-5.3185,-5.3185,-5.3185,-5.3185,-5.3185,-5.3185,-5.3133,-5.2417,-5.1573,-5.071,0.0,0.0,0.0,0.0,0.0,0.0,0.0,0.0,0.0,0.0,-4.28,-4.3842,0.0,0.0,0.0,0.0,0.0,0.0,0.0,0.0,0.0,-4.5974,-4.5974,-4.5967,-4.5948,-4.5967,-4.5967,-4.5928,-4.6075,-4.6122,-4.6144,-4.6247,-4.6308,-4.6308,-4.6308,-4.6308,-4.6308,-4.6308,-4.6308,-4.6308,-4.6308,-4.6144,-4.5899,-4.5899,0.0,0.0,0.0,0.0,0.0,0.0,-4.5594,-4.5594,-4.5594,-4.5594,-4.5594,-4.5594,-4.6682,-4.7932,-4.8067,-4.926,-5.0308,-4.9586,-4.874,-4.7894,-4.7077,-4.622,0.0,0.0,0.0,-4.7096,-4.7778,-4.7894,0.0,-4.7192,0.0,0.0,0.0,0.0,-4.9151,0.0,0.0,0.0,0.0,0.0,0.0,0.0,0.0,-5.332,-5.4541,-5.417,-5.3758,-5.344,-5.342,-5.338,-5.3295,-5.323,-5.3185,-5.3185,-5.3185,-5.3185,-5.3185,-5.3185,-5.3185,-5.3185,-5.3185,0.0,-5.3185,-5.3185,-5.3185,-5.3185,-5.3185,-5.3185,-5.3167,-5.3041,-5.2068,-5.0784,0.0,0.0,0.0,0.0,0.0,0.0,0.0,-4.0589,-4.0604,-4.0647,-4.1485,-4.2284,-4.2779,-4.3244,0.0,0.0,0.0,0.0,0.0,0.0,0.0,0.0,0.0,0.0,-4.5839,-4.5886,0.0,0.0,0.0,-4.6036,-4.611,0.0,0.0,-4.6308,-4.6308,-4.6308,-4.6308,-4.6224,-4.6245,-4.6289,-4.6224,-4.6117,0.0,0.0,0.0,0.0,0.0,0.0,0.0,0.0,-4.5594,-4.5594,-4.5594,-4.5594,-4.5594,-4.5594,-4.649,-4.749,-4.749,-4.8394,-4.9144,-4.8317,-4.7778,-4.7259,-4.6413,0.0,0.0,0.0,-4.7059,-4.7475,-4.8309,0.0,0.0,0.0,0.0,0.0,0.0,0.0,0.0,0.0,0.0,0.0,0.0,0.0,0.0,0.0,0.0,-5.2828,-5.4081,-5.372,-5.3402,-5.3206,-5.3185,-5.3185,-5.3185,-5.3185,-5.3185,-5.3185,-5.3185,-5.3185,-5.3185,-5.3185,-5.3185,-5.3185,-5.3185,0.0,-5.3185,-5.3185,-5.3185,-5.3185,-5.3185,-5.3185,-5.3185,-5.3185,-5.2197,-5.0802,0.0,0.0,0.0,0.0,0.0,0.0,0.0,-4.0496,-4.0496,-4.0496,-4.0582,-4.0936,-4.1675,-4.2419,-4.2848,0.0,0.0,0.0,0.0,0.0,0.0,0.0,0.0,0.0,0.0,0.0,0.0,0.0,0.0,0.0,0.0,0.0,0.0,0.0,0.0,0.0,-4.6015,-4.5875,-4.5994,0.0,0.0,0.0,0.0,0.0,0.0,0.0,0.0,0.0,0.0,0.0,-4.5594,-4.5594,-4.5594,-4.5594,-4.5594,-4.5594,-4.622,-4.6904,-4.6904,-4.749,-4.7913,-4.7096,-4.6904,-4.6682,-4.5806,-4.5594,0.0,0.0,-4.7269,-4.7803,-4.8782,0.0,0.0,0.0,0.0,0.0,0.0,0.0,0.0,0.0,0.0,0.0,0.0,0.0,0.0,0.0,0.0,0.0,-5.3607,-5.338,-5.3185,-5.3185,-5.3185,-5.3185,-5.3185,-5.3185,-5.3185,-5.3185,-5.3185,-5.3185,-5.3185,-5.3185,-5.3185,-5.3185,-5.3185,0.0,0.0,-5.3185,-5.3185,-5.3185,-5.3185,-5.3185,-5.3167,-5.3023,-5.2032,-5.0784,0.0,0.0,0.0,0.0,0.0,0.0,0.0,-4.0496,-4.0496,-4.0496,-4.0512,-4.0546,-4.0646,-4.0881,-4.1012,0.0,0.0,0.0,0.0,0.0,0.0,0.0,0.0,0.0,0.0,0.0,0.0,0.0,0.0,0.0,0.0,0.0,0.0,0.0,0.0,0.0,0.0,-4.4977,0.0,0.0,0.0,0.0,0.0,0.0,0.0,0.0,0.0,0.0,0.0,0.0,0.0,-4.5594,-4.5594,-4.5594,-4.5594,-4.5594,0.0,0.0,-4.6904,-4.749,-4.7913,-4.7096,-4.6904,-4.6682,-4.5806,0.0,0.0,-4.7185,-4.7468,-4.7914,-4.9206,-4.9433,-4.9188,0.0,0.0,-4.7837,0.0,0.0,0.0,0.0,0.0,0.0,0.0,0.0,0.0,0.0,0.0,0.0,-5.3214,-5.3227,-5.3185,-5.3185,-5.3185,-5.3185,-5.3185,-5.3185,-5.3185,-5.3185,-5.3185,-5.3185,-5.3185,-5.3185,-5.3185,-5.3185,-5.3185,0.0,0.0,-5.3185,-5.3185,-5.3185,-5.3185,-5.3185,-5.3115,-5.238,-5.1555,-5.071,0.0,0.0,0.0,0.0,0.0,0.0,-4.0496,-4.0496,-4.0496,-4.0496,-4.0496,-4.0496,-4.0496,-4.0577,-4.061,0.0,0.0,0.0,0.0,0.0,0.0,0.0,0.0,0.0,0.0,0.0,0.0,-4.3104,0.0,0.0,0.0,0.0,0.0,0.0,0.0,0.0,0.0,0.0,0.0,0.0,0.0,0.0,0.0,0.0,0.0,0.0,0.0,0.0,0.0,0.0,0.0,0.0,-4.5594,-4.5594,0.0,0.0,-4.5845,-4.6124,-4.6124,-4.6355,-4.6509,-4.6201,-4.6124,-4.5973,-4.5419,0.0,-4.5526,-4.6303,-4.6668,-4.7154,-4.8215,-4.8802,-4.9027,-4.8674,-4.7987,0.0,0.0,0.0,0.0,0.0,0.0,0.0,0.0,0.0,0.0,0.0,0.0,0.0,-5.172,-5.2674,-5.3185,-5.3185,-5.3185,-5.3185,-5.3185,-5.3185,-5.3185,-5.3185,-5.3185,-5.3185,-5.3185,-5.3185,-5.3185,-5.3185,-5.3185,0.0,0.0,-5.3185,-5.3185,-5.3185,-5.3185,-5.3185,-5.3093,-5.2289,-5.1481,-5.0674,0.0,0.0,0.0,0.0,0.0,-4.0496,-4.0496,-4.0496,-4.0496,-4.0496,-4.0496,-4.0496,-4.0496,-4.0496,-4.0496,-4.0496,0.0,0.0,0.0,0.0,0.0,0.0,0.0,0.0,0.0,0.0,-4.2335,-4.2335,-4.2335,0.0,0.0,0.0,0.0,0.0,0.0,0.0,0.0,0.0,0.0,0.0,0.0,0.0,0.0,0.0,0.0,0.0,0.0,0.0,0.0,0.0,0.0,0.0,0.0,0.0,0.0,0.0,-4.5594,-4.5594,-4.5594,-4.5594,-4.5594,-4.5594,-4.5541,-4.54,0.0,0.0,-4.5088,-4.5536,-4.5859,-4.628,-4.7036,-4.7632,-4.8003,-4.8003,-4.7266,-4.6501,0.0,0.0,0.0,0.0,0.0,0.0,0.0,0.0,0.0,0.0,0.0,0.0,-5.0398,-5.1756,-5.2491,-5.2491,-5.2729,-5.2858,-5.2858,-5.3096,-5.3185,-5.3185,-5.3185,-5.3185,-5.3185,-5.3185,-5.3185,-5.3185,-5.3185,0.0,0.0,-5.3185,-5.3082,-5.2857,-5.2641,-5.2423,-5.2122,-5.1108,-5.038,-4.9759,0.0,0.0,0.0,0.0,0.0,0.0,-4.0496,-4.0496,-4.0496,-4.0496,-4.0496,-4.0496,-4.0496,-4.0496,-4.0496,-4.0496,0.0,0.0,0.0,0.0,0.0,0.0,0.0,0.0,0.0,0.0,-4.0535,-4.0535,-4.0535,-4.0535,-4.0535,-4.0535,0.0,0.0,0.0,0.0,0.0,0.0,0.0,0.0,0.0,0.0,0.0,0.0,0.0,0.0,0.0,0.0,0.0,0.0,0.0,0.0,0.0,0.0,0.0,0.0,-4.5594,-4.5594,-4.5594,-4.5594,-4.5594,-4.5594,-4.5342,-4.5096,0.0,0.0,-4.4713,-4.5117,-4.5211,-4.5363,-4.5827,-4.5938,-4.592,-4.592,-4.592,0.0,0.0,0.0,0.0,0.0,0.0,0.0,0.0,0.0,0.0,0.0,0.0,0.0,-4.961,-5.038,-5.082,-5.082,-5.1591,-5.1995,-5.1995,-5.2803,-5.3185,-5.3185,-5.3185,-5.3185,-5.3185,-5.3185,-5.3185,0.0,0.0,0.0,0.0,-5.3185,-5.2769,-5.2022,-5.1316,-5.0617,-4.9852,-4.8309,-4.7742,-4.7618,0.0,0.0,0.0,0.0,0.0,0.0,0.0,-4.0496,-4.0496,-4.0496,-4.0496,-4.0496,-4.0496,-4.0496,-4.0496,-4.0496,0.0,0.0,0.0,0.0,0.0,0.0,0.0,0.0,0.0,0.0,-4.0496,-4.0496,-4.0496,-4.0496,-4.0496,-4.0496,-4.0527,-4.0574,0.0,0.0,0.0,0.0,0.0,0.0,0.0,0.0,0.0,0.0,0.0,0.0,0.0,0.0,0.0,0.0,0.0,0.0,0.0,0.0,0.0,-4.4919,0.0,0.0,-4.4977,-4.4919,-4.4919,-4.4919,-4.4849,-4.4682,-4.4414,0.0,-4.4166,-4.4059,-4.4475,-4.4885,-4.5039,-4.5535,-4.5902,-4.5902,-4.5443,0.0,0.0,0.0,0.0,0.0,0.0,0.0,0.0,0.0,0.0,0.0,0.0,0.0,-4.871,-4.8948,-4.9627,-5.0765,-5.1041,-5.1187,-5.1187,-5.1426,-5.1573,-5.1573,-5.1573,-5.1331,-5.0875,-5.0875,-5.0875,0.0,0.0,0.0,0.0,-5.0433,-5.0116,-4.9888,-4.9662,-4.9452,-4.9132,-4.8097,-4.77,-4.7576,0.0,0.0,0.0,0.0,0.0,0.0,0.0,-4.0496,-4.0496,-4.0496,-4.0496,-4.0496,-4.0496,-4.0496,-4.0496,-4.0496,0.0,0.0,0.0,0.0,0.0,0.0,0.0,0.0,-4.0496,-4.0496,-4.0496,-4.0496,-4.0496,-4.0496,-4.0496,-4.0496,-4.0496,-4.0504,-4.0602,0.0,0.0,0.0,0.0,0.0,0.0,0.0,-4.5594,0.0,0.0,0.0,0.0,0.0,0.0,0.0,0.0,0.0,0.0,0.0,0.0,0.0,-4.4521,-4.4663,0.0,-4.4593,-4.4593,-4.4593,-4.4487,0.0,0.0,0.0,-4.374,-4.3548,-4.3901,-4.425,-4.425,-4.4654,-4.4984,-4.4984,-4.4562,0.0,0.0,0.0,0.0,0.0,0.0,0.0,0.0,0.0,0.0,0.0,0.0,0.0,-4.8306,-4.8306,-4.8783,-4.9829,-5.0178,-5.0343,-5.0343,-5.0655,-5.0802,-5.0802,-5.0542,-5.0195,-4.9793,-4.9549,-4.9457,0.0,0.0,0.0,0.0,-4.9054,-4.8735,-4.8448,-4.8174,-4.7933,-4.7605,-4.6812,-4.6532,-4.6463,0.0,0.0,0.0,0.0,0.0,0.0,0.0,0.0,-4.0496,-4.0496,-4.0496,-4.0496,-4.0496,-4.0496,-4.0496,-4.0496,0.0,0.0,0.0,0.0,0.0,0.0,0.0,0.0,-4.0496,-4.0496,-4.0496,-4.0496,-4.0496,-4.0496,-4.0496,-4.0496,-4.0496,-4.0496,-4.0496,-4.0496,-4.0496,-4.0496,-4.1477,-4.3008,-4.3085,-4.4066,0.0,0.0,0.0,0.0,0.0,0.0,0.0,0.0,0.0,0.0,0.0,0.0,0.0,0.0,0.0,0.0,0.0,-4.4514,0.0,0.0,0.0,0.0,0.0,0.0,0.0,-4.3515,-4.3515,-4.3515,-4.3515,-4.3515,-4.3515,-4.3515,-4.3515,0.0,0.0,0.0,0.0,0.0,0.0,0.0,0.0,0.0,0.0,0.0,0.0,0.0,-4.8306,-4.8267,-4.8248,-4.8248,-4.898,-4.9402,-4.9441,-5.0173,-5.0519,-5.0479,-4.9844,-4.9541,-4.9496,-4.89,-4.8675,0.0,0.0,0.0,0.0,-4.8625,-4.8197,-4.7511,-4.6828,-4.6172,-4.5551,-4.4869,-4.4615,-4.4615,0.0,0.0,0.0,0.0,0.0,0.0,0.0,0.0,0.0,0.0,-4.0496,-4.0496,-4.0496,-4.0496,-4.0496,0.0,0.0,0.0,0.0,0.0,0.0,0.0,0.0,0.0,-4.0496,-4.0496,-4.0496,-4.0496,-4.0496,-4.0496,-4.0496,-4.0496,-4.0496,-4.0496,-4.0496,-4.0496,-4.0496,-4.0496,-4.1123,-4.2162,-4.2835,-4.3701,0.0,0.0,0.0,0.0,-4.5118,-4.4977,0.0,0.0,0.0,0.0,0.0,0.0,0.0,0.0,-4.3631,-4.3629,-4.3744,0.0,-4.3758,-4.3758,-4.3695,-4.3631,0.0,0.0,0.0,0.0,0.0,0.0,0.0,-4.3515,-4.3515,-4.3515,-4.3515,0.0,0.0,0.0,0.0,0.0,0.0,0.0,0.0,0.0,0.0,0.0,0.0,0.0,-4.8306,-4.7858,-4.7614,-4.7614,-4.7307,-4.7397,-4.7904,-4.8104,-4.7944,-4.7441,-4.7262,-4.6955,-4.6525,-4.6374,-4.6315,0.0,0.0,0.0,-4.6264,-4.5792,-4.5501,-4.5335,-4.5165,-4.5003,-4.4852,-4.4666,-4.4615,-4.4615,0.0,0.0,0.0,0.0,0.0,0.0,0.0,0.0,0.0,0.0,0.0,0.0,0.0,0.0,0.0,0.0,0.0,0.0,0.0,0.0,0.0,0.0,0.0,-4.0496,-4.0496,-4.0496,-4.0496,-4.0496,-4.0496,-4.0496,-4.0496,-4.0496,-4.0496,-4.0496,-4.0496,-4.0496,-4.0496,-4.0496,-4.0989,-4.1885,-4.2758,0.0,0.0,0.0,0.0,0.0,-4.4713,-4.4606,0.0,-4.4194,-4.4046,-4.3971,0.0,0.0,0.0,0.0,-4.3515,-4.3515,-4.3515,-4.3515,-4.3515,-4.3515,-4.3515,-4.3515,-4.3515,0.0,0.0,0.0,0.0,0.0,0.0,0.0,0.0,0.0,0.0,0.0,0.0,0.0,0.0,0.0,0.0,0.0,0.0,0.0,0.0,0.0,0.0,-4.8172,-4.7897,-4.7572,-4.7259,-4.6955,-4.6594,-4.6571,-4.6932,-4.6955,-4.6756,-4.6407,-4.6119,-4.5833,-4.5485,-4.5205,-4.5089,0.0,0.0,0.0,-4.5062,-4.4748,-4.4615,-4.4615,-4.4615,-4.4615,-4.4615,-4.4615,-4.4615,-4.4615,0.0,0.0,0.0,0.0,0.0,0.0,0.0,0.0,0.0,0.0,0.0,0.0,0.0,0.0,0.0,0.0,0.0,0.0,0.0,0.0,0.0,0.0,-4.0496,-4.0496,-4.0496,-4.0496,-4.0496,-4.0496,-4.0496,-4.0496,-4.0496,-4.0496,-4.0496,-4.0496,-4.0496,-4.0496,-4.0496,-4.0496,-4.0931,-4.17,-4.2701,0.0,0.0,0.0,0.0,0.0,0.0,0.0,0.0,-4.3712,-4.3677,-4.3881,-4.3597,0.0,0.0,0.0,0.0,0.0,-4.3515,-4.3515,-4.3515,-4.3515,-4.3515,-4.3515,-4.3515,0.0,0.0,0.0,0.0,0.0,0.0,0.0,0.0,0.0,0.0,0.0,0.0,0.0,0.0,0.0,0.0,0.0,0.0,0.0,0.0,0.0,0.0,-4.7797,-4.7259,-4.715,-4.6842,-4.6288,-4.6167,-4.6136,-4.6136,-4.6216,-4.6216,-4.6119,-4.5597,-4.5372,-4.5346,-4.4841,-4.4615,-4.4615,0.0,0.0,-4.4615,-4.4615,-4.4615,-4.4615,-4.4615,-4.4615,-4.4615,-4.4615,-4.4615,-4.4615,0.0,0.0,0.0,0.0,0.0,0.0,0.0,0.0,0.0,0.0,0.0,0.0,0.0,0.0,0.0,0.0,0.0,0.0,0.0,0.0,0.0,-4.0496,-4.0496,-4.0496,-4.0496,-4.0496,-4.0496,-4.0496,-4.0496,-4.0496,-4.0496,-4.0496,-4.0496,-4.0496,-4.0496,-4.0496,-4.0496,-4.0496,-4.0573,-4.0843,-4.245,0.0,0.0,0.0,0.0,0.0,0.0,0.0,0.0,-4.3531,-4.3531,-4.3563,-4.3513,0.0,0.0,0.0,0.0,0.0,-4.3515,-4.3515,-4.3515,-4.3515,-4.3515,-4.3515,-4.3515,0.0,0.0,0.0,0.0,0.0,0.0,0.0,0.0,0.0,0.0,0.0,0.0,0.0,0.0,0.0,0.0,0.0,0.0,0.0,0.0,0.0,0.0,0.0,-4.6571,-4.6063,-4.5732,-4.5648,-4.5125,-4.4896,-4.4896,-4.5381,-4.5381,-4.4896,-4.4786,-4.4748,-4.4748,-4.4654,-4.4615,-4.4615,0.0,-4.4615,-4.4615,-4.4615,-4.4615,-4.4615,-4.4615,-4.4615,-4.4615,-4.4615,-4.4615,-4.4615,0.0,0.0,0.0,0.0,0.0,0.0,0.0,0.0,0.0,0.0,0.0,0.0,0.0,0.0,0.0,0.0,0.0,0.0,0.0,0.0,-4.0054,-4.0477,-4.0496,-4.0496,-4.0496,-4.0496,-4.0496,-4.0496,-4.0496,-4.0496,-4.0496,-4.0496,-4.0496,-4.0496,-4.0496,-4.0496,-4.0496,-4.0496,-4.0496,-4.0635,0.0,0.0,0.0,0.0,0.0,0.0,0.0,0.0,0.0,0.0,-4.3515,-4.3515,-4.3515,0.0,0.0,0.0,0.0,0.0,-4.3515,-4.3515,-4.3515,-4.3515,-4.3515,-4.3515,-4.3515,-4.3515,0.0,0.0,0.0,0.0,0.0,0.0,0.0,0.0,0.0,0.0,0.0,0.0,0.0,0.0,0.0,0.0,0.0,0.0,0.0,0.0,0.0,0.0,-4.594,-4.5648,-4.5346,-4.5025,-4.4748,-4.4615,-4.4615,-4.4896,-4.4879,-4.4615,-4.4615,-4.4615,-4.4615,-4.4615,-4.4615,-4.4615,0.0,-4.4615,-4.4615,-4.4615,-4.4615,-4.4615,-4.4615,-4.4615,-4.4615,-4.4615,-4.4615,-4.4615,0.0,0.0,0.0,0.0,0.0,0.0,0.0,0.0,0.0,0.0,0.0,0.0,0.0,0.0,0.0,0.0,0.0,0.0,0.0,0.0,-3.9573,-4.0189,-4.0334,-4.0441,-4.0496,-4.0496,-4.0496,-4.0496,-4.0496,-4.0496,-4.0496,-4.0496,-4.0496,-4.0496,-4.0496,-4.0496,-4.0489,-4.0422,-4.0513,-4.0795,0.0,0.0,0.0,0.0,0.0,0.0,0.0,0.0,0.0,0.0,0.0,0.0,0.0,0.0,0.0,-4.3515,-4.3515,-4.3515,-4.3515,-4.3515,-4.3515,-4.3515,0.0,-4.3515,-4.3515,-4.341,0.0,0.0,0.0,0.0,0.0,0.0,0.0,0.0,0.0,0.0,0.0,0.0,0.0,0.0,0.0,0.0,0.0,0.0,0.0,0.0,0.0,0.0,-4.532,-4.5294,-4.5062,-4.4598,-4.4615,-4.4615,-4.4615,-4.4615,-4.4615,-4.4615,-4.4615,-4.4615,-4.4615,-4.4615,-4.4615,-4.4615,-4.4615,-4.4615,-4.4615,-4.4615,-4.4615,-4.4615,-4.4615,-4.4615,-4.4615,-4.4615,-4.4615,-4.4615,0.0,0.0,0.0,0.0,0.0,0.0,0.0,0.0,0.0,0.0,0.0,0.0,0.0,0.0,0.0,0.0,0.0,0.0,0.0,0.0,-3.9323,-3.9381,-3.9867,-4.026,-4.0489,-4.0496,-4.0496,-4.0496,-4.0496,-4.0496,-4.0496,-4.0496,-4.0496,-4.0496,-4.0496,-4.0496,-4.0481,-4.0232,-4.0559,-4.1301,-4.1893,0.0,0.0,0.0,0.0,0.0,0.0,0.0,0.0,0.0,0.0,0.0,0.0,0.0,-4.3515,-4.3515,-4.3515,-4.3515,-4.3515,-4.3515,-4.3515,-4.3515,-4.3515,0.0,-4.3515,-4.3105,0.0,-4.3392,0.0,0.0,0.0,0.0,0.0,0.0,0.0,0.0,0.0,0.0,0.0,0.0,0.0,0.0,0.0,0.0,0.0,0.0,0.0,0.0,-4.4682,-4.4654,-4.4654,-4.4615,-4.4615,-4.4615,-4.4615,-4.4615,-4.4615,-4.4615,-4.4615,-4.4615,-4.4615,-4.4615,-4.4615,-4.4615,-4.4615,-4.4615,-4.4615,-4.4615,-4.4615,-4.4615,-4.4615,-4.4615,-4.4615,-4.4615,-4.4615,-4.4615,0.0,0.0,0.0,0.0,0.0,0.0,0.0,0.0,0.0,0.0,0.0,0.0,0.0,0.0,0.0,0.0,0.0,0.0,0.0,-3.73,-3.8175,-3.8727,-3.9414,-3.984,-3.9935,-3.9935,-3.9935,-3.9935,-3.9935,-4.0053,-4.0241,-4.0241,-4.0339,-4.0489,-4.033,-4.0241,-4.0232,-3.9932,-4.0249,-4.1037,-4.1567,-4.2198,0.0,0.0,0.0,0.0,0.0,0.0,0.0,0.0,-4.3515,-4.3515,-4.3515,-4.3268,-4.3087,-4.341,-4.3268,-4.2995,-4.2995,-4.2995,-4.2995,-4.2995,-4.2733,0.0,0.0,-4.2845,-4.2655,-4.2483,-4.2266,0.0,0.0,0.0,0.0,0.0,0.0,0.0,0.0,0.0,0.0,0.0,0.0,0.0,0.0,0.0,0.0,0.0,0.0,0.0,0.0,-4.4615,-4.4615,-4.4615,-4.4615,-4.4615,-4.4615,-4.4615,-4.4615,-4.4615,-4.4615,-4.4615,-4.4615,-4.4615,-4.4615,-4.4615,-4.4615,-4.4615,-4.4615,-4.4615,-4.4615,-4.4615,-4.4615,-4.4615,-4.4615,-4.4615,-4.4615,-4.4615,0.0,0.0,0.0,0.0,0.0,0.0,0.0,0.0,0.0,0.0,0.0,0.0,0.0,0.0,0.0,0.0,0.0,0.0,-3.5488,-3.6516,-3.7365,-3.7961,-3.8933,-3.9438,-3.9438,-3.9364,-3.9414,-3.9599,-3.9599,-3.9731,-3.9932,-3.9932,-4.0033,-4.0221,-4.0023,-3.9932,-3.9941,-3.9859,-4.0297,-4.1109,-4.1611,-4.2301,0.0,0.0,0.0,0.0,0.0,0.0,0.0,0.0,-4.325,-4.3214,-4.3032,-4.2714,-4.25,-4.2865,-4.2696,-4.242,-4.242,-4.242,-4.242,0.0,0.0,0.0,-4.208,-4.2142,-4.208,-4.1853,0.0,0.0,0.0,0.0,0.0,0.0,0.0,0.0,0.0,0.0,0.0,0.0,0.0,0.0,0.0,0.0,0.0,0.0,0.0,0.0,0.0,-4.4079,-4.4215,-4.4215,-4.4479,-4.4615,-4.4615,-4.4615,-4.4615,-4.4615,-4.4615,-4.4615,-4.4615,-4.4615,-4.4615,-4.4615,-4.4615,-4.4615,-4.457,-4.4281,-4.4035,-4.3768,-4.3768,-4.3768,-4.3798,-4.4093,-4.4196,-4.4196,0.0,0.0,0.0,0.0,0.0,0.0,0.0,0.0,0.0,0.0,0.0,0.0,0.0,0.0,0.0,0.0,0.0,0.0,-3.4684,-3.6203,-3.709,-3.709,-3.8384,-3.9099,-3.9099,-3.8844,-3.8998,-3.9599,-3.9599,-3.9599,-3.9599,-3.9599,-3.9599,-3.9599,-3.9599,-3.9599,-3.9632,-4.0096,-4.0803,-4.1649,-4.2101,-4.2782,-4.3515,0.0,0.0,0.0,0.0,0.0,0.0,0.0,-4.2692,-4.2596,-4.1979,-4.181,-4.1793,-4.181,-4.181,-4.1789,-4.1789,-4.1789,0.0,0.0,0.0,0.0,-4.1041,-4.0903,-4.1064,-4.1664,0.0,0.0,0.0,0.0,0.0,0.0,0.0,0.0,0.0,0.0,0.0,0.0,0.0,0.0,0.0,0.0,0.0,0.0,0.0,0.0,0.0,-4.2997,-4.3375,-4.3375,-4.4147,-4.4581,-4.4598,-4.4598,-4.4598,-4.4615,-4.4615,-4.4615,-4.4615,-4.4615,-4.4615,-4.4587,-4.4587,-4.457,-4.4514,-4.3651,-4.2785,-4.1997,-4.1997,-4.1997,-4.2093,-4.2986,-4.3276,-4.3276,0.0,0.0,0.0,0.0,0.0,0.0,0.0,0.0,0.0,0.0,0.0,0.0,0.0,0.0,0.0,0.0,0.0,0.0,-3.408,-3.5618,-3.6544,-3.6544,-3.8005,-3.8833,-3.8833,-3.875,-3.8792,-3.897,-3.897,-3.9059,-3.9238,-3.9238,-3.9364,-3.9587,-3.9352,-3.9562,-4.0096,-4.0048,-4.0809,-4.2101,-4.2244,-4.2782,-4.3515,0.0,0.0,0.0,0.0,0.0,0.0,0.0,0.0,0.0,-4.1853,-4.1512,-4.1246,-4.1664,-4.1512,-4.1178,-4.1178,-4.1178,0.0,0.0,0.0,0.0,0.0,-4.0903,0.0,0.0,0.0,0.0,0.0,0.0,0.0,0.0,0.0,0.0,0.0,0.0,0.0,0.0,0.0,0.0,0.0,0.0,0.0,0.0,0.0,0.0,0.0,-4.2506,-4.2625,-4.2625,-4.2844,-4.3217,-4.3758,-4.3775,-4.4045,-4.4615,-4.4615,-4.4615,-4.4615,-4.4615,-4.427,-4.3697,-4.3697,-4.3336,-4.2738,-4.2489,-4.2221,-4.1997,-4.1997,-4.1997,-4.2029,-4.2284,-4.2395,-4.2395,0.0,0.0,0.0,0.0,0.0,0.0,0.0,0.0,0.0,0.0,0.0,0.0,0.0,0.0,0.0,0.0,0.0,0.0,0.0,-3.5367,-3.6303,-3.6303,-3.7845,-3.8707,-3.8707,-3.8707,-3.8707,-3.8707,-3.8707,-3.8773,-3.8933,-3.8933,-3.9059,-3.9248,-3.9366,-3.9692,-4.0163,-4.0654,-4.1405,-4.2323,-4.2653,-4.3057,-4.348,0.0,0.0,0.0,0.0,0.0,0.0,0.0,0.0,0.0,-4.1196,-4.0868,-4.0655,-4.103,-4.0868,-4.0577,-4.0577,0.0,0.0,0.0,0.0,0.0,0.0,0.0,0.0,0.0,0.0,0.0,0.0,0.0,0.0,0.0,0.0,0.0,0.0,0.0,0.0,0.0,0.0,0.0,0.0,0.0,0.0,0.0,0.0,0.0,0.0,-4.1694,-4.1863,-4.1863,-4.2151,-4.2506,-4.2963,-4.2963,-4.3063,-4.325,-4.3506,-4.3497,-4.319,-4.3797,-4.3814,-4.3276,-4.2939,-4.2284,-4.1478,-4.1478,-4.128,-4.0961,-4.0961,-4.0961,-4.0995,-4.1346,-4.1478,-4.1478,0.0,0.0,0.0,0.0,0.0,0.0,0.0,0.0,0.0,0.0,-3.3807,0.0,0.0,0.0,0.0,0.0,0.0,0.0,0.0,0.0,-3.6303,-3.6303,-3.7845,-3.8707,-3.8707,-3.8707,-3.8707,-3.8707,-3.8707,-3.8707,-3.8707,-3.8707,-3.8744,-3.8836,-3.957,-3.9974,-4.0212,-4.168,-4.2341,-4.247,-4.3151,-4.3427,-4.3375,-4.2827,0.0,0.0,0.0,0.0,0.0,0.0,0.0,0.0,-4.0237,-4.0096,-4.0096,-4.0096,-4.0096,-4.0096,-4.0096,0.0,0.0,0.0,0.0,0.0,0.0,0.0,0.0,0.0,0.0,0.0,0.0,0.0,0.0,0.0,0.0,0.0,0.0,0.0,0.0,0.0,0.0,0.0,0.0,0.0,0.0,0.0,0.0,0.0,0.0,-4.073,-4.1102,-4.1102,-4.1675,-4.2037,-4.2105,-4.2034,-4.1698,-4.1103,-4.1703,-4.1613,-4.0971,-4.2488,-4.3139,-4.3017,-4.2125,-4.1313,-4.0588,-4.0588,-4.0115,-3.9388,-3.9388,-3.9388,-3.9517,-4.0274,-4.0588,-4.0588,0.0,0.0,0.0,0.0,0.0,0.0,0.0,0.0,0.0,0.0,0.0,0.0,0.0,0.0,0.0,0.0,0.0,0.0,0.0,0.0,-3.6303,-3.6303,-3.7845,-3.8707,-3.8707,-3.8707,-3.8707,-3.8707,-3.8707,-3.8707,-3.8707,-3.8707,-3.9038,-3.9643,-3.9808,-4.0598,-4.1809,-4.2158,-4.2653,-4.3223,-4.2977,-4.2883,-4.2808,-4.2223,-4.1979,0.0,0.0,0.0,0.0,0.0,0.0,0.0,-4.0146,-4.0096,-4.0096,-4.0096,-4.0096,-4.0096,0.0,-4.0096,0.0,0.0,0.0,0.0,0.0,0.0,0.0,0.0,0.0,0.0,0.0,0.0,0.0,0.0,0.0,0.0,0.0,0.0,0.0,0.0,0.0,0.0,0.0,0.0,0.0,0.0,0.0,0.0,-4.0096,-4.0265,-4.035,-4.035,-3.9874,-3.9928,-4.058,-3.9944,-3.9829,0.0,-4.0407,-4.0367,-4.0248,-4.1642,-4.1901,-4.1213,-4.0359,-3.9864,-3.9666,-3.9666,-3.9574,-3.9388,-3.9388,-3.9388,-3.9409,-3.961,-3.9666,-3.9666,0.0,0.0,0.0,0.0,0.0,0.0,0.0,0.0,0.0,0.0,0.0,0.0,0.0,0.0,0.0,0.0,0.0,0.0,0.0,0.0,-3.6633,-3.7422,-3.8248,-3.8707,-3.8707,-3.8707,-3.8707,-3.8707,-3.8707,-3.8707,-3.8707,-3.9093,-3.9496,-3.9918,-4.0708,-4.1515,-4.2323,-4.2708,-4.2973,-4.3087,-4.2826,-4.2537,-4.2203,-4.1599,-4.138,-4.1291,-4.0726,0.0,0.0,0.0,0.0,0.0,0.0,0.0,-4.0096,-4.0096,-4.0096,-4.0096,0.0,0.0,0.0,0.0,0.0,0.0,0.0,0.0,0.0,0.0,0.0,0.0,0.0,0.0,0.0,0.0,0.0,0.0,0.0,0.0,0.0,0.0,0.0,0.0,0.0,0.0,0.0,0.0,0.0,-4.0096,-4.0096,-3.9731,-3.9516,-3.9516,-3.8789,-3.8565,-3.8983,-3.8583,-3.8362,-3.8381,-3.8682,-3.8827,-3.8789,-4.0224,-4.0429,-3.9608,-3.9474,-3.9388,-3.9388,-3.9388,-3.9388,-3.9388,-3.9388,-3.9388,-3.9388,-3.9388,-3.9215,-3.8931,0.0,0.0,0.0,0.0,0.0,0.0,0.0,0.0,0.0,0.0,0.0,0.0,0.0,0.0,0.0,0.0,0.0,0.0,0.0,0.0,0.0,-3.8507,-3.8481,-3.8483,-3.8562,-3.8562,-3.8611,-3.8707,-3.8707,-3.8716,-3.8766,-3.9538,-3.9955,-4.0175,-4.1644,-4.2327,-4.2424,-4.3169,-4.3124,-4.2539,-4.2539,-4.2183,-4.1578,-4.099,-4.0756,-4.0685,-4.0262,-4.0096,-4.0096,-4.0096,0.0,0.0,0.0,0.0,-4.0096,-4.0096,-4.0096,-4.0096,0.0,0.0,0.0,0.0,0.0,0.0,0.0,0.0,0.0,0.0,0.0,0.0,0.0,0.0,0.0,0.0,0.0,0.0,0.0,0.0,0.0,0.0,0.0,0.0,0.0,0.0,0.0,0.0,0.0,-3.9901,-3.9901,-3.9139,-3.8718,-3.8718,-3.7991,-3.7602,-3.7602,-3.7472,-3.7086,-3.643,-3.6985,-3.7184,-3.7139,-3.8519,-3.8818,-3.8257,-3.8945,-3.9245,-3.9245,-3.9328,-3.9388,-3.9388,-3.9388,-3.9388,-3.9373,-3.929,-3.8886,-3.8377,0.0,0.0,0.0,0.0,0.0,0.0,0.0,0.0,0.0,0.0,0.0,0.0,0.0,0.0,0.0,0.0,0.0,0.0,-3.4921,0.0,0.0,-3.796,-3.7632,-3.7596,-3.7997,-3.8015,-3.8232,-3.8707,-3.8707,-3.8796,-3.8956,-3.9613,-4.0267,-4.0967,-4.1901,-4.2429,-4.2682,-4.3267,-4.2884,-4.1916,-4.1916,-4.1556,-4.0949,-4.0417,-4.0204,-4.0204,-4.0121,-4.0096,-4.0096,-4.0096,-4.0096,0.0,0.0,0.0,-4.0096,-4.0096,-4.0096,-4.0096,0.0,0.0,0.0,0.0,0.0,0.0,0.0,0.0,0.0,0.0,0.0,0.0,0.0,0.0,0.0,0.0,0.0,0.0,0.0,0.0,0.0,0.0,0.0,0.0,0.0,0.0,0.0,0.0,-3.9463,-3.9059,-3.9059,-3.8358,-3.795,-3.795,-3.7174,-3.6768,-3.6768,-3.6133,-3.5765,-3.5636,-3.5741,-3.5767,-3.5789,-3.6565,-3.7151,-3.7584,-3.8242,-3.8527,-3.8571,-3.917,-3.9388,-3.9388,-3.9388,-3.9388,-3.9313,-3.8751,-3.8467,-3.8302,0.0,0.0,0.0,0.0,0.0,0.0,0.0,0.0,0.0,0.0,0.0,0.0,0.0,0.0,0.0,-3.3057,-3.3281,-3.4019,-3.5419,-3.6433,-3.7131,-3.7488,-3.7304,-3.7285,-3.7506,-3.7506,-3.7632,-3.7861,-3.7861,-3.8115,-3.8611,-3.9336,-4.0093,-4.0866,-4.2014,-4.2389,-4.2203,-4.2444,-4.2065,-4.1291,-4.1291,-4.0967,-4.0441,-4.0179,-4.0096,-4.0096,-4.0096,-4.0096,-4.0096,-4.0096,-4.0096,-4.0096,-4.0096,0.0,0.0,0.0,0.0,0.0,0.0,0.0,0.0,0.0,0.0,0.0,0.0,0.0,0.0,0.0,0.0,0.0,0.0,0.0,0.0,0.0,0.0,0.0,0.0,0.0,0.0,0.0,0.0,0.0,0.0,0.0,0.0,0.0,-3.8734,-3.8274,-3.8274,-3.7557,-3.713,-3.713,-3.6368,-3.5975,-3.5975,-3.5668,-3.5504,-3.5504,-3.5504,-3.5504,-3.5519,-3.5804,-3.6282,-3.6926,-3.7569,-3.7838,-3.7853,-3.8167,-3.8287,-3.8287,-3.8287,-3.8287,-3.8257,-3.7958,-3.7629,-3.7285,0.0,0.0,0.0,0.0,0.0,0.0,0.0,0.0,0.0,0.0,0.0,0.0,0.0,0.0,0.0,0.0,-3.3195,-3.4146,-3.5789,-3.6598,-3.6999,-3.6999,-3.6865,-3.6845,-3.6981,-3.6999,-3.7058,-3.7209,-3.7385,-3.7784,-3.84,-3.934,-4.0031,-4.053,-4.1872,-4.2142,-4.1578,-4.1729,-4.138,-4.0726,-4.085,-4.0577,-4.0096,-4.0096,-4.0096,-4.0096,-4.0096,-4.0096,-4.007,-3.9859,-3.9808,-3.9756,-3.9558,0.0,0.0,0.0,0.0,0.0,0.0,0.0,0.0,0.0,0.0,0.0,0.0,0.0,0.0,0.0,0.0,0.0,0.0,0.0,0.0,0.0,0.0,0.0,0.0,0.0,0.0,0.0,0.0,0.0,0.0,0.0,0.0,0.0,-3.7933,-3.7485,-3.7485,-3.6753,-3.6337,-3.6337,-3.5782,-3.5504,-3.5504,-3.5504,-3.5504,-3.5504,-3.5504,-3.5504,-3.5504,-3.5504,-3.5774,-3.6267,-3.6896,-3.718,-3.718,-3.7345,-3.7404,-3.7404,-3.7404,-3.7404,-3.7389,-3.724,-3.6881,-3.6462,0.0,0.0,0.0,0.0,0.0,0.0,0.0,0.0,0.0,0.0,0.0,0.0,-3.2501,-3.2092,-3.23,-3.344,-3.3227,-3.3853,-3.5771,-3.623,-3.6437,-3.6437,-3.5963,0.0,-3.6437,-3.6437,-3.6684,-3.7209,-3.7895,-3.8357,-3.8621,-3.9926,-4.0388,-4.0178,-4.1335,-4.1512,-4.0995,-4.1556,0.0,0.0,-4.0703,-4.0577,-4.0096,-4.0096,-4.0096,-4.0096,-4.0096,-4.0096,-3.9978,-3.9236,-3.8962,-3.8827,0.0,-3.7921,-3.7921,0.0,0.0,0.0,0.0,0.0,0.0,0.0,0.0,0.0,0.0,0.0,0.0,0.0,0.0,0.0,0.0,0.0,0.0,0.0,0.0,0.0,0.0,0.0,0.0,0.0,0.0,0.0,0.0,0.0,0.0,0.0,-3.713,-3.6661,-3.6661,-3.5943,-3.5554,-3.5554,-3.5537,-3.5504,-3.5504,-3.5504,-3.5504,-3.5504,-3.5504,-3.5504,-3.5504,-3.5504,-3.5534,-3.5594,-3.6252,-3.6537,-3.6582,-3.7165,-3.7404,-3.7404,-3.7404,-3.7404,-3.7345,-3.6746,-3.6507,-3.6402,0.0,0.0,0.0,0.0,0.0,0.0,0.0,0.0,0.0,0.0,0.0,0.0,0.0,-3.2226,-3.2496,-3.339,-3.3782,-3.4459,-3.5641,-3.5814,-3.5876,-3.5876,-3.5694,-3.5694,-3.5876,-3.5876,-3.6246,-3.6943,-3.7197,-3.7859,-3.8884,-3.9352,-3.9764,-4.0121,-4.0891,-4.0897,-4.0392,-4.0618,0.0,0.0,0.0,0.0,0.0,0.0,0.0,0.0,0.0,0.0,0.0,0.0,0.0,0.0,-3.8035,-3.7793,-3.7793,-3.7793,0.0,0.0,0.0,0.0,0.0,0.0,0.0,0.0,0.0,0.0,0.0,0.0,0.0,0.0,0.0,0.0,0.0,0.0,0.0,0.0,0.0,0.0,0.0,0.0,0.0,0.0,0.0,0.0,0.0,0.0,0.0,-3.5894,-3.5894,-3.5636,-3.5504,-3.5504,-3.5504,-3.5504,-3.5504,-3.5504,-3.5504,-3.5504,-3.5504,-3.5504,-3.5504,-3.5504,-3.5504,-3.5519,-3.5744,-3.5863,-3.5863,-3.6088,-3.6193,-3.6193,-3.6193,-3.6193,-3.6163,-3.5938,-3.5863,-3.5818,0.0,0.0,0.0,0.0,0.0,0.0,0.0,0.0,0.0,-3.119,0.0,0.0,0.0,0.0,-3.2987,-3.3694,-3.4438,-3.5081,-3.5566,-3.56,-3.56,-3.56,-3.56,-3.56,-3.56,-3.56,-3.5994,-3.6795,-3.7066,-3.7787,-3.9005,-3.9242,-3.9639,-4.0121,-4.0473,-4.0424,0.0,0.0,0.0,-4.0096,0.0,0.0,-4.0096,0.0,0.0,0.0,0.0,0.0,0.0,0.0,0.0,0.0,0.0,-3.7041,-3.7041,-3.7041,-3.7041,0.0,0.0,0.0,0.0,0.0,0.0,0.0,0.0,0.0,0.0,0.0,0.0,0.0,0.0,0.0,0.0,0.0,0.0,0.0,0.0,0.0,0.0,0.0,0.0,0.0,0.0,0.0,0.0,0.0,0.0,0.0,-3.5504,-3.5504,-3.5504,-3.5504,-3.5504,-3.5504,-3.5504,-3.5504,-3.5504,-3.5504,-3.5504,-3.5504,-3.5504,-3.5504,-3.5326,-3.4986,-3.4986,-3.518,-3.5472,-3.5133,-3.4986,-3.4953,-3.4673,-3.4524,-3.4524,-3.4524,-3.4524,-3.4524,0.0,0.0,0.0,0.0,0.0,0.0,0.0,0.0,-3.1241,-3.1258,0.0,0.0,0.0,0.0,0.0,-3.4472,-3.5199,-3.56,-3.56,-3.56,-3.56,-3.56,-3.5616,-3.5633,-3.5633,-3.565,-3.6062,-3.6863,-3.7584,-3.8311,-3.9039,-3.9774,-4.0096,-4.0096,-4.0096,-4.0096,-4.0096,0.0,-4.0096,-4.0096,0.0,-4.007,-4.007,0.0,0.0,0.0,-3.9113,-3.8854,0.0,0.0,0.0,0.0,0.0,-3.5504,-3.5504,-3.5504,-3.5504,0.0,0.0,0.0,0.0,0.0,0.0,0.0,0.0,0.0,0.0,0.0,0.0,0.0,0.0,0.0,0.0,0.0,0.0,0.0,0.0,0.0,0.0,0.0,0.0,0.0,0.0,0.0,0.0,0.0,-3.5504,-3.5504,-3.5504,-3.5504,-3.5504,-3.5504,-3.5504,-3.5504,-3.5504,-3.5504,-3.5504,-3.5504,-3.5472,-3.5472,-3.5457,-3.5439,-3.4872,-3.3959,-3.3959,-3.4509,-3.5359,-3.4361,-3.3959,-3.3876,-3.2961,-3.2593,-3.2593,-3.2593,-3.2593,-3.2593,0.0,0.0,0.0,0.0,0.0,0.0,-3.1921,-3.2005,-3.2192,0.0,0.0,0.0,-3.3812,-3.4556,-3.5059,-3.5278,-3.5481,-3.56,-3.56,-3.56,-3.56,-3.56,-3.6163,-3.6451,-3.6451,-3.6992,-3.7635,-3.8379,-3.8599,-3.9056,-3.9808,-4.0011,-4.0096,-4.0096,-4.0096,-4.0096,-4.0096,-4.0096,0.0,0.0,-4.0096,-3.9756,0.0,0.0,0.0,0.0,0.0,-3.76,-3.7863,0.0,-3.6165,-3.6477,0.0,0.0,-3.5504,-3.5504,-3.5504,0.0,-3.5504,0.0,0.0,0.0,0.0,0.0,0.0,0.0,0.0,0.0,0.0,0.0,0.0,0.0,0.0,0.0,0.0,0.0,0.0,0.0,0.0,0.0,0.0,0.0,0.0,0.0,0.0,0.0,-3.5504,-3.5504,-3.5504,-3.5504,-3.5504,-3.5504,-3.5504,-3.5504,-3.5504,-3.5504,-3.5504,-3.5504,-3.4758,-3.4428,-3.4394,-3.3719,-3.3255,-3.2996,-3.2996,-3.315,-3.3359,-3.3101,-3.2996,-3.2961,-3.2713,-3.2593,-3.2593,-3.2593,-3.2593,-3.2593,0.0,0.0,0.0,0.0,0.0,-3.1921,-3.2645,-3.2767,-3.2899,0.0,0.0,0.0,-3.4493,-3.5178,-3.5492,-3.5207,-3.5733,-3.6096,-3.6096,-3.64,-3.6546,-3.6546,-3.7009,-3.7246,-3.7246,-3.7686,-3.8261,-3.8988,-3.8988,-3.9377,-4.0096,-4.0096,-4.0096,-4.0096,0.0,0.0,0.0,0.0,0.0,0.0,-3.9731,0.0,0.0,-3.8553,-3.8161,0.0,0.0,0.0,-3.71,-3.591,-3.5782,0.0,0.0,0.0,0.0,0.0,0.0,0.0,0.0,0.0,0.0,0.0,0.0,0.0,-3.5504,-3.5504,0.0,0.0,0.0,0.0,0.0,0.0,0.0,0.0,0.0,0.0,0.0,0.0,0.0,0.0,0.0,0.0,0.0,-3.5504,-3.5504,-3.5504,-3.5504,-3.5504,-3.5504,-3.5504,-3.5504,-3.5504,-3.5504,-3.5504,-3.5504,-3.5504,-3.5279,-3.4872,-3.4279,-3.3774,-3.338,-3.2855,-3.2393,-3.2033,-3.2033,-3.1792,-3.1452,-3.1452,-3.1646,-3.196,-3.1586,-3.1452,-3.1452,-3.1452,-3.1452,-3.1452,0.0,0.0,0.0,-3.231,-3.2429,-3.2682,-3.3406,-3.3461,-3.3435,0.0,-3.4115,-3.4549,-3.4714,-3.5232,-3.5381,-3.4871,-3.6014,-3.6821,-3.6907,-3.7533,-3.7858,-3.7769,-3.7925,-3.7976,-3.7887,-3.806,-3.8464,-3.9106,-3.9106,-3.9469,-4.0096,-4.0096,-4.0045,-3.9978,0.0,0.0,0.0,0.0,0.0,-3.9901,-3.9193,-3.8854,0.0,0.0,-3.7618,0.0,-3.6737,-3.6477,-3.6384,-3.5733,-3.5504,0.0,0.0,0.0,0.0,0.0,-3.5504,0.0,0.0,0.0,0.0,0.0,0.0,0.0,-3.5504,-3.5504,-3.5504,0.0,0.0,0.0,0.0,0.0,0.0,0.0,0.0,0.0,0.0,0.0,0.0,0.0,0.0,0.0,-3.5504,-3.5504,-3.5504,-3.5504,-3.5504,-3.5504,-3.5504,-3.5504,-3.5504,-3.5504,-3.5504,-3.5504,-3.5504,-3.5392,-3.4872,-3.3993,-3.3774,-3.3241,-3.2464,-3.2357,-3.1829,-3.1044,-3.1044,-3.0558,-2.9792,-2.9792,-3.0279,-3.097,-3.0139,-2.9792,-2.9792,-2.9792,-2.9792,-2.9792,0.0,0.0,0.0,-3.3169,-3.3186,-3.3423,-3.4167,-3.3818,-3.37,-3.4286,-3.4485,-3.4778,-3.535,-3.5506,-3.5803,-3.6247,-3.6546,-3.7003,-3.7638,-3.7821,-3.7614,-3.6961,-3.8119,-3.8463,-3.7812,-3.9034,-3.974,-3.9893,-3.9893,-3.996,-4.0096,-4.0096,-3.9756,-3.9166,-3.9808,0.0,0.0,0.0,0.0,-3.9113,-3.8962,0.0,-3.7921,-3.7144,-3.6461,-3.5941,-3.575,-3.5701,-3.5701,0.0,-3.5504,-3.5504,0.0,0.0,0.0,0.0,0.0,0.0,0.0,0.0,0.0,0.0,0.0,0.0,-3.5504,-3.5504,-3.5504,0.0,0.0,0.0,0.0,0.0,0.0,0.0,0.0,0.0,0.0,0.0,0.0,0.0,0.0,0.0,-3.5504,-3.5504,-3.5504,-3.5504,-3.5504,-3.5504,-3.5504,-3.5504,-3.5504,-3.5504,-3.5504,-3.5504,-3.5504,-3.4691,-3.4211,-3.3993,-3.2464,-3.1633,-3.1462,-3.0709,-3.0254,-3.0075,-3.0075,-2.9972,-2.9792,-2.9792,-2.9895,-3.0037,-2.9856,-2.9792,-2.9792,-2.9792,-2.9792,-2.9792,0.0,0.0,0.0,-3.2883,-3.2948,-3.3195,-3.395,-3.3762,-3.3681,-3.4063,-3.4395,-3.4704,-3.5016,-3.5379,-3.5604,-3.5603,-3.6271,-3.6873,-3.7291,-3.7663,-3.7685,-3.7275,-3.7986,-3.8209,-3.7811,-3.8554,-3.8941,-3.8941,-3.8941,-3.8941,-3.8941,-3.8941,-3.8734,-3.8358,-3.8761,0.0,0.0,0.0,-3.8707,-3.8358,-3.8358,0.0,-3.713,-3.6352,-3.5799,-3.5504,-3.5504,-3.5504,-3.5504,-3.5504,-3.5504,0.0,0.0,-3.5504,-3.5504,0.0,-3.5504,-3.5504,0.0,0.0,0.0,-3.5504,0.0,0.0,0.0,-3.5504,-3.5504,0.0,0.0,0.0,0.0,0.0,0.0,0.0,0.0,0.0,0.0,0.0,0.0,0.0,0.0,0.0,-3.5504,-3.5504,-3.5504,-3.5504,-3.5504,-3.5504,-3.5504,-3.5019,-3.4986,-3.5472,-3.4558,-3.4259,-3.4758,-3.3788,-3.3066,-3.2593,-3.1633,-3.097,-3.0495,-2.9998,-2.9792,-2.9792,-2.9792,-2.9792,-2.9792,-2.9792,-2.9792,-2.9792,-2.9792,-2.9792,-2.9792,-2.9792,-2.9792,-2.9792,-3.2469,0.0,0.0,-3.262,-3.2716,-3.2908,-3.3502,-3.3591,-3.363,-3.3757,-3.4239,-3.4613,-3.4678,-3.5203,-3.5408,-3.4942,-3.598,-3.6759,-3.6901,0.0,-3.7719,-3.7573,-3.7719,-3.7735,-3.7573,-3.7719,-3.7793,-3.7793,-3.7793,-3.7793,-3.7793,-3.7793,-3.7719,-3.7573,-3.7719,0.0,0.0,0.0,0.0,-3.7573,0.0,-3.7189,-3.6523,-3.5782,-3.5504,-3.5504,-3.5504,-3.5504,-3.5504,-3.5504,0.0,-3.5504,-3.5504,-3.5504,0.0,0.0,0.0,0.0,0.0,0.0,0.0,0.0,0.0,-3.5504,0.0,0.0,0.0,-3.5504,0.0,0.0,0.0,0.0,0.0,0.0,0.0,0.0,0.0,0.0,0.0,0.0,0.0,0.0,0.0,-3.5504,-3.5504,-3.5504,-3.5326,-3.5213,-3.5213,-3.4259,-3.4109,-3.492,-3.3429,-3.2961,-3.3705,-3.282,-3.196,-3.1217,-3.1007,-3.052,-2.9792,-2.9792,-2.9792,-2.9792,-2.9792,-2.9792,-2.9792,-2.9792,-2.9792,-2.9792,-2.9792,-2.9792,-2.9792,-2.9792,-2.9792,-2.9792,-3.3188,-3.3393,0.0,0.0,-3.347,-3.3502,-3.3608,-3.3554,-3.3724,-3.4302,-3.4441,-3.4738,0.0,0.0,0.0,0.0,0.0,0.0,-3.7636,0.0,0.0,-3.6768,-3.7427,-3.7456,-3.6752,-3.7427,-3.7793,-3.7793,-3.7793,-3.7793,-3.7793,-3.7793,-3.7427,-3.6768,-3.7485,0.0,0.0,0.0,-3.7397,0.0,-3.6737,-3.6661,0.0,-3.5782,-3.5504,-3.5504,-3.5504,-3.5504,-3.5504,0.0,-3.5504,-3.5504,0.0,-3.5504,0.0,0.0,0.0,0.0,0.0,0.0,0.0,0.0,-3.5504,0.0,0.0,0.0,-3.5504,-3.5504,0.0,0.0,0.0,0.0,0.0,0.0,0.0,0.0,0.0,0.0,0.0,0.0,0.0,0.0,0.0,-3.5504,-3.5504,-3.5504,-3.4691,-3.4177,-3.4177,-3.3276,-3.282,-3.2925,-3.2713,-3.2629,-3.2749,-3.1815,-3.1315,-3.118,-3.0343,-2.9895,-2.9792,-2.9792,-2.9792,-2.9792,-2.9792,-2.9792,-2.9792,-2.9792,-2.9792,-2.9792,-2.9792,-2.9792,-2.9792,-2.9792,-2.9792,-2.9792,-3.2815,-3.268,0.0,0.0,-3.2702,-3.2964,-3.2964,-3.3262,-3.3742,-3.441,-3.4501,0.0,0.0,0.0,0.0,0.0,0.0,-3.6101,0.0,0.0,0.0,0.0,0.0,0.0,0.0,-3.6274,-3.6461,-3.6461,-3.6461,-3.6461,-3.6461,-3.6461,-3.629,-3.5975,-3.6305,0.0,-3.5975,0.0,0.0,0.0,0.0,0.0,0.0,-3.5619,-3.5504,-3.5504,-3.5504,-3.5504,-3.5504,0.0,-3.5504,0.0,0.0,0.0,0.0,0.0,0.0,0.0,0.0,0.0,0.0,0.0,0.0,0.0,-3.5359,0.0,-3.4806,0.0,0.0,0.0,0.0,0.0,0.0,0.0,0.0,0.0,0.0,0.0,0.0,0.0,0.0,0.0,0.0,0.0,0.0,0.0,-3.3739,-3.3206,-3.3206,-3.2321,-3.2033,-3.2558,-3.1549,-3.123,-3.1779,-3.0871,-3.0381,-3.0381,-3.0011,-2.9792,-2.9792,-2.9792,-2.9792,-2.9792,-2.9792,-2.9792,-2.9792,-2.9792,-2.9792,-2.9792,-2.9792,-2.9792,-2.9792,-2.9792,-2.9792,-2.9792,-3.2739,0.0,0.0,0.0,0.0,-3.2841,-3.3021,-3.3455,-3.4008,-3.4698,0.0,0.0,-3.5444,-3.5504,0.0,0.0,0.0,-3.5504,0.0,0.0,-3.5504,0.0,0.0,0.0,0.0,0.0,-3.5504,-3.5504,-3.5504,-3.5504,-3.5504,-3.5504,-3.5504,-3.5504,0.0,-3.5504,-3.5504,0.0,0.0,-3.5504,-3.5504,-3.5504,-3.5504,-3.5504,-3.5504,-3.5504,-3.5504,-3.5504,-3.5504,-3.5504,-3.5326,0.0,-3.4245,0.0,0.0,0.0,0.0,0.0,-3.4706,0.0,0.0,0.0,0.0,0.0,0.0,0.0,0.0,0.0,0.0,0.0,0.0,0.0,0.0,0.0,0.0,0.0,0.0,0.0,0.0,0.0,0.0,0.0,0.0,0.0,0.0,-3.3636,-3.2749,-3.2213,-3.2213,-3.1328,-3.1119,-3.1792,-3.0495,-3.0139,-3.0796,-3.0139,-2.9792,-2.9792,-2.9792,-2.9792,-2.9792,-2.9792,-2.9792,-2.9792,-2.9792,-2.9792,-2.9792,-2.9792,-2.9624,-2.9326,-2.9326,-2.9157,-2.8961,-2.9585,-2.9792,-2.9792,-3.347,-3.2916,0.0,0.0,0.0,-3.3679,-3.4354,-3.4459,-3.4728,0.0,0.0,0.0,0.0,0.0,0.0,0.0,0.0,-3.5504,-3.5504,0.0,-3.5504,0.0,0.0,-3.5504,0.0,0.0,0.0,-3.5504,-3.5504,-3.5504,-3.5504,-3.5504,-3.5504,-3.5504,-3.5504,-3.5504,-3.5504,-3.5504,-3.5504,-3.5504,-3.5504,-3.5504,-3.5504,0.0,-3.5504,-3.5504,-3.5504,0.0,0.0,-3.5504,-3.4839,0.0,0.0,0.0,0.0,0.0,0.0,0.0,0.0,0.0,0.0,-3.2664,0.0,0.0,0.0,0.0,-3.2629,0.0,0.0,0.0,0.0,0.0,0.0,-3.2593,0.0,0.0,0.0,0.0,0.0,0.0,0.0,0.0,0.0,0.0,0.0,-3.2629,-3.1779,-3.1254,-3.1254,-3.0343,-2.9869,-2.9908,-2.983,-2.983,-2.9818,-2.983,-2.9792,-2.9792,-2.9792,-2.9792,-2.9792,-2.9792,-2.9792,-2.9792,-2.9792,-2.9792,-2.9792,-2.9792,-2.9157,-2.8164,-2.8164,-2.7533,-2.6853,-2.9,-2.9792,-2.9792,0.0,0.0,0.0,0.0,0.0,-3.4382,-3.5055,-3.516,0.0,0.0,0.0,0.0,0.0,0.0,-3.5504,0.0,0.0,-3.5504,-3.5504,-3.5504,0.0,0.0,0.0,-3.5504,0.0,0.0,0.0,0.0,0.0,-3.5504,-3.5504,-3.5504,-3.5504,-3.5504,0.0,-3.5504,0.0,0.0,0.0,0.0,0.0,-3.5504,-3.5504,0.0,0.0,-3.5504,-3.5504,-3.5067,0.0,-3.4509,-3.3856,-3.2961,-3.2357,-3.2357,-3.25,-3.1852,-3.2105,0.0,0.0,0.0,-3.1815,-3.2464,0.0,0.0,0.0,0.0,0.0,0.0,0.0,0.0,0.0,0.0,-3.1462,-3.0846,-3.0746,0.0,0.0,0.0,0.0,0.0,0.0,0.0,0.0,0.0,0.0,-3.1669,-3.0809,-3.0279,-3.0279,-2.9972,-2.9792,-2.9792,-2.9792,-2.9792,-2.9792,-2.9792,-2.9792,-2.9792,-2.9792,-2.9792,-2.9792,-2.9792,-2.9792,-2.9753,-2.8988,-2.8688,-2.8609,-2.7919,-2.7383,-2.7046,-2.7046,-2.6801,-2.6607,-2.7342,-2.7637,-2.7637,-3.4756,0.0,0.0,0.0,0.0,0.0,0.0,0.0,0.0,0.0,-3.5504,0.0,-3.5504,0.0,-3.5504,0.0,-3.5504,-3.5504,-3.5504,-3.5504,0.0,-3.5504,-3.5504,0.0,0.0,0.0,0.0,0.0,0.0,-3.5504,-3.5504,-3.5504,-3.5504,-3.5504,0.0,-3.5504,-3.5504,0.0,-3.5504,0.0,0.0,-3.518,0.0,0.0,-3.4887,-3.5504,0.0,-3.4839,-3.3993,-3.3993,-3.3136,-3.1997,-3.1389,-3.1402,-3.1476,-3.0871,-3.1119,-3.1586,-3.1586,-3.1156,0.0,-3.1439,-3.1156,0.0,-3.1476,0.0,0.0,0.0,0.0,0.0,0.0,0.0,0.0,-2.9895,-2.9792,-2.9792,0.0,-2.9792,0.0,0.0,0.0,0.0,0.0,0.0,-3.0696,-3.0696,-3.0139,-2.9792,0.0,0.0,-2.9792,-2.9792,-2.9792,-2.9792,-2.9792,-2.9792,-2.9792,-2.9792,-2.9792,-2.9792,-2.9792,-2.9365,-2.9197,-2.9145,-2.8028,-2.7522,-2.7493,-2.6801,-2.6265,-2.5891,-2.5891,-2.5641,-2.5389,-2.6182,-2.6524,-2.6431,0.0,0.0,0.0,0.0,-3.5504,0.0,0.0,0.0,-3.5504,0.0,-3.5504,-3.5504,-3.5504,-3.5504,-3.5504,-3.5504,-3.5504,0.0,-3.5504,-3.5504,0.0,0.0,-3.5504,-3.5504,-3.5504,0.0,0.0,0.0,0.0,0.0,-3.5504,-3.5504,-3.5504,-3.5504,-3.5504,0.0,-3.5504,-3.5504,-3.5472,-3.5359,-3.4394,-3.4543,-3.5133,-3.329,-3.3754,-3.5359,-3.5359,-3.4725,-3.3842,-3.3842,-3.2629,-3.1143,-3.1143,-3.052,-2.9792,-2.9792,-2.9792,-2.9792,-2.9792,-2.9792,-2.9792,-2.9792,0.0,0.0,0.0,0.0,-2.9792,0.0,0.0,0.0,0.0,0.0,0.0,-2.9792,-2.9792,-2.9792,-2.9792,0.0,0.0,0.0,0.0,0.0,0.0,-2.9792,-2.9792,-2.9792,-2.9792,-2.9792,0.0,0.0,-2.9792,-2.9792,-2.9792,-2.9792,-2.9792,-2.9792,-2.9792,-2.9792,-2.9753,-2.9702,-2.9663,-2.8557,-2.8004,-2.7964,-2.6883,-2.6431,-2.6389,-2.6359,-2.5683,-2.4702,-2.4702,-2.4049,-2.3343,-2.5515,-2.6348,-2.6182,-3.5504,-3.5504,-3.5504,0.0,-3.5504,-3.5504,0.0,0.0,0.0,0.0,-3.5504,-3.5504,-3.5504,-3.5504,-3.5504,-3.5504,-3.5504,0.0,0.0,0.0,0.0,-3.5504,-3.5504,-3.5504,-3.5504,-3.5504,0.0,-3.5504,0.0,0.0,-3.5504,-3.5504,-3.5504,-3.5504,0.0,0.0,-3.5504,-3.5504,-3.5067,-3.4361,-3.4095,-3.3739,0.0,0.0,-3.2925,-3.3359,-3.3359,-3.2749,-3.1924,-3.1924,-3.1119,-3.0177,-3.0177,-2.9998,-2.9792,-2.9792,-2.9792,-2.9792,-2.9792,-2.9792,-2.9792,-2.9792,-2.9792,-2.9792,0.0,0.0,0.0,0.0,0.0,0.0,0.0,0.0,0.0,0.0,0.0,0.0,0.0,0.0,0.0,-2.9792,0.0,0.0,0.0,-2.9792,-2.9792,-2.9792,-2.9792,-2.9792,0.0,0.0,0.0,-2.9792,-2.9792,-2.9792,-2.9792,-2.9792,-2.9792,-2.9792,-2.8937,-2.8557,-2.8518,-2.7412,-2.6924,-2.6842,-2.5714,-2.5252,-2.5168,-2.4307,-2.38,-2.3551,-2.3551,-2.3343,-2.3178,-2.3767,-2.3973,-2.393,-3.5504,0.0,0.0,-3.5504,0.0,0.0,-3.5504,0.0,0.0,-3.5504,-3.5504,0.0,-3.5504,-3.5504,-3.5504,-3.5504,-3.5504,0.0,-3.5504,0.0,0.0,-3.5504,-3.5504,-3.5504,-3.5504,-3.5504,0.0,-3.5504,0.0,0.0,-3.5504,-3.5504,-3.5504,-3.5504,0.0,-3.5504,0.0,-3.5019,-3.4509,-3.391,-3.3101,0.0,0.0,-3.1696,-3.1609,-3.1924,-3.1513,-3.1291,-3.1217,-3.1217,-3.0595,-2.9792,-2.9792,-2.9792,-2.9792,-2.9792,-2.9792,-2.9792,-2.9792,-2.9792,-2.9792,-2.9792,-2.9792,-2.9792,-2.9792,-2.9792,-2.9792,0.0,0.0,0.0,0.0,0.0,0.0,0.0,0.0,0.0,0.0,0.0,0.0,0.0,0.0,0.0,0.0,-2.9792,-2.9792,-2.9792,-2.9792,-2.9792,0.0,0.0,0.0,-2.9792,-2.9792,-2.9792,-2.9792,-2.9326,-2.9067,-2.9028,-2.7947,-2.74,-2.736,-2.6254,-2.5755,-2.5672,-2.4542,-2.4049,-2.4006,-2.3343,-2.3091,-2.3091,-2.3091,-2.3091,-2.3091,-2.3091,-2.3091,-2.3091,0.0,0.0,0.0,0.0,0.0,0.0,0.0,-3.5504,0.0,-3.5504,0.0,-3.5504,-3.5504,-3.5504,-3.5504,-3.5504,0.0,-3.5504,-3.5504,-3.5504,-3.5504,-3.5504,-3.5504,-3.5504,-3.5504,-3.5504,0.0,0.0,0.0,0.0,-3.5504,-3.5504,-3.5504,0.0,0.0,0.0,0.0,-3.4361,-3.3842,-3.3484,-3.1852,-3.1609,-3.2083,-3.0432,-3.0317,-3.0895,-3.0113,-3.0317,-3.1007,-3.1007,-3.0482,-2.9792,-2.9792,-2.9792,-2.9792,-2.9792,-2.9792,-2.9792,-2.9792,-2.9792,-2.9792,-2.9792,-2.9792,-2.9792,-2.9792,-2.9792,-2.9792,-2.9792,-2.9792,-2.9792,0.0,0.0,0.0,0.0,0.0,0.0,0.0,0.0,0.0,0.0,0.0,0.0,0.0,0.0,0.0,-2.9792,-2.9663,0.0,0.0,0.0,0.0,-2.9573,-2.9573,-2.9573,-2.9573,0.0,-2.7896,-2.7896,-2.6789,-2.6265,-2.6224,-2.5094,-2.4585,-2.45,-2.3507,-2.3091,-2.3091,-2.3091,-2.3091,-2.3091,-2.3091,-2.3091,-2.3091,-2.3091,-2.3091,-2.3091,0.0,0.0,0.0,0.0,0.0,-3.5504,-3.5504,-3.5504,-3.5504,-3.5504,-3.5504,-3.5504,-3.5504,-3.5504,-3.5504,-3.5504,-3.5504,0.0,0.0,0.0,0.0,-3.5504,-3.5504,-3.5504,-3.5504,-3.5504,-3.5504,0.0,0.0,0.0,-3.5504,-3.5504,0.0,0.0,0.0,0.0,-3.4245,-3.4061,0.0,-3.1669,-3.1315,-3.0833,-3.0254,-2.9934,-2.9895,-3.0037,-2.9869,-2.9895,-3.0037,-3.0037,-2.9934,-2.9792,-2.9792,-2.9792,-2.9792,-2.9792,-2.9792,-2.9792,-2.9792,-2.9792,-2.9792,-2.9792,-2.9792,-2.9792,-2.9792,-2.9792,-2.9792,-2.9792,-2.9792,-2.9792,-2.9792,0.0,0.0,0.0,0.0,0.0,0.0,0.0,0.0,0.0,0.0,0.0,0.0,0.0,0.0,0.0,0.0,0.0,0.0,0.0,0.0,0.0,-2.8386,0.0,0.0,0.0,-2.676,-2.676,-2.563,-2.5083,-2.5041,-2.393,-2.3387,-2.3387,-2.3178,-2.3091,-2.3091,-2.3091,-2.3091,-2.3091,-2.3091,-2.3091,-2.3091,-2.3091,-2.3091,-2.3091,0.0,0.0,0.0,0.0,0.0,0.0,0.0,-3.5504,0.0,-3.5504,-3.5504,-3.5504,-3.5504,-3.5504,-3.5504,-3.5504,-3.5504,-3.5504,-3.5504,-3.5504,-3.5504,-3.5504,-3.5504,0.0,-3.4725,-3.4725,-3.4725,-3.4725,0.0,0.0,-3.5504,-3.5504,0.0,0.0,0.0,-3.4177,0.0,0.0,0.0,-3.1143,-3.0658,-3.0216,-2.9792,-2.9792,-2.9792,-2.9792,-2.9792,-2.9792,-2.9792,-2.9792,-2.9792,-2.9792,-2.9792,-2.9792,-2.9792,-2.9792,-2.9792,-2.9792,-2.9792,-2.9792,-2.9792,-2.9792,-2.9792,-2.9792,-2.9792,-2.9792,-2.9792,-2.9792,-2.9326,-2.874,-2.8171,-2.7626,0.0,0.0,0.0,0.0,0.0,0.0,0.0,0.0,0.0,0.0,0.0,0.0,0.0,0.0,0.0,0.0,0.0,0.0,0.0,0.0,0.0,0.0,0.0,0.0,0.0,-2.5588,-2.4467,-2.392,-2.3887,-2.3343,-2.3091,-2.3091,-2.3091,-2.3091,-2.3091,-2.3091,-2.3091,-2.3091,-2.3091,-2.3091,-2.3091,-2.3091,-2.3091,-2.3091,0.0,-3.5504,0.0,0.0,-3.5504,0.0,-3.5504,-3.5504,-3.5504,-3.5504,-3.5504,-3.5504,-3.5504,-3.5504,-3.5504,-3.5504,-3.5504,-3.5504,-3.5504,-3.5504,-3.5504,-3.5504,-3.5504,-3.5019,-3.4027,-3.3993,-3.391,0.0,0.0,0.0,0.0,0.0,0.0,0.0,0.0,0.0,0.0,0.0,-3.1068,-3.0833,-3.0113,-2.9792,-2.9792,-2.9792,-2.9792,-2.9792,-2.9792,-2.9792,-2.9792,-2.9792,-2.9792,-2.9792,-2.9792,-2.9792,-2.9792,-2.9792,-2.9792,-2.9792,-2.9792,-2.9792,-2.9792,-2.9792,-2.9792,-2.9792,-2.9792,-2.9792,-2.974,-2.9495,-2.8518,-2.7481,-2.6637,-2.6307,0.0,0.0,0.0,0.0,0.0,0.0,0.0,0.0,0.0,0.0,0.0,0.0,0.0,0.0,0.0,0.0,0.0,0.0,0.0,0.0,0.0,-2.6141,-2.6141,0.0,-2.4414,-2.4414,-2.3507,-2.3091,-2.3091,-2.3091,-2.3091,-2.3091,-2.3091,-2.3091,-2.3091,-2.3091,-2.3091,-2.3091,-2.3091,-2.3091,-2.3091,-2.3091,-2.3091,-2.3091,0.0,0.0,0.0,0.0,0.0,0.0,-3.5504,-3.5504,-3.5504,-3.5504,-3.5504,-3.5504,-3.5504,-3.5504,-3.5504,-3.5504,-3.5504,-3.5504,-3.5504,-3.5504,-3.5504,-3.5504,-3.5504,-3.5019,-3.4027,-3.3993,-3.3602,0.0,0.0,0.0,0.0,0.0,0.0,0.0,0.0,0.0,0.0,-3.1254,-3.0696,-2.9934,-2.983,-2.9792,-2.9792,-2.9792,-2.9792,-2.9792,-2.9792,-2.9792,-2.9792,-2.9792,-2.9792,-2.9792,-2.9792,-2.9792,-2.9792,-2.9792,-2.9792,-2.9792,-2.9792,-2.9792,-2.9792,-2.9792,-2.9792,-2.9792,-2.9792,-2.9792,-2.9495,-2.8466,-2.7412,-2.6637,-2.6524,-2.5683,-2.4957,0.0,0.0,0.0,0.0,0.0,0.0,0.0,0.0,0.0,0.0,-2.4143,0.0,0.0,0.0,0.0,0.0,0.0,0.0,-2.4957,0.0,-2.4957,-2.4957,-2.3844,-2.3266,-2.3266,-2.3135,-2.3091,-2.3091,-2.3091,-2.3091,-2.3091,-2.3091,-2.3091,-2.3091,-2.3091,-2.3091,-2.3091,-2.3091,-2.3091,-2.3091,-2.3091,-2.3091,-2.3091,0.0,0.0,0.0,0.0,0.0,0.0,0.0,-3.5504,-3.5504,-3.5504,-3.5504,-3.5504,-3.5504,-3.5504,-3.5504,-3.5504,-3.5504,-3.5246,-3.4643,-3.461,-3.4361,-3.3788,-3.3754,-3.3325,-3.2357,-3.2321,-3.2141,0.0,0.0,0.0,0.0,0.0,0.0,0.0,0.0,-3.1254,-3.0343,-3.0343,-3.0139,-2.9792,-2.9792,-2.9792,-2.9792,-2.9792,-2.9792,-2.9792,-2.9792,-2.9792,-2.9792,-2.9792,-2.9792,-2.9792,-2.9792,-2.9792,-2.9792,-2.9792,-2.9792,-2.9792,-2.9792,-2.9792,-2.9792,-2.9792,-2.9792,-2.9792,-2.9792,-2.9792,-2.9495,-2.8347,-2.6696,-2.5263,-2.4595,-2.4092,-2.38,0.0,0.0,0.0,0.0,0.0,0.0,0.0,0.0,0.0,0.0,0.0,0.0,0.0,0.0,0.0,0.0,0.0,0.0,-2.454,0.0,-2.454,-2.454,-2.4122,-2.3861,-2.3861,-2.3861,-2.3861,-2.3861,-2.3861,-2.3861,-2.3861,-2.3861,-2.3861,-2.3861,-2.3861,-2.3861,-2.3861,-2.3861,-2.3861,-2.3861,-2.3861,-2.3861,-2.3771,-3.5504,0.0,-3.5504,0.0,-3.5504,-3.5504,-3.5504,-3.5504,-3.5504,-3.5504,-3.5504,-3.5504,-3.5504,-3.5504,-3.5504,-3.5504,-3.5504,-3.5067,-3.4061,-3.3993,-3.3602,-3.2629,-3.2593,0.0,-3.1217,-3.1217,-3.1068,-3.0796,-3.1068,0.0,0.0,0.0,0.0,0.0,-3.0895,-3.0419,-2.9792,-2.9792,-2.9792,-2.9792,-2.9792,-2.9792,-2.9792,-2.9792,-2.9792,-2.9792,-2.9792,-2.9792,-2.9792,-2.9792,-2.9792,-2.9792,-2.9792,-2.9792,-2.9792,-2.9792,-2.9792,-2.9792,-2.9792,-2.9792,-2.9792,-2.9792,-2.9534,-2.9314,-2.9314,-2.904,-2.8502,-2.7348,-2.5619,-2.4049,-2.3266,-2.3091,-2.3091,-2.3091,0.0,0.0,0.0,0.0,0.0,0.0,0.0,-2.456,-2.4424,0.0,0.0,0.0,0.0,0.0,0.0,0.0,0.0,0.0,0.0,0.0,-2.4414,-2.4414,-2.4414,-2.4414,-2.4414,-2.4414,-2.4414,-2.4414,-2.4414,-2.4414,-2.4414,-2.4414,-2.4414,-2.4414,-2.4414,-2.4368,-2.3988,-2.3793,-2.3746,-2.3355,-2.3215,-2.3074,-3.5504,-3.5504,-3.5504,-3.5504,-3.5504,-3.5504,-3.5504,-3.5504,-3.5504,-3.5504,-3.5504,-3.5504,-3.5504,-3.5504,-3.5504,-3.5504,-3.5504,-3.5067,-3.4061,-3.3993,-3.3602,0.0,0.0,-3.2177,-3.1217,-3.1217,-3.0771,-2.983,0.0,0.0,-2.983,0.0,-3.0317,-3.118,-3.0241,-2.9792,-2.9792,-2.9792,-2.9792,-2.9792,-2.9792,-2.9792,-2.9792,-2.9792,-2.9792,-2.9792,-2.9792,-2.9792,-2.9792,-2.9792,-2.9792,-2.9792,-2.9792,-2.9792,-2.9792,-2.9792,-2.9792,-2.9792,-2.9792,-2.9792,-2.9792,-2.9792,-2.8937,-2.8136,-2.8136,-2.7279,-2.6224,-2.5083,-2.392,-2.3135,-2.3091,-2.3091,-2.3091,-2.3091,0.0,0.0,0.0,0.0,0.0,0.0,-2.4795,-2.4893,-2.4453,0.0,0.0,0.0,0.0,0.0,0.0,0.0,0.0,-2.4414,-2.4414,0.0,-2.4414,-2.4414,-2.4414,-2.4414,-2.4414,-2.4414,-2.4414,-2.4414,-2.4414,-2.4414,-2.4414,-2.4414,-2.4414,-2.4414,-2.4414,-2.4275,-2.2943,-2.2416,-2.2265,-2.0962,-2.0433,-2.0433,-3.5504,-3.5504,-3.5504,-3.5504,-3.5504,-3.5504,-3.5504,-3.5504,-3.5504,-3.5504,-3.5504,-3.5246,-3.4543,-3.51,-3.5504,0.0,-3.4872,-3.4075,0.0,-3.2464,-3.1683,-3.0746,-3.0671,-3.057,-3.0241,-3.0241,-3.0113,-2.9792,0.0,0.0,0.0,-2.9792,-2.9972,-3.0241,-2.9934,-2.9792,-2.9792,-2.9792,-2.9792,-2.9792,-2.9792,-2.9792,-2.9792,-2.9792,-2.9792,-2.9792,-2.9792,-2.9792,-2.9792,-2.9792,-2.9792,-2.9792,-2.9792,-2.9792,-2.9792,-2.9792,-2.9792,-2.9792,-2.9792,-2.9792,-2.9624,-2.8858,-2.8386,-2.7924,-2.7168,-2.613,-2.5252,-2.4872,-2.3877,-2.3091,-2.3091,-2.3379,-2.3584,-2.3584,-2.3935,0.0,0.0,0.0,0.0,0.0,-2.5254,-2.5469,0.0,-2.5528,0.0,0.0,0.0,0.0,0.0,0.0,0.0,0.0,-2.5274,0.0,-2.5274,-2.5274,-2.5274,-2.5274,-2.5274,-2.5274,-2.5274,-2.5274,-2.5274,-2.5274,-2.5274,-2.5274,-2.5217,-2.4303,-2.3906,-2.38,-2.2461,-2.1909,-2.1859,-2.1454,-2.1304,-2.1163,-3.5504,-3.5504,-3.5504,-3.5504,-3.5504,-3.5504,-3.5504,-3.5504,-3.5504,-3.5504,-3.5504,-3.5133,-3.4095,-3.4543,0.0,-3.4442,-3.3822,-3.3066,-3.2141,-3.1536,-3.0758,-2.983,-2.9792,-2.9792,-2.9792,-2.9792,0.0,-2.9792,-2.9792,-2.9792,-2.9792,-2.9792,-2.9792,-2.9792,-2.9792,-2.9792,-2.9792,-2.9792,-2.9792,-2.9792,-2.9792,-2.9792,-2.9792,-2.9792,-2.9792,-2.9792,-2.9792,-2.9792,-2.9792,-2.9792,-2.9792,-2.9792,-2.9792,-2.9495,-2.9236,-2.9663,-2.9792,-2.9702,-2.9287,-2.9145,-2.8897,-2.7775,-2.7186,-2.6562,-2.5473,-2.4681,-2.4168,-2.4168,-2.3723,-2.3379,-2.3379,-2.374,-2.4023,-2.4023,-2.4385,-2.4658,-2.4658,0.0,0.0,0.0,0.0,0.0,0.0,-2.5693,-2.5693,0.0,0.0,0.0,0.0,0.0,0.0,-2.5693,-2.5693,0.0,-2.5693,-2.5693,-2.5693,-2.5693,-2.5693,-2.5693,-2.5693,-2.5693,-2.5693,-2.5684,-2.5177,-2.4971,-2.4864,-2.3484,-2.2976,-2.2818,-2.1448,-2.0896,-2.0837,-2.0333,-2.0179,-2.0025,-3.5504,-3.5504,-3.5504,0.0,-3.5504,0.0,-3.5504,-3.5504,-3.5504,-3.5504,-3.5439,-3.5019,-3.4027,-3.3842,-3.3415,-3.25,0.0,0.0,0.0,-3.1143,-3.0733,-2.983,-2.9792,-2.9792,-2.9792,-2.9792,-2.9792,-2.9792,-2.9792,-2.9792,-2.9792,-2.9792,-2.9792,-2.9792,-2.9792,-2.9792,-2.9792,-2.9792,-2.9792,-2.9792,-2.9792,-2.9792,-2.9792,-2.9792,-2.9792,-2.9792,-2.9792,-2.9792,-2.9792,-2.9702,-2.9663,-2.9663,-2.9585,-2.8858,-2.8227,-2.9365,-2.9624,-2.9326,-2.8267,-2.8004,-2.7723,-2.6637,-2.5546,-2.4414,-2.3343,-2.312,-2.314,-2.314,-2.3525,-2.3838,-2.3838,-2.418,-2.4463,-2.4463,-2.4834,-2.5165,-2.5165,0.0,0.0,0.0,0.0,0.0,-2.5693,-2.5693,-2.5693,0.0,0.0,0.0,0.0,0.0,-2.5693,-2.5693,-2.5693,-2.5693,-2.5693,-2.5693,-2.5693,-2.5693,-2.5693,-2.5693,-2.5693,-2.5693,-2.5635,-2.5479,-2.4254,-2.3633,-2.3484,-2.2106,-2.155,-2.1397,-2.0033,-1.9472,-1.9324,-1.8042,-1.7582,-1.7582,0.0,0.0,-3.5504,-3.5504,-3.5504,-3.5504,-3.5504,-3.5504,-3.5504,-3.5504,-3.4839,-3.3993,-3.3031,-3.2285,-3.1476,-3.0533,-3.1119,-3.1426,-3.1217,-3.052,-3.0037,-2.9792,-2.9792,-2.9792,-2.9792,-2.9792,-2.9792,-2.9792,-2.9792,-2.9792,-2.9792,-2.9792,-2.9792,-2.9792,-2.9792,-2.9792,-2.9792,-2.9792,-2.9792,-2.9792,-2.9792,-2.9792,-2.9792,-2.9792,-2.9792,-2.9792,-2.9792,-2.9792,-2.9663,-2.8806,-2.8518,-2.8359,-2.7545,-2.7098,-2.7087,-2.8187,-2.7907,-2.7221,-2.6964,-2.6883,-2.6595,-2.5504,-2.4339,-2.343,-2.3178,-2.3398,-2.3633,-2.3633,-2.3975,-2.4268,-2.4268,-2.4619,-2.4912,-2.4912,-2.5293,-2.5586,-2.5586,-2.5625,0.0,0.0,-2.5693,-2.5693,-2.5693,-2.5693,-2.5693,0.0,0.0,0.0,0.0,-2.5693,-2.5693,-2.5693,-2.5693,-2.5693,-2.5693,-2.5693,-2.5693,-2.5693,-2.5693,-2.5693,-2.5693,-2.5693,-2.5118,-2.4146,-2.384,-2.3126,-2.2055,-2.0692,-2.0084,-1.9981,-1.861,-1.8094,-1.8042,-1.774,-1.7582,-1.7582,-3.5504,-3.5133,-3.4806,-3.4806,-3.4476,-3.4158,-3.4158,-3.4158,-3.4158,-3.4158,-3.3719,-3.2996,-3.2069,-3.1499,-3.0833,-2.9895,-3.0279,-3.0558,-3.0558,-3.0075,-2.9792,-2.9792,-2.9792,-2.9792,-2.9792,-2.9792,-2.9792,-2.9792,-2.9792,-2.9792,-2.9792,-2.9792,-2.9792,-2.9792,-2.9792,-2.9792,-2.9792,-2.9792,-2.9792,-2.9792,-2.9792,-2.9792,-2.9753,-2.9236,-2.9028,-2.8949,-2.8462,-2.8291,-2.8211,-2.7574,-2.7371,-2.7279,-2.6678,-2.6141,-2.5839,-2.6397,-2.6543,-2.6389,-2.5839,-2.5714,-2.5473,-2.4296,-2.37,-2.3437,-2.3437,-2.3769,-2.4072,-2.4072,-2.4414,-2.4717,-2.4717,-2.5078,-2.5371,-2.5371,-2.5586,-2.5693,-2.5693,-2.5693,0.0,-2.5693,-2.5693,-2.5693,-2.5693,-2.5693,-2.5693,-2.5693,-2.5128,0.0,-2.4815,-2.4196,-2.4146,-2.4766,-2.4815,-2.4501,-2.389,-2.389,-2.389,-2.389,-2.389,-2.389,-2.389,-2.389,-2.3484,-2.2767,-2.2114,-2.1397,-2.0641,-1.9265,-1.8708,-1.8603,-1.7891,-1.7582,-1.7582,-1.7582,-1.7582,-1.7582,-3.5311,-3.4576,-3.3959,-3.3808,-3.3136,-3.2593,-3.2593,-3.2593,-3.2593,-3.2593,-3.25,-3.2105,-3.1278,-3.1068,-3.0658,-2.9869,-2.9792,-2.9792,-2.9792,-2.9792,-2.9792,-2.9792,-2.9792,-2.9792,-2.9792,-2.9792,-2.9792,-2.9792,-2.9792,-2.9792,-2.9792,-2.9792,-2.9792,-2.9792,-2.9792,-2.9792,-2.9792,-2.9792,-2.9792,-2.9792,-2.9792,-2.9714,-2.9443,-2.8466,-2.8016,-2.7723,-2.6842,-2.6524,-2.6483,-2.6307,-2.6224,-2.6224,-2.6058,-2.5305,-2.4542,-2.4542,-2.5221,-2.5766,-2.4798,-2.4594,-2.4442,-2.3442,-2.3564,-2.3887,-2.3887,-2.4209,-2.4521,-2.4521,-2.4863,-2.5166,-2.5166,-2.5478,-2.5693,-2.5693,-2.5693,-2.5693,-2.5693,0.0,-2.5693,-2.5693,-2.5693,-2.5693,-2.5693,-2.5693,-2.5635,-2.543,-2.4353,-2.3583,-2.3434,-2.2307,-2.2106,-2.3026,-2.3285,-2.2868,-2.1693,-2.1702,-2.1702,-2.1702,-2.1702,-2.1702,-2.1702,-2.1702,-2.16,-2.1347,-2.0135,-1.9472,-1.922,-1.8094,-1.7582,-1.7582,-1.7582,-1.7582,-1.7582,-1.7582,-1.7582,-1.7582,-3.4394,-3.4095,-3.3739,-3.2961,-3.2713,-3.2593,-3.2593,-3.2593,-3.2593,-3.2593,-3.1924,-3.1352,-3.1217,-3.0482,-2.9972,-2.9792,-2.9792,-2.9792,-2.9792,-2.9792,-2.9792,-2.9792,-2.9792,-2.9792,-2.9792,-2.9792,-2.9792,-2.9792,-2.9792,-2.9792,-2.9792,-2.9792,-2.9792,-2.9792,-2.9792,-2.9792,-2.9792,-2.9792,-2.9792,-2.9792,-2.9792,-2.9236,-2.8347,-2.8176,-2.7522,-2.6719,-2.6565,-2.6524,-2.6348,-2.5378,-2.5041,-2.4925,-2.393,-2.3517,-2.3343,-2.3343,-2.3474,-2.3594,-2.343,-2.3663,-2.3895,-2.3736,-2.4004,-2.4316,-2.4316,-2.4658,-2.4971,-2.4971,-2.5322,-2.5635,-2.5635,-2.5645,-2.5693,-2.5693,-2.5693,-2.5693,-2.5693,0.0,-2.5693,-2.5693,-2.5693,-2.5693,-2.5693,-2.5693,-2.5226,-2.4097,-2.384,-2.3226,-2.2055,-2.1803,-2.1245,-2.029,-2.1397,-2.1904,-2.1702,-2.1702,-2.1702,-2.1702,-2.1702,-2.1702,-2.1702,-2.1702,-2.1041,-1.993,-1.9679,-1.8968,-1.7891,-1.7687,-1.7582,-1.7582,-1.7582,-1.7582,-1.7582,-1.7582,-1.7582,-1.7582,-3.4095,-3.3206,-3.2357,-3.1924,-3.1439,-3.1095,-3.1095,-3.1095,-3.1095,-3.1095,-3.0696,-3.0457,-3.0457,-3.0075,-2.9792,-2.9792,-2.9792,-2.9792,-2.9792,-2.9792,-2.9792,-2.9792,-2.9792,-2.9792,-2.9792,-2.9792,-2.9792,-2.9792,-2.9792,-2.9792,-2.9792,-2.9792,-2.9792,-2.9792,-2.9792,-2.9792,-2.9792,-2.9792,-2.9792,-2.9753,-2.9145,-2.8557,-2.7964,-2.6767,-2.6036,-2.5504,-2.4893,-2.4681,-2.4595,-2.4049,-2.3877,-2.38,-2.3256,-2.3091,-2.314,-2.3418,-2.3486,-2.3486,-2.3486,-2.3799,-2.4121,-2.4121,-2.4453,-2.4766,-2.4766,-2.5107,-2.543,-2.543,-2.5596,-2.5693,-2.5693,-2.5693,-2.5693,-2.5693,-2.5693,0.0,0.0,-2.5693,-2.5693,-2.5693,-2.5693,-2.5693,-2.5693,-2.5693,-2.5118,-2.3791,-2.3026,-2.2005,-2.0641,-1.9878,-1.9213,-1.8551,-1.9161,-1.9465,-1.9465,-1.9465,-1.9465,-1.9465,-1.9465,-1.9465,-1.9465,-1.9465,-1.9161,-1.8499,-1.8499,-1.8146,-1.7582,-1.7582,-1.7582,-1.7582,-1.7582,-1.7582,-1.7582,-1.7582,-1.7582,-1.7582,-3.338,-3.2177,-3.1143,-3.0895,-3.0279,-2.9792,-2.9792,-2.9792,-2.9792,-2.9792,-2.9792,-2.9792,-2.9792,-2.9792,-2.9792,-2.9792,-2.9792,-2.9792,-2.9792,-2.9792,-2.9792,-2.9792,-2.9792,-2.9792,-2.9792,-2.9792,-2.9792,-2.9792,-2.9792,-2.9792,-2.9792,-2.9792,-2.9792,-2.9792,-2.9792,-2.9792,-2.9792,-2.9534,-2.9404,-2.9326,-2.8187,-2.7562,-2.7134,-2.5452,-2.4628,-2.4296,-2.343,-2.3091,-2.3091,-2.3091,-2.3091,-2.311,-2.3218,-2.3247,-2.3335,-2.3809,-2.4014,-2.4062,-2.3965,-2.4238,-2.457,-2.457,-2.4893,-2.5225,-2.5225,-2.5488,-2.5693,-2.5693,-2.5693,-2.5693,-2.5693,-2.5693,-2.5693,-2.5693,0.0,0.0,0.0,-2.5693,-2.5693,-2.5693,-2.543,-2.5226,-2.5226,-2.4971,-2.4205,-2.2826,-2.1803,-2.059,-1.922,-1.8146,-1.7582,-1.7582,-1.7582,-1.7582,-1.7582,-1.7582,-1.7582,-1.7582,-1.7582,-1.7582,-1.7582,-1.7582,-1.7582,-1.7582,-1.7582,-1.7582,-1.7582,-1.7582,-1.7582,-1.7582,-1.7582,-1.7582,-1.7582,-1.7582,-1.7582,-1.7582,-3.1573,-3.1278,-3.0932,-3.0037,-2.9869,-2.9792,-2.9792,-2.9792,-2.9792,-2.9792,-2.9792,-2.9792,-2.9792,-2.9792,-2.9792,-2.9792,-2.9792,-2.9792,-2.9792,-2.9792,-2.9792,-2.9792,-2.9792,-2.9792,-2.9792,-2.9792,-2.9792,-2.9792,-2.9792,-2.9792,-2.9792,-2.9792,-2.9792,-2.9792,-2.9792,-2.9792,-2.974,-2.8688,-2.8215,-2.8136,-2.7046,-2.6005,-2.5031,-2.4872,-2.4125,-2.3222,-2.3135,-2.3091,-2.3091,-2.3091,-2.3091,-2.3169,-2.3613,-2.374,-2.3828,-2.4248,-2.4658,-2.493,-2.4473,-2.4687,-2.5067,-2.5067,-2.5352,-2.5635,-2.5635,-2.5664,-2.5693,-2.5693,-2.5693,-2.5693,-2.5693,-2.5693,-2.5693,-2.5693,0.0,0.0,-2.5693,-2.5693,-2.5693,-2.5693,-2.4609,-2.384,-2.384,-2.2717,-2.1397,-2.0033,-1.9834,-1.9169,-1.7838,-1.7635,-1.7582,-1.7582,-1.7582,-1.7582,-1.7582,-1.7582,-1.7582,-1.7582,-1.7582,-1.7582,-1.7582,-1.7582,-1.7582,-1.7582,-1.7582,-1.7582,-1.7582,-1.7582,-1.7582,-1.7582,-1.7582,-1.7582,-1.7582,-1.7582,-1.7582,-1.7582,-3.1278,-3.0733,-3.0203,-2.9856,-2.9792,-2.9792,-2.9792,-2.9792,-2.9792,-2.9792,-2.9792,-2.9792,-2.9792,-2.9792,-2.9792,-2.9792,-2.9792,-2.9792,-2.9792,-2.9792,-2.9792,-2.9792,-2.9792,-2.9792,-2.9792,-2.9792,-2.9792,-2.9792,-2.9792,-2.9792,-2.9792,-2.9792,-2.9792,-2.9792,-2.9792,-2.9404,-2.8727,-2.8295,-2.7735,-2.6994,-2.588,-2.521,-2.4702,-2.4006,-2.3464,-2.3091,-2.3091,-2.3091,-2.314,-2.3457,-2.3545,-2.3613,-2.4043,-2.418,-2.4268,-2.4697,-2.5137,-2.5449,-2.5235,-2.5361,-2.5478,-2.5478,-2.5605,-2.5693,-2.5693,-2.5693,-2.5693,-2.5693,-2.5693,-2.5693,-2.5693,-2.5693,-2.5693,-2.5693,0.0,-2.543,-2.4559,-2.4461,-2.4146,-2.3335,-2.2767,-2.2466,-2.2466,-2.2005,-2.1143,-1.9731,-1.9576,-1.9013,-1.7687,-1.7582,-1.7582,-1.7582,-1.7582,-1.7582,-1.7582,-1.7582,-1.7582,-1.7582,-1.7582,-1.7582,-1.7582,-1.7582,-1.7582,-1.7582,-1.7582,-1.7582,-1.7582,-1.7582,-1.7582,-1.7582,-1.7582,-1.7582,-1.7582,-1.7582,-1.7582,-1.7582,-3.0758,-3.0241,-2.9792,-2.9792,-2.9792,-2.9792,-2.9792,-2.9792,-2.9792,-2.9792,-2.9792,-2.9792,-2.9792,-2.9792,-2.9792,-2.9792,-2.9792,-2.9792,-2.9792,-2.9792,-2.9792,-2.9792,-2.9792,-2.9792,-2.9792,-2.9792,-2.9792,-2.9792,-2.9792,-2.9792,-2.9792,-2.9792,-2.9624,-2.9287,-2.9287,-2.8648,-2.7562,-2.7227,-2.6655,-2.5891,-2.4713,-2.4253,-2.4168,-2.3387,-2.3091,-2.311,-2.3247,-2.3305,-2.3408,-2.3848,-2.3984,-2.4062,-2.4482,-2.4717,-2.4893,-2.5185,-2.5498,-2.5693,-2.5693,-2.5693,-2.5693,-2.5693,-2.5693,-2.5693,-2.5693,-2.5693,-2.5693,-2.5693,-2.5693,-2.5693,-2.5693,-2.5693,-2.5693,-2.5693,-2.5333,-2.4766,-2.384,-2.3335,-2.2717,-2.1803,-2.1296,-2.1041,-2.1041,-2.0633,-2.0025,-1.9013,-1.8961,-1.8551,-1.7635,-1.7582,-1.7582,-1.7582,-1.7582,-1.7582,-1.7582,-1.7582,-1.7582,-1.7582,-1.7582,-1.7582,-1.7582,-1.7582,-1.7582,-1.7582,-1.7582,-1.7582,-1.7582,-1.7582,-1.7582,-1.7582,-1.7582,-1.7582,-1.7582,-1.7582,-1.7582,-1.7582,-2.9792,-2.9792,-2.9792,-2.9792,-2.9792,-2.9792,-2.9792,-2.9792,-2.9792,-2.9792,-2.9792,-2.9792,-2.9792,-2.9792,-2.9792,-2.9792,-2.9792,-2.9792,-2.9792,-2.9792,-2.9792,-2.9792,-2.9792,-2.9792,-2.9792,-2.9792,-2.9792,-2.9792,-2.9792,-2.9792,-2.9792,-2.9792,-2.9197,-2.8096,-2.8096,-2.7493,-2.6389,-2.5294,-2.4787,-2.4702,-2.3551,-2.3091,-2.3101,-2.3101,-2.3101,-2.3159,-2.3643,-2.3799,-2.3857,-2.4277,-2.4424,-2.4502,-2.4941,-2.5381,-2.5693,-2.5693,-2.5693,-2.5693,-2.5693,-2.5693,-2.5693,-2.5693,-2.5693,-2.5693,-2.5693,-2.5693,-2.5693,-2.5693,-2.5693,-2.5693,-2.5693,-2.5684,-2.5684,-2.5684,-2.4559,-2.3692,-2.3683,-2.2517,-2.1702,-2.1643,-2.0436,-1.9576,-1.9576,-1.8401,-1.7582,-1.7582,-1.7582,-1.7582,-1.7582,-1.7582,-1.7582,-1.7582,-1.7582,-1.7582,-1.7582,-1.7582,-1.7582,-1.7582,-1.7582,-1.7582,-1.7582,-1.7582,-1.7582,-1.7582,-1.7582,-1.7582,-1.7582,-1.7582,-1.7582,-1.7582,-1.7582,-1.7582,-1.7582,-1.7582,-1.7582,-1.7582,-2.9792,-2.9792,-2.9792,-2.9792,-2.9792,-2.9792,-2.9792,-2.9792,-2.9792,-2.9792,-2.9792,-2.9792,-2.9792,-2.9792,-2.9792,-2.9792,-2.9792,-2.9792,-2.9792,-2.9792,-2.9792,-2.9792,-2.9792,-2.9792,-2.9792,-2.9792,-2.9792,-2.9792,-2.9792,-2.9404,-2.8597,-2.8597,-2.8028,-2.6964,-2.6964,-2.6378,-2.5294,-2.4957,-2.4339,-2.3594,-2.3266,-2.3276,-2.3594,-2.3594,-2.3779,-2.4053,-2.418,-2.4228,-2.4297,-2.4727,-2.4873,-2.4951,-2.54,-2.5586,-2.5693,-2.5693,-2.5693,-2.5693,-2.5693,-2.5693,-2.5693,-2.5693,-2.5693,-2.5693,-2.5693,-2.5693,-2.5693,-2.5693,-2.5693,-2.5693,-2.5693,-2.4922,-2.4304,-2.4304,-2.3176,-2.1954,-2.0947,-2.0487,-1.9878,-1.8909,-1.8454,-1.8199,-1.8199,-1.7838,-1.7582,-1.7582,-1.7582,-1.7582,-1.7582,-1.7582,-1.7582,-1.7582,-1.7582,-1.7582,-1.7582,-1.7582,-1.7582,-1.7582,-1.7582,-1.7582,-1.7582,-1.7582,-1.7582,-1.7582,-1.7582,-1.7582,-1.7582,-1.7582,-1.7582,-1.7582,-1.7582,-1.7582,-1.7582,-1.7582,-1.6929,-1.6062,-2.9792,-2.9792,-2.9792,-2.9792,-2.9792,-2.9792,-2.9792,-2.9792,-2.9792,-2.9792,-2.9792,-2.9792,-2.9792,-2.9792,-2.9792,-2.9792,-2.9792,-2.9792,-2.9792,-2.9792,-2.9792,-2.9792,-2.9792,-2.9792,-2.9792,-2.9792,-2.9573,-2.9118,-2.9118,-2.8569,-2.7481,-2.7481,-2.6871,-2.585,-2.585,-2.5274,-2.44,-2.44,-2.4075,-2.3598,-2.3598,-2.3799,-2.4043,-2.4043,-2.4199,-2.4443,-2.4609,-2.4678,-2.4736,-2.5185,-2.5332,-2.5381,-2.5606,-2.5693,-2.5693,-2.5693,-2.5693,-2.5693,-2.5693,-2.5693,-2.5693,-2.5693,-2.5693,-2.5693,-2.5693,-2.5693,-2.5693,-2.5693,-2.5693,-2.5538,-2.502,-2.4254,-2.3534,-2.2976,-2.1752,-2.059,-1.9731,-1.9117,-1.8506,-1.7687,-1.7582,-1.7582,-1.7582,-1.7582,-1.7582,-1.7582,-1.7582,-1.7582,-1.7582,-1.7582,-1.7582,-1.7582,-1.7582,-1.7582,-1.7582,-1.7582,-1.7582,-1.7582,-1.7582,-1.7582,-1.7582,-1.7582,-1.7582,-1.7582,-1.7582,-1.7582,-1.7582,-1.7582,-1.7582,-1.7529,-1.6988,-1.6717,-1.6664,-1.6121,-1.531,-1.4556,-2.993,-2.993,-2.993,-2.993,-2.993,-2.993,-2.993,-2.993,-2.9917,-2.988,-2.9867,-2.9842,-2.9804,-2.9792,-2.9792,-2.9792,-2.9792,-2.9792,-2.9792,-2.9702,-2.9663,-2.9663,-2.9584,-2.9569,-2.9569,-2.961,-2.9157,-2.8096,-2.8004,-2.7424,-2.6415,-2.6415,-2.5801,-2.4742,-2.4742,-2.4438,-2.3848,-2.3848,-2.4072,-2.4414,-2.4414,-2.4443,-2.4473,-2.4473,-2.4492,-2.458,-2.499,-2.5127,-2.5195,-2.5596,-2.5693,-2.5693,-2.5693,-2.5693,-2.5693,-2.5693,-2.5635,-2.5528,-2.5528,-2.543,-2.5323,-2.5323,-2.5323,-2.543,-2.5635,-2.5586,-2.5528,-2.5528,-2.543,-2.4971,-2.3741,-2.3434,-2.2926,-2.1702,-2.0333,-1.942,-1.942,-1.8349,-1.7582,-1.7582,-1.7582,-1.7582,-1.7582,-1.7582,-1.7582,-1.7582,-1.7582,-1.7582,-1.7582,-1.7582,-1.7582,-1.7582,-1.7582,-1.7582,-1.7582,-1.7582,-1.7582,-1.7582,-1.7582,-1.7582,-1.7582,-1.7582,-1.7582,-1.7582,-1.7582,-1.7582,-1.7582,-1.7477,-1.7417,-1.7252,-1.5796,-1.5198,-1.5043,-1.375,-1.321,-1.3102,-3.1047,-3.1047,-3.1047,-3.1047,-3.1047,-3.1047,-3.1047,-3.1047,-3.0896,-3.0495,-3.0432,-3.0269,-2.9842,-2.9792,-2.9792,-2.9792,-2.9792,-2.9792,-2.9792,-2.8976,-2.8466,-2.8466,-2.7959,-2.7671,-2.7671,-2.8189,-2.8347,-2.8096,-2.725,-2.6412,-2.5646,-2.5646,-2.5236,-2.4485,-2.4485,-2.4408,-2.4277,-2.4277,-2.4336,-2.4414,-2.4414,-2.4619,-2.4969,-2.4969,-2.5146,-2.5411,-2.5508,-2.5596,-2.5557,-2.5654,-2.5693,-2.5693,-2.5693,-2.5693,-2.5693,-2.5693,-2.4971,-2.4146,-2.4146,-2.3384,-2.2567,-2.2567,-2.2567,-2.3126,-2.5226,-2.4873,-2.4146,-2.4146,-2.3276,-2.2466,-2.2206,-2.1245,-2.0392,-2.0084,-1.8909,-1.8042,-1.8042,-1.7786,-1.7582,-1.7582,-1.7582,-1.7582,-1.7582,-1.7582,-1.7582,-1.7582,-1.7582,-1.7582,-1.7582,-1.7582,-1.7582,-1.7582,-1.7582,-1.7582,-1.7582,-1.7582,-1.7582,-1.7582,-1.7582,-1.7582,-1.7582,-1.7582,-1.7582,-1.7582,-1.7582,-1.7582,-1.7523,-1.6333,-1.5902,-1.5743,-1.4288,-1.375,-1.3696,-1.3426,-1.2566,-1.1428,-3.1386,-3.1386,-3.1386,-3.1386,-3.1386,-3.1386,-3.1386,-3.1386,-3.1298,-3.1022,-3.0984,-3.0871,-3.0583,-3.0557,-3.0346,-2.9747,-2.9707,-2.9452,-2.8857,-2.8244,-2.79,-2.79,-2.7561,-2.7407,-2.7407,-2.7247,-2.7155,-2.7155,-2.6582,-2.5847,-2.4911,-2.4911,-2.4726,-2.4414,-2.4414,-2.4531,-2.4727,-2.4727,-2.4853,-2.5001,-2.5001,-2.5185,-2.5391,-2.5391,-2.5527,-2.5693,-2.5693,-2.5693,-2.5693,-2.5693,-2.5693,-2.5693,-2.5693,-2.5274,-2.4766,-2.4766,-2.3791,-2.2767,-2.2767,-2.2206,-2.1702,-2.1702,-2.1702,-2.2055,-2.3484,-2.3226,-2.2767,-2.2767,-2.2206,-2.1499,-2.0845,-2.0084,-1.9369,-1.876,-1.8042,-1.7582,-1.7582,-1.7582,-1.7582,-1.7582,-1.7582,-1.7582,-1.7582,-1.7582,-1.7582,-1.7582,-1.7582,-1.7582,-1.7582,-1.7582,-1.7582,-1.7582,-1.7582,-1.7582,-1.7582,-1.7582,-1.7582,-1.7582,-1.7582,-1.7582,-1.7582,-1.7582,-1.7199,-1.6552,-1.6552,-1.6174,-1.5476,-1.4716,-1.4395,-1.4234,-1.2832,-1.224,-1.2186,-1.1483,-1.0731,-0.9915,-3.1675,-3.1675,-3.1675,-3.1675,-3.1675,-3.1675,-3.1675,-3.1675,-3.1637,-3.1549,-3.1537,-3.1499,-3.1399,-3.121,-3.0692,-2.9707,-2.94,-2.8834,-2.7775,-2.7524,-2.7437,-2.7437,-2.7337,-2.7249,-2.7249,-2.6427,-2.6055,-2.6114,-2.5889,-2.5351,-2.4531,-2.4531,-2.457,-2.4639,-2.4639,-2.4844,-2.5185,-2.5185,-2.54,-2.5693,-2.5693,-2.5693,-2.5693,-2.5693,-2.5693,-2.5693,-2.5693,-2.5693,-2.5693,-2.5693,-2.5538,-2.5382,-2.5382,-2.4461,-2.3384,-2.3384,-2.2416,-2.1347,-2.1347,-2.1194,-2.099,-2.099,-2.099,-2.099,-2.099,-2.1194,-2.1347,-2.1347,-2.1143,-2.0633,-1.9472,-1.9272,-1.8916,-1.7786,-1.7582,-1.7582,-1.7582,-1.7582,-1.7582,-1.7582,-1.7582,-1.7582,-1.7582,-1.7582,-1.7582,-1.7582,-1.7582,-1.7582,-1.7582,-1.7582,-1.7582,-1.7582,-1.7582,-1.747,-1.7252,-1.747,-1.747,-1.7199,-1.7199,-1.7199,-1.7199,-1.7199,-1.6446,-1.5037,-1.5037,-1.4395,-1.327,-1.3048,-1.294,-1.2778,-1.1324,-1.0726,-1.0566,-0.9375,-0.8885,-0.8885,-3.2855,-3.2855,-3.2855,-3.2855,-3.2855,-3.2855,-3.2855,-3.2855,-3.2667,-3.2164,-3.2102,-3.1913,-3.1436,-3.0484,-2.9792,-2.9611,-2.8609,-2.7862,-2.7732,-2.6841,-2.6328,-2.6328,-2.5767,-2.5431,-2.5431,-2.5638,-2.5876,-2.6114,-2.5128,-2.4749,-2.5028,-2.5028,-2.5185,-2.5508,-2.5508,-2.5538,-2.5596,-2.5596,-2.5635,-2.5693,-2.5693,-2.5693,-2.5693,-2.5693,-2.5693,-2.5693,-2.5693,-2.5693,-2.5693,-2.5693,-2.4922,-2.3949,-2.3949,-2.3076,-2.1954,-2.1954,-2.0998,-1.9878,-1.9878,-1.9013,-1.814,-1.814,-1.814,-1.814,-1.814,-1.9065,-1.9878,-1.9878,-1.8961,-1.8094,-1.7891,-1.7891,-1.7786,-1.7635,-1.7582,-1.7582,-1.7582,-1.7582,-1.7582,-1.7582,-1.7582,-1.7582,-1.7582,-1.7582,-1.7582,-1.7582,-1.7582,-1.7582,-1.7582,-1.7582,-1.7582,-1.7582,-1.7582,-1.6988,-1.5689,-1.6982,-1.6982,-1.5689,-1.5689,-1.5689,-1.5689,-1.5689,-1.4931,-1.3588,-1.3588,-1.348,-1.321,-1.1919,-1.1378,-1.1269,-0.9754,-0.921,-0.9154,-0.8992,-0.8885,-0.8885,-3.3124,-3.3124,-3.3124,-3.3124,-3.3124,-3.3124,-3.3124,-3.3124,-3.298,-3.2729,-3.2692,-3.2604,-3.2365,-3.1247,-2.9954,-2.8578,-2.7945,-2.7317,-2.6646,-2.6154,-2.5893,-2.5893,-2.5571,-2.5439,-2.5439,-2.5586,-2.5778,-2.5893,-2.5384,-2.5254,-2.5439,-2.5439,-2.5547,-2.5693,-2.5693,-2.5693,-2.5693,-2.5693,-2.5693,-2.5693,-2.5693,-2.5693,-2.5693,-2.5693,-2.5693,-2.5693,-2.5693,-2.5693,-2.5586,-2.4815,-2.4196,-2.3583,-2.2818,-2.1651,-2.0538,-2.0538,-1.9576,-1.8506,-1.8506,-1.8042,-1.7582,-1.7582,-1.7582,-1.7582,-1.7582,-1.8042,-1.8506,-1.8506,-1.7989,-1.7582,-1.7582,-1.7582,-1.7582,-1.7582,-1.7582,-1.7582,-1.7582,-1.7582,-1.7582,-1.7582,-1.7582,-1.7582,-1.7582,-1.7582,-1.7582,-1.7582,-1.7582,-1.7582,-1.7582,-1.7582,-1.7199,-1.6393,-1.6393,-1.5689,-1.4234,-1.4883,-1.4883,-1.4234,-1.4234,-1.4663,-1.5364,-1.4609,-1.3426,-1.2082,-1.2082,-1.1592,-1.0781,-1.0131,-0.9864,-0.9805,-0.9154,-0.8885,-0.8885,-0.8885,-0.8885,-0.8885]},{"header":{"parameterUnit":"m.s-1","parameterCategory":1,"la1":30.6,"la2":28.766,"lo1":-90.7593,"lo2":-88.6598,"dy":0.0162,"dx":0.0183,"nx":116,"ny":114,"refTime":"2023-09-21T00:00:00:Z","depth":0,"parameterNumber":3,"parameterNumberName":"V-component_of_WINDS"},"data":[0.0,0.0,0.0,0.0,0.0,0.0,0.0,0.0,0.0,0.0,0.0,0.0,0.0,0.0,0.0,0.0,0.0,0.0,0.0,0.0,0.0,0.0,0.0,0.0,0.0,0.0,0.0,0.0,0.0,0.0,0.0,0.0,0.0,0.0,0.0,0.0,0.0,0.0,0.0,0.0,0.0,0.0,0.0,0.0,0.0,0.0,0.0,0.0,0.0,0.0,0.0,0.0,0.0,0.0,0.0,0.0,0.0,0.0,0.0,0.0,0.0,0.0,0.0,0.0,0.0,0.0,0.0,0.0,0.0,0.0,0.0,0.0,0.0,0.0,0.0,0.0,0.0,0.0,0.0,0.0,0.0,0.0,0.0,0.0,0.0,0.0,0.0,0.0,0.0,0.0,0.0,0.0,0.0,0.0,0.0,0.0,0.0,0.0,0.0,0.0,0.0,0.0,0.0,0.0,0.0,0.0,0.0,0.0,0.0,0.0,0.0,0.0,0.0,0.0,0.0,0.0,0.0,0.0,0.0,0.0,0.0,0.0,0.0,0.0,0.0,0.0,0.0,0.0,0.0,0.0,0.0,0.0,0.0,0.0,0.0,0.0,0.0,0.0,0.0,0.0,0.0,0.0,0.0,0.0,0.0,0.0,0.0,0.0,0.0,0.0,0.0,0.0,0.0,0.0,0.0,0.0,0.0,0.0,0.0,0.0,0.0,0.0,0.0,0.0,0.0,0.0,0.0,0.0,0.0,0.0,0.0,0.0,0.0,0.0,0.0,0.0,0.0,0.0,0.0,0.0,0.0,0.0,0.0,0.0,0.0,0.0,0.0,0.0,0.0,0.0,0.0,0.0,0.0,0.0,0.0,0.0,0.0,0.0,0.0,0.0,0.0,0.0,0.0,0.0,0.0,0.0,0.0,0.0,0.0,0.0,0.0,0.0,0.0,0.0,0.0,0.0,0.0,0.0,0.0,0.0,0.0,0.0,0.0,0.0,0.0,0.0,0.0,0.0,0.0,0.0,0.0,0.0,0.0,0.0,0.0,0.0,0.0,0.0,0.0,0.0,0.0,0.0,0.0,0.0,0.0,0.0,0.0,0.0,0.0,0.0,0.0,0.0,0.0,0.0,0.0,0.0,0.0,0.0,0.0,0.0,0.0,0.0,0.0,0.0,0.0,0.0,0.0,0.0,0.0,0.0,0.0,0.0,0.0,0.0,0.0,0.0,0.0,0.0,0.0,0.0,0.0,0.0,0.0,0.0,0.0,0.0,0.0,0.0,0.0,0.0,0.0,0.0,0.0,0.0,0.0,0.0,0.0,0.0,0.0,0.0,0.0,0.0,0.0,0.0,0.0,0.0,0.0,0.0,0.0,0.0,0.0,0.0,0.0,0.0,0.0,0.0,0.0,0.0,0.0,0.0,0.0,0.0,0.0,0.0,0.0,0.0,0.0,0.0,0.0,0.0,0.0,0.0,0.0,0.0,0.0,0.0,0.0,0.0,0.0,0.0,0.0,0.0,0.0,0.0,0.0,0.0,0.0,0.0,0.0,0.0,0.0,0.0,0.0,0.0,0.0,0.0,0.0,0.0,0.0,0.0,0.0,0.0,0.0,0.0,0.0,0.0,0.0,0.0,0.0,0.0,0.0,0.0,0.0,0.0,0.0,0.0,0.0,0.0,0.0,0.0,0.0,0.0,0.0,0.0,0.0,0.0,0.0,0.0,0.0,0.0,0.0,0.0,0.0,0.0,0.0,0.0,0.0,0.0,0.0,0.0,0.0,0.0,0.0,0.0,0.0,0.0,0.0,0.0,0.0,0.0,0.0,0.0,0.0,0.0,0.0,0.0,0.0,0.0,0.0,0.0,0.0,0.0,0.0,0.0,0.0,0.0,0.0,0.0,0.0,0.0,0.0,0.0,0.0,0.0,0.0,0.0,0.0,0.0,0.0,0.0,0.0,0.0,0.0,0.0,0.0,0.0,0.0,0.0,0.0,0.0,0.0,0.0,0.0,0.0,0.0,0.0,0.0,0.0,0.0,0.0,0.0,0.0,0.0,0.0,0.0,0.0,0.0,0.0,0.0,0.0,0.0,0.0,0.0,0.0,0.0,0.0,0.0,0.0,0.0,0.0,0.0,0.0,0.0,0.0,0.0,0.0,0.0,0.0,0.0,0.0,0.0,0.0,0.0,0.0,0.0,0.0,0.0,0.0,0.0,0.0,0.0,0.0,0.0,0.0,0.0,0.0,0.0,0.0,0.0,0.0,0.0,0.0,0.0,0.0,0.0,0.0,0.0,0.0,0.0,0.0,0.0,0.0,0.0,0.0,0.0,0.0,0.0,0.0,0.0,0.0,0.0,0.0,0.0,0.0,0.0,0.0,0.0,0.0,0.0,0.0,0.0,0.0,0.0,0.0,0.0,0.0,0.0,0.0,0.0,0.0,0.0,0.0,0.0,0.0,0.0,0.0,0.0,0.0,0.0,0.0,0.0,0.0,0.0,0.0,0.0,0.0,0.0,0.0,0.0,0.0,0.0,0.0,0.0,0.0,0.0,0.0,0.0,0.0,0.0,0.0,0.0,0.0,0.0,0.0,0.0,0.0,0.0,0.0,0.0,0.0,0.0,0.0,0.0,0.0,0.0,0.0,0.0,0.0,0.0,0.0,0.0,0.0,0.0,0.0,0.0,0.0,0.0,0.0,0.0,0.0,0.0,0.0,0.0,0.0,0.0,0.0,0.0,0.0,0.0,0.0,0.0,0.0,0.0,0.0,0.0,0.0,0.0,0.0,0.0,0.0,0.0,0.0,0.0,0.0,0.0,0.0,0.0,0.0,0.0,0.0,0.0,0.0,0.0,0.0,0.0,0.0,0.0,0.0,0.0,0.0,0.0,0.0,0.0,0.0,0.0,0.0,0.0,0.0,0.0,0.0,0.0,0.0,0.0,0.0,0.0,0.0,0.0,0.0,0.0,0.0,0.0,0.0,0.0,0.0,0.0,0.0,0.0,0.0,0.0,0.0,0.0,0.0,0.0,0.0,0.0,0.0,0.0,0.0,0.0,0.0,0.0,0.0,0.0,0.0,0.0,0.0,0.0,0.0,0.0,0.0,0.0,0.0,0.0,0.0,0.0,0.0,0.0,0.0,0.0,0.0,0.0,0.0,0.0,0.0,0.0,0.0,0.0,0.0,0.0,0.0,0.0,0.0,0.0,0.0,0.0,0.0,0.0,0.0,0.0,0.0,0.0,0.0,0.0,0.0,0.0,0.0,0.0,0.0,0.0,0.0,0.0,0.0,0.0,0.0,0.0,0.0,0.0,0.0,0.0,0.0,0.0,0.0,0.0,0.0,0.0,0.0,0.0,0.0,0.0,0.0,0.0,0.0,0.0,0.0,0.0,0.0,0.0,0.0,0.0,0.0,0.0,0.0,0.0,0.0,0.0,0.0,0.0,0.0,0.0,0.0,0.0,0.0,0.0,0.0,0.0,0.0,0.0,0.0,0.0,0.0,0.0,0.0,0.0,0.0,0.0,0.0,0.0,0.0,0.0,0.0,0.0,0.0,0.0,0.0,0.0,0.0,0.0,0.0,0.0,0.0,0.0,0.0,0.0,0.0,0.0,0.0,0.0,0.0,0.0,0.0,0.0,0.0,0.0,0.0,0.0,0.0,0.0,0.0,0.0,0.0,0.0,0.0,0.0,0.0,0.0,0.0,0.0,0.0,0.0,0.0,0.0,0.0,0.0,0.0,0.0,0.0,0.0,0.0,0.0,0.0,0.0,0.0,0.0,0.0,0.0,0.0,0.0,0.0,0.0,0.0,0.0,0.0,0.0,0.0,0.0,0.0,0.0,0.0,0.0,0.0,0.0,0.0,0.0,0.0,0.0,0.0,0.0,0.0,0.0,0.0,0.0,0.0,0.0,0.0,0.0,0.0,0.0,0.0,0.0,0.0,0.0,0.0,0.0,0.0,0.0,0.0,0.0,0.0,0.0,0.0,0.0,0.0,0.0,0.0,0.0,0.0,0.0,0.0,0.0,0.0,0.0,0.0,0.0,0.0,0.0,0.0,0.0,0.0,0.0,0.0,0.0,0.0,0.0,0.0,0.0,0.0,0.0,0.0,0.0,0.0,0.0,0.0,0.0,0.0,0.0,0.0,0.0,0.0,0.0,0.0,0.0,0.0,0.0,0.0,0.0,0.0,0.0,0.0,0.0,0.0,0.0,0.0,0.0,0.0,0.0,0.0,0.0,0.0,0.0,0.0,0.0,0.0,0.0,0.0,0.0,0.0,0.0,0.0,0.0,0.0,0.0,0.0,0.0,0.0,0.0,0.0,0.0,0.0,0.0,0.0,0.0,0.0,0.0,0.0,0.0,0.0,0.0,0.0,0.0,0.0,0.0,0.0,0.0,0.0,0.0,0.0,0.0,0.0,0.0,0.0,0.0,0.0,0.0,0.0,0.0,0.0,0.0,0.0,0.0,0.0,0.0,0.0,0.0,0.0,0.0,0.0,0.0,0.0,0.0,0.0,0.0,0.0,0.0,0.0,0.0,0.0,0.0,0.0,0.0,0.0,0.0,0.0,0.0,0.0,0.0,0.0,0.0,0.0,0.0,0.0,0.0,0.0,0.0,0.0,0.0,0.0,0.0,0.0,0.0,0.0,0.0,0.0,0.0,0.0,0.0,0.0,0.0,0.0,0.0,0.0,0.0,0.0,0.0,0.0,0.0,0.0,0.0,0.0,0.0,0.0,0.0,0.0,0.0,0.0,0.0,0.0,0.0,0.0,0.0,0.0,0.0,0.0,0.0,0.0,0.0,0.0,0.0,0.0,0.0,0.0,0.0,0.0,0.0,0.0,0.0,0.0,0.0,0.0,0.0,0.0,0.0,0.0,0.0,0.0,0.0,0.0,0.0,0.0,0.0,0.0,0.0,0.0,0.0,0.0,0.0,0.0,0.0,0.0,0.0,0.0,0.0,0.0,0.0,0.0,0.0,0.0,0.0,0.0,0.0,0.0,0.0,0.0,0.0,0.0,0.0,0.0,0.0,0.0,0.0,0.0,0.0,0.0,0.0,0.0,0.0,0.0,0.0,0.0,0.0,0.0,0.0,0.0,0.0,0.0,0.0,0.0,0.0,0.0,0.0,0.0,0.0,0.0,0.0,0.0,0.0,0.0,0.0,0.0,0.0,0.0,0.0,0.0,0.0,0.0,0.0,0.0,0.0,0.0,0.0,0.0,0.0,0.0,0.0,0.0,0.0,0.0,0.0,0.0,0.0,0.0,0.0,0.0,0.0,0.0,0.0,0.0,0.0,0.0,0.0,0.0,0.0,0.0,0.0,0.0,0.0,0.0,0.0,0.0,0.0,0.0,0.0,0.0,0.0,0.0,0.0,0.0,0.0,0.0,0.0,0.0,0.0,0.0,0.0,0.0,0.0,0.0,0.0,0.0,0.0,0.0,0.0,0.0,0.0,0.0,0.0,0.0,0.0,0.0,0.0,0.0,0.0,0.0,0.0,0.0,0.0,0.0,0.0,0.0,0.0,0.0,0.0,0.0,0.0,0.0,0.0,0.0,0.0,0.0,0.0,0.0,0.0,0.0,0.0,0.0,0.0,0.0,0.0,0.0,0.0,0.0,0.0,0.0,0.0,0.0,0.0,0.0,0.0,0.0,0.0,0.0,0.0,0.0,0.0,0.0,0.0,0.0,0.0,0.0,0.0,0.0,0.0,0.0,0.0,0.0,0.0,0.0,0.0,0.0,0.0,0.0,0.0,0.0,0.0,0.0,0.0,0.0,0.0,0.0,0.0,0.0,0.0,0.0,0.0,0.0,0.0,0.0,0.0,0.0,0.0,0.0,0.0,0.0,0.0,0.0,0.0,0.0,0.0,0.0,0.0,0.0,0.0,0.0,0.0,0.0,0.0,0.0,0.0,0.0,0.0,0.0,0.0,0.0,0.0,0.0,0.0,0.0,0.0,0.0,0.0,0.0,0.0,0.0,0.0,0.0,0.0,0.0,0.0,0.0,0.0,0.0,0.0,0.0,0.0,0.0,0.0,0.0,0.0,0.0,0.0,0.0,0.0,0.0,0.0,0.0,0.0,0.0,0.0,0.0,0.0,0.0,0.3295,0.0,0.0,0.0,0.0,0.0,0.0,0.0,0.0,0.0,0.0,0.0,0.0,0.0,0.0,0.0,0.0,0.0,0.0,0.0,0.0,0.0,0.0,0.0,0.0,0.0,0.0,0.0,0.0,0.0,0.0,0.0,0.0,0.0,0.0,0.0,0.0,0.0,0.0,0.0,0.3614,0.3321,0.2722,0.2796,0.3096,0.3614,0.0,0.0,0.0,0.0,0.0,0.0,0.0,0.0,0.0,0.0,0.0,0.0,0.0,0.0,0.0,0.0,0.0,0.0,0.0,0.0,0.0,0.0,0.0,0.0,0.0,0.0,0.0,0.0,0.0,0.0,0.0,0.0,0.0,0.0,0.0,0.0,0.0,0.0,0.0,0.0,0.0,0.0,0.0,0.0,0.0,0.0,0.0,0.0,0.0,0.0,0.0,0.0,0.0,0.0,0.0,0.0,0.0,0.0,0.0,0.0,0.0,0.0,0.0,0.0,0.0,0.0,0.0,0.0,0.0,0.0,0.0,0.4683,0.0,0.0,0.0,0.0,0.0,0.0,0.0,0.0,0.0,0.0,0.0,0.0,0.0,0.0,0.0,0.0,0.0,0.0,0.0,0.0,0.0,0.0,0.0,0.0,0.1478,0.1478,0.1478,0.1478,0.0,0.0,0.0,0.0,0.0,0.0,0.0,0.2963,0.2967,0.298,0.298,0.2461,0.1486,0.0473,0.1075,0.298,0.298,0.0,0.0,0.0,0.0,0.0,0.0,0.0,0.0,0.0,0.0,0.0,0.0,0.0,0.0,0.0,0.0,0.0,0.0,0.0,0.0,0.0,0.0,0.0,0.0,0.0,0.0,0.0,0.0,0.0,0.0,0.0,0.0,0.0,0.0,0.0,0.0,0.0,0.0,0.0,0.0,0.0,0.0,0.0,0.0,0.0,0.0,0.0,0.0,0.0,0.0,0.0,0.0,0.0,0.0,0.0,0.0,0.0,0.0,0.0,0.0,0.0,0.0,0.0,0.3687,0.3687,0.3687,0.39,0.4453,0.5219,0.5435,0.5984,0.6702,0.6729,0.0,0.0,0.0,0.0,0.0,0.0,0.0,0.0,0.0,0.0,0.0,0.0,0.0,0.0,0.0,0.0,0.0,0.0,0.0,0.0,0.0,0.0225,0.0225,0.0225,0.0225,0.0225,0.0225,0.0,0.0,0.0,0.0,0.0,0.046,0.046,0.0464,0.0473,0.0473,0.0379,0.0237,0.0095,0.019,0.0473,0.0473,0.1076,0.2025,0.0,0.0,0.0,0.0,0.0,0.0,0.0,0.0,0.0,0.0,0.0,0.0,0.0,0.0,0.0,0.0,0.0,0.0,0.0,0.0,0.0,0.0,0.0,0.0,0.0,0.0,0.0,0.0,0.0,0.0,0.0,0.0,0.0,0.0,0.0,0.0,0.0,0.0,0.0,0.0,0.0,0.6641,0.6641,0.0,0.0,0.0,0.0,0.0,0.0,0.0,0.0,0.0,0.0,0.0,0.0,0.0,0.3439,0.3549,0.3685,0.3811,0.3926,0.3926,0.3926,0.3973,0.5044,0.5601,0.5786,0.6821,0.0,0.6712,0.6844,0.0,0.0,0.0,0.0,0.0,0.0,0.0,0.0,0.0,0.0,0.0,0.0,0.0,0.0,0.0,0.0,0.0,0.0,0.0,0.0,0.0,0.0,0.0,0.0,0.0,0.0,0.0,0.0,0.0,0.0,0.0,0.0,0.0,0.0,0.0,0.0,0.0,0.0,0.0,0.0,0.0,0.0,0.0,0.0291,0.08,0.0807,0.0,0.0,0.0,0.0,0.0,0.0,0.0,0.0,0.0,0.0,0.0,0.0,0.0,0.0,0.0,0.0,0.0,0.0,0.0,0.0,0.0,0.0,0.0,0.0,0.0,0.0,0.0,0.0,0.0,0.0,0.0,0.0,0.0,0.0,0.0,0.0,0.0,0.0,0.0,0.6658,0.645,0.5779,0.6354,0.6356,0.0,0.0,0.0,0.0,0.0,0.0,0.0,0.0,0.0,0.3012,0.4185,0.4871,0.4913,0.5619,0.5974,0.6028,0.6028,0.6028,0.6028,0.6549,0.6832,0.6832,0.7359,0.7451,0.7204,0.7187,0.718,0.7173,0.0,0.0,0.0,0.0,0.7095,0.7183,0.0,0.0,0.0,0.0,0.0,0.0,0.0,0.0,0.0,0.0,0.0,0.0,0.0,0.0,0.0,0.0,0.0,0.0,0.0,0.0,0.0,0.0,0.0,0.0,0.0,0.0,0.0,0.0,0.0,0.0,0.0,0.0,0.0,0.0,0.0,0.0,0.0,0.0,0.0,0.0,0.0,0.0,0.0,0.0,0.0,0.0,0.0,0.0,0.0,0.0,0.0,0.0,0.0,0.0,0.0,0.0,0.0,0.0,0.0,0.0,0.0,0.0,0.0,0.0,0.0,0.0,0.0,0.0,0.0,0.0,0.0,0.0,0.0,0.0,0.0,0.0,0.0,0.679,0.6473,0.558,0.6352,0.6514,0.0,0.0,0.0,0.0,0.0,0.0,0.5196,0.464,0.4346,0.4458,0.5645,0.6275,0.6306,0.7219,0.7675,0.7712,0.7712,0.7712,0.7712,0.7712,0.7712,0.7712,0.7712,0.7712,0.7699,0.7509,0.7431,0.7417,0.7302,0.7213,0.7213,0.7213,0.7431,0.7737,0.0,0.0,0.0,0.0,0.0,0.0,0.0,0.0,0.0,0.0,0.0,0.0,0.0,0.0,0.0,0.0,0.0,0.0,0.0,0.0,0.0,0.0,0.0,0.0,0.0,0.0,0.0,0.0,0.0,0.0,0.0,0.0,0.0,0.0,0.0,0.0,0.0,0.0,0.0,0.0,0.0,0.0,0.0,0.0,0.0,0.0,0.0,0.0,0.0,0.0,0.0,0.0,0.0,0.0,0.0,0.0,0.0,0.0,0.0,0.0,0.0,0.0,0.0,0.0,0.0,0.0,0.0,0.0,0.0,0.0,0.0,0.0,0.0,0.0,0.0,0.0,0.0,0.0,0.0,0.6983,0.7037,0.0,0.0,0.0,0.0,0.4254,0.4118,0.4073,0.4076,0.5115,0.5682,0.569,0.6882,0.7567,0.7701,0.7752,0.7875,0.7968,0.7968,0.7968,0.7968,0.7968,0.7968,0.7968,0.7968,0.7968,0.7944,0.7706,0.7587,0.7587,0.758,0.7577,0.7577,0.7577,0.8353,0.9536,0.0,0.0,0.0,0.0,0.0,0.0,0.0,0.0,0.0,0.0,0.0,0.0,0.0,0.0,0.0,0.0,0.0,0.0,0.0,0.0,0.0,0.0,0.0,0.0,0.0,0.0,0.0,0.0,0.0,0.0,0.0,0.0,0.0,0.0,0.0,0.0,0.0,0.0,0.0,0.0,0.0,0.0,0.0,0.0,0.0,0.0,0.0,0.0,0.0,0.0,0.0,0.0,0.0,0.0,0.0,0.0,0.0,0.0,0.0,0.0,0.0,0.0,0.0,0.0,0.0,0.0,0.0,0.0,0.0,0.0,0.0,0.0,0.0,0.0,0.0,0.0,0.0,0.0,0.0,0.6243,0.6913,0.0,0.5815,0.6432,0.6739,0.6358,0.6314,0.6345,0.6421,0.6858,0.7185,0.7419,0.7829,0.8099,0.8241,0.8245,0.8269,0.8323,0.8323,0.8323,0.8323,0.8323,0.8323,0.8323,0.8323,0.8272,0.818,0.8075,0.7913,0.7726,0.7634,0.76,0.76,0.76,0.7875,0.8333,0.0,0.0,0.0,0.0,0.0,0.0,0.0,0.0,0.0,0.0,0.0,0.0,0.0,0.0,0.0,0.0,0.0,0.0,0.0,0.0,0.0,0.0,0.0,0.0,0.0,0.0,0.0,0.0,0.0,0.0,0.0,0.0,0.0,0.0,0.0,0.0,0.0,0.0,0.0,0.0,0.0,0.0,0.0,0.0,0.0,0.0,0.0,0.0,0.0,0.0,0.0,0.0,0.0,0.0,0.0,0.0,0.0,0.0,0.0,0.0,0.0,0.0,0.0,0.0,0.0,0.0,0.0,0.0,0.0,0.0,0.0,0.0,0.0,0.0,0.0,0.0,0.0,0.0,0.7168,0.6377,0.7066,0.7281,0.6555,0.7187,0.7692,0.7743,0.7797,0.7865,0.796,0.8011,0.813,0.8336,0.8391,0.8387,0.8479,0.8482,0.8482,0.8482,0.8482,0.8482,0.8482,0.8482,0.8482,0.8482,0.8482,0.8428,0.8391,0.8391,0.8221,0.8018,0.7824,0.7746,0.7746,0.7746,0.8313,0.9163,0.0,0.0,0.0,0.0,0.0,0.0,0.0,0.0,0.0,0.0,0.0,0.0,0.0,0.0,0.0,0.0,0.0,0.0,0.0,0.0,0.0,0.0,0.0,0.0,0.0,0.0,0.0,0.0,0.0,0.0,0.0,0.0,0.0,0.0,0.0,0.0,0.0,0.0,0.0,0.0,0.0,0.0,0.0,0.0,0.0,0.0,0.0,0.0,0.0,0.0,0.0,0.0,0.0,0.0,0.0,0.0,0.0,0.0,0.0,0.0,0.0,0.0,0.0,0.0,0.0,0.0,0.0,0.0,0.0,0.0,0.0,0.0,0.0,0.0,0.0,0.0,0.76,0.7604,0.7607,0.7607,0.7611,0.7668,0.7811,0.7824,0.7889,0.7992,0.8191,0.833,0.833,0.8408,0.8482,0.8489,0.8489,0.8489,0.8496,0.8496,0.8496,0.8496,0.8496,0.8496,0.8496,0.8496,0.8496,0.8496,0.8496,0.8492,0.8489,0.8489,0.8486,0.8455,0.8163,0.8052,0.8045,0.8045,0.9706,1.2237,0.0,0.0,0.0,0.0,0.0,0.0,0.0,0.0,0.0,0.0,0.0,0.0,0.0,0.0,0.0,0.0,0.0,0.0,0.0,0.0,0.0,0.0,0.0,0.0,0.0,0.0,0.0,0.0,0.0,0.0,0.0,0.0,0.0,0.0,0.0,0.0,0.0,0.0,0.0,0.0,0.0,0.0,0.0,0.0,0.0,0.0,0.0,0.0,0.0,0.0,0.0,0.0,0.0,0.0,0.0,0.0,0.0,0.0,0.0,0.0,0.0,0.0,0.0,0.0,0.0,0.0,0.0,0.0,0.0,0.0,0.0,0.0,0.0,0.0,0.0,0.7719,0.7614,0.7689,0.7753,0.7753,0.7851,0.7977,0.813,0.8147,0.8204,0.835,0.8397,0.8425,0.8425,0.8462,0.8533,0.8645,0.8648,0.8703,0.8811,0.8815,0.8815,0.8815,0.8815,0.8815,0.8815,0.8815,0.8815,0.8815,0.8815,0.875,0.8648,0.8648,0.8581,0.8472,0.8391,0.8849,0.9589,0.9589,1.055,1.1994,0.0,0.0,0.0,0.0,0.0,0.0,0.0,0.0,0.0,0.0,0.0,0.0,0.0,0.0,0.0,0.0,0.0,0.0,0.0,0.0,0.0,0.0,0.0,0.0,0.0,0.0,0.0,0.0,0.0,0.0,0.0,0.0,0.0,0.0,0.0,0.0,0.0,0.0,0.0,0.0,0.0,0.0,0.0,0.0,0.0857,0.201,0.189,0.2709,0.3903,0.4628,0.0,0.0,0.0,0.0,0.0,0.0,0.0,0.0,0.0,0.0,0.0,0.0,0.0,0.0,0.0,0.0,0.0,0.0,0.0,0.0,0.0,0.0,0.0,0.0,0.7906,0.7902,0.7885,0.7896,0.7929,0.7997,0.8082,0.8194,0.8343,0.836,0.8394,0.8476,0.854,0.8577,0.8577,0.8638,0.8713,0.8804,0.8804,0.8794,0.8885,0.8885,0.8885,0.8885,0.8885,0.8885,0.8885,0.8885,0.8885,0.8885,0.8885,0.8834,0.8804,0.8804,0.9125,0.0,0.0,0.0,0.0,0.0,1.1914,1.3013,0.0,0.0,0.0,0.0,0.0,0.0,0.0,0.0,0.0,0.0,0.0,0.0,0.0,0.0,0.0,0.0,0.0,0.0,0.0,0.0,0.0,0.0,0.0,0.0,0.0,0.0,0.0,0.0,0.0,0.0,0.0,0.0,0.0,0.0,0.0,0.0,0.0,0.0,0.0,0.0,0.0,0.0,0.0,0.0,0.0756,0.1762,0.1762,0.244,0.3434,0.3726,0.0,0.0,0.0,0.0,0.0,0.0,0.0,0.0,0.0,0.0,0.0,0.0,0.0,0.0,0.0,0.0,0.0,0.0,0.0,0.0,0.0,0.0,0.0,0.0,0.8005,0.8113,0.8252,0.8167,0.814,0.8279,0.8347,0.835,0.8492,0.8509,0.8516,0.8533,0.8659,0.8737,0.8737,0.0,0.0,0.0,0.0,0.8885,0.8885,0.8885,0.8885,0.8885,0.8885,0.8885,0.8885,0.8885,0.8885,0.8885,0.8885,0.8992,0.9154,0.9154,1.0025,1.1235,0.9773,0.9231,0.9541,1.2145,1.3685,1.4752,0.0,0.0,0.0,0.0,0.0,0.0,0.0,0.0,0.0,0.0,0.0,0.0,0.0,0.0,0.0,0.0,0.0,0.0,0.0,0.0,0.0,0.0,0.0,0.0,0.0,0.0,0.0,0.0,0.0,0.0,0.0,0.0,0.0,0.0,0.0,0.0,0.0,0.0,0.0,0.0,0.0,0.0,0.0,0.0,0.0151,0.0404,0.0404,0.0554,0.1053,0.3249,0.4134,0.4666,0.6854,0.7704,0.0,0.0,0.0,0.0,0.0,0.0,0.0,0.0,0.0,0.0,0.0,0.0,0.0,0.0,0.0,0.0,0.0,0.0,0.0,0.7988,0.8143,0.8238,0.832,0.8343,0.8408,0.8438,0.8442,0.8503,0.8652,0.8665,0.8716,0.8842,0.8821,0.8841,0.8841,0.8868,0.8885,0.8885,0.8885,0.8885,0.8885,0.8885,0.8885,0.8885,0.0,0.0,0.8885,0.8885,0.8885,0.8885,0.8885,0.9592,1.0676,1.0676,1.1538,1.2916,1.3499,1.3753,1.394,1.5391,1.6053,1.6264,0.0,0.0,0.0,0.0,0.0,0.0,0.0,0.0,0.0,0.0,0.0,0.0,0.0,0.0,0.0,0.0,0.0,0.0,0.0,0.0,0.0,0.0,0.0,0.0,0.0,0.0,0.0,0.0,0.0,0.0,0.0,0.0,0.0,0.0,0.0,0.0,0.0,0.0,0.0404,0.1008,0.1008,0.141,0.1862,0.0504,0.0,0.0101,0.0756,0.1008,0.131,0.3316,0.4468,0.5222,0.6578,0.7434,0.7988,0.0,0.0,0.0,0.0,0.0,0.0,0.0,0.0,0.0,0.0,0.0,0.0,0.0,0.0,0.7988,0.0,0.0,0.8015,0.8143,0.8221,0.8323,0.8469,0.8554,0.8598,0.8598,0.8598,0.8655,0.8811,0.8825,0.8801,0.8878,0.8885,0.8885,0.8885,0.8885,0.8885,0.8885,0.8885,0.8885,0.8885,0.8885,0.8885,0.8885,0.9011,0.9045,0.9049,0.9123,0.9606,1.0333,1.0333,1.122,1.2645,1.3257,1.3923,1.4717,1.5864,1.5866,1.5264,1.5817,1.642,1.6927,0.0,0.0,0.0,0.0,0.0,0.0,0.0,0.0,0.0,0.0,0.0,0.0,0.0,0.0,0.0,0.0,0.0,0.0,0.0,0.0,0.0,0.0,0.0,0.0,0.0,0.0,0.0,0.0,0.0,0.0,0.0,0.0,0.0,0.0,0.0,0.0151,0.0404,0.0404,0.1159,0.2413,0.2413,0.3015,0.3765,0.1611,0.0756,0.0907,0.2013,0.2413,0.2614,0.3917,0.5122,0.6029,0.6331,0.7135,0.7988,0.7988,0.7988,0.0,0.0,0.0,0.0,0.0,0.0,0.0,0.0,0.0,0.7988,0.7988,0.7988,0.7998,0.8029,0.8032,0.8133,0.8286,0.8336,0.8438,0.8676,0.8737,0.8754,0.8754,0.8754,0.8804,0.8871,0.8885,0.8885,0.8885,0.8885,0.8885,0.8885,0.8885,0.8885,0.8885,0.8885,0.8885,0.8885,0.8912,0.8981,0.8981,0.9127,0.9422,0.9706,0.9838,1.0755,1.2232,1.2575,1.3364,1.4641,1.5908,1.6387,1.6466,1.7349,1.6966,1.5928,1.5867,1.6466,1.7286,0.0,0.0,0.0,0.0,0.0,0.0,0.0,0.0,0.0,0.0,0.0,0.0,0.0,0.0,0.0,0.0,0.0,0.0,0.0,0.0,0.0,0.0,0.0,0.0,0.0,0.0,0.0,0.0,0.0,0.0,0.0,0.0,0.0,0.0,0.0,0.0656,0.1762,0.1762,0.2564,0.3765,0.3765,0.3865,0.3966,0.3665,0.3565,0.3565,0.3715,0.3765,0.3966,0.5325,0.5879,0.6229,0.7385,0.7889,0.7988,0.7988,0.0,0.7988,0.7988,0.7988,0.0,0.7988,0.7988,0.7988,0.0,0.0,0.7988,0.7988,0.7988,0.8032,0.8218,0.8245,0.8292,0.8435,0.8574,0.8672,0.8706,0.8828,0.8858,0.8858,0.8858,0.8865,0.8881,0.8885,0.8885,0.8885,0.8885,0.8885,0.8885,0.8885,0.8885,0.8885,0.8885,0.8885,0.8885,0.9066,0.9187,0.9187,0.9283,1.0156,1.1523,1.1544,1.2404,1.3922,1.5226,1.5906,1.6181,1.7593,1.8209,1.8183,1.8001,1.7828,1.7687,1.7463,1.745,1.7535,0.0,0.0,0.0,0.0,0.0,0.0,0.0,0.0,0.0,0.0,0.0,0.0,0.0,0.0,0.0,0.0,0.0,0.0,0.0,0.0,0.0,0.0,0.0,0.0,0.0,0.0,0.0,0.0,0.0,0.0,0.0,0.0,0.0,0.0,0.0,0.0303,0.0907,0.1661,0.2765,0.4066,0.487,0.5625,0.6326,0.6326,0.6326,0.6224,0.5422,0.5172,0.0,0.6731,0.7182,0.7285,0.7839,0.7988,0.7988,0.7988,0.7988,0.0,0.7988,0.0,0.0,0.0,0.7988,0.7988,0.7988,0.7988,0.7988,0.7988,0.8109,0.8194,0.831,0.8388,0.8442,0.0,0.8669,0.8743,0.8832,0.8844,0.8885,0.8885,0.8885,0.8885,0.8885,0.8885,0.8885,0.8885,0.8885,0.8885,0.8885,0.8885,0.8977,0.9059,0.9062,0.9106,0.9195,0.9256,0.9344,0.9344,1.0411,1.1241,1.194,1.2988,1.4263,1.5883,1.7404,1.811,1.8154,1.8579,1.8744,1.8711,1.8417,1.8142,1.7955,1.7695,1.7582,1.7582,0.0,0.0,0.0,0.0,0.0,0.0,0.0,0.0,0.0,0.0,0.0,0.0,0.0,0.0,0.0,0.0,0.0,0.0,0.0,0.0,0.0,0.0,0.0,0.0,0.0,0.0,0.0,0.0,0.0,0.0,0.0,0.0,0.0,0.0,0.0,0.0202,0.0605,0.1611,0.2765,0.4116,0.5475,0.6581,0.7487,0.7839,0.7988,0.7889,0.6883,0.6531,0.6681,0.7686,0.7988,0.7988,0.7988,0.7988,0.7988,0.7988,0.7988,0.7988,0.7988,0.0,0.0,0.7988,0.7988,0.7988,0.7988,0.7988,0.7988,0.7988,0.813,0.8231,0.8316,0.8414,0.8547,0.8743,0.8774,0.8811,0.8868,0.8885,0.8885,0.8885,0.8885,0.8885,0.8885,0.8885,0.8885,0.8885,0.8885,0.8902,0.8994,0.8998,0.9066,0.9268,0.9272,0.9326,0.9381,0.9422,0.9445,0.9445,1.0757,1.1832,1.2777,1.4942,1.6562,1.7747,1.8887,1.9424,1.941,1.9132,1.9045,1.9018,1.8724,1.843,1.8075,1.7822,1.7655,1.7582,0.0,0.0,0.0,0.0,0.0,0.0,0.0,0.0,0.0,0.0,0.0,0.0,0.0,0.0,0.0,0.0,0.0,0.0,0.0,0.0,0.0,0.0,0.0,0.0,0.0,0.0,0.0,0.0,0.0,0.0,0.0,0.0,0.0,0.0,0.0,0.0706,0.1963,0.1963,0.2765,0.4116,0.5475,0.6029,0.6179,0.7487,0.7988,0.7988,0.7939,0.7939,0.7939,0.7988,0.7988,0.7988,0.7988,0.7988,0.0,0.7988,0.7988,0.7988,0.0,0.0,0.7988,0.7988,0.7988,0.7988,0.7988,0.7988,0.7988,0.7988,0.7992,0.8086,0.8421,0.8479,0.8581,0.8828,0.8875,0.8878,0.8885,0.8885,0.8885,0.8885,0.8885,0.8885,0.0,0.8885,0.8885,0.8885,0.8885,0.8998,0.9193,0.9204,0.9272,0.9367,0.9374,0.9374,0.9381,0.953,0.9602,0.9605,0.9804,1.1487,1.4653,1.7812,1.9307,1.9307,1.9366,1.9424,1.9424,1.9417,1.9352,1.9325,1.9025,1.8731,1.8444,1.8089,1.7842,1.7582,0.0,0.0,0.0,0.0,0.0,0.0,0.0,0.0,0.0,0.0,0.0,0.0,0.0,0.0,0.0,0.0,0.0,0.0,0.0,0.0,0.0,0.0,0.0,0.0,0.0,0.0,0.0,0.0,0.0,0.0,0.0,0.0,0.0,0.0,0.0,0.0252,0.0756,0.1611,0.2264,0.2815,0.4117,0.5222,0.6029,0.6481,0.7235,0.7988,0.0,0.7988,0.7988,0.7988,0.7988,0.7988,0.7988,0.7988,0.7988,0.7988,0.7988,0.7988,0.7988,0.0,0.8194,0.8194,0.8262,0.8309,0.8214,0.8194,0.8163,0.8012,0.8123,0.8221,0.8323,0.8503,0.8665,0.8771,0.8817,0.8885,0.8885,0.8885,0.8885,0.8885,0.8885,0.0,0.0,0.0,0.0,0.8885,0.9025,0.91,0.9207,0.9306,0.9374,0.953,0.9534,0.9578,0.9673,0.9724,0.9751,0.9751,1.1947,1.4658,1.7812,1.8887,1.9424,1.9424,1.9424,1.9424,1.9424,1.9424,1.9424,1.9417,1.9259,1.9038,1.8744,1.845,1.815,1.7862,0.0,0.0,0.0,0.0,0.0,0.0,0.0,0.0,0.0,0.0,0.0,0.0,0.0,0.0,0.0,0.0,0.0,0.0,0.0,0.0,0.0,0.0,0.0,0.0,0.0,0.0,0.0,0.0,0.0,0.0,0.0,0.0,0.0,0.0,0.0,0.0,0.005,0.0907,0.131,0.141,0.2765,0.4067,0.5322,0.5827,0.6833,0.0,0.7988,0.7988,0.7988,0.7988,0.7988,0.7988,0.7988,0.7988,0.7988,0.7988,0.7988,0.8002,0.8106,0.8194,0.8333,0.8333,0.8377,0.8384,0.8344,0.8228,0.816,0.8012,0.8119,0.8204,0.831,0.8425,0.8587,0.8693,0.8794,0.8821,0.8875,0.8885,0.8885,0.8885,0.8885,0.0,0.0,0.0,0.0,0.9011,0.91,0.9258,0.931,0.9408,0.953,0.968,0.9686,0.9968,1.0657,1.066,1.0959,1.1555,1.4178,1.6562,1.8583,1.9127,1.9424,1.9424,1.9424,1.9424,1.9424,1.9424,1.9424,1.9424,1.9424,1.9185,1.8885,1.8597,1.8303,1.7949,0.0,0.0,0.0,0.0,0.0,0.0,0.0,0.0,0.0,0.0,0.0,0.0,0.0,0.0,0.0,0.0,0.0,0.0,0.0,0.0,0.0,0.0,0.0,0.0,0.0,0.0,0.0,0.0,0.0,0.0,0.0,0.0,0.0,0.0,0.0,0.0,0.0,0.0,0.0,0.0101,0.136,0.2765,0.4116,0.5425,0.6781,0.7988,0.7988,0.7988,0.7988,0.7988,0.0,0.0,0.7988,0.7988,0.7988,0.7988,0.7995,0.8032,0.8231,0.8333,0.8378,0.8462,0.8391,0.8344,0.8333,0.8163,0.7998,0.7992,0.7988,0.8032,0.0,0.0,0.8364,0.8642,0.8699,0.876,0.8851,0.8878,0.8937,0.0,0.0,0.0,0.0,0.0,0.0,0.921,0.0,0.9354,0.9595,0.9675,0.9799,0.9937,1.0001,1.0781,1.2333,1.2333,1.3112,1.4723,1.6256,1.7026,1.7144,1.87,1.9424,1.9424,1.9424,1.9424,1.9424,1.9424,1.9424,1.9424,1.9424,1.9192,1.8911,1.8617,1.8323,1.7975,0.0,0.0,0.0,0.0,0.0,0.0,0.0,0.0,0.0,0.0,0.0,0.0,0.0,0.0,0.0,0.0,0.0,0.0,0.0,0.0,0.0,0.0,0.0,0.0,0.0,0.0,0.0,0.0,0.0,0.0,0.0,0.0,0.0,0.0,0.0,0.0,0.0,0.0,0.0,0.0051,0.0353,0.1913,0.4016,0.4368,0.5974,0.7988,0.7988,0.7988,0.0,0.0,0.0,0.0,0.0,0.7988,0.7988,0.7988,0.8123,0.8221,0.831,0.8431,0.8608,0.8645,0.8625,0.8567,0.8455,0.8316,0.8177,0.8012,0.7988,0.8002,0.0,0.0,0.0,0.837,0.8567,0.0,0.8764,0.8811,0.0,0.0,0.0,0.9316,1.0457,0.9694,0.0,0.0,0.9323,0.9408,0.9598,1.0834,1.1571,1.1615,1.2753,1.3591,1.4004,1.4004,1.4777,1.6374,1.6791,1.7624,1.8823,1.9185,1.9424,1.9424,1.9424,1.9424,1.9424,1.9424,1.9424,1.9424,1.9424,1.9377,1.9219,1.8925,1.8624,1.8337,0.0,0.0,0.0,0.0,0.0,0.0,0.0,0.0,0.0,0.0,0.0,0.0,0.0,0.0,0.0,0.0,0.0,0.0,0.0,0.0,0.0,0.0,0.0,0.0252,0.0857,0.0303,0.0303,0.0857,0.0303,0.0,0.0,0.0,0.0,0.0,0.0,0.0,0.0,0.0,0.0,0.0,0.0,0.1611,0.4016,0.4016,0.5672,0.7988,0.7988,0.0,0.0,0.0,0.0,0.7988,0.7988,0.7988,0.7988,0.7988,0.0,0.8337,0.8347,0.8533,0.871,0.871,0.8659,0.857,0.8425,0.8275,0.8143,0.8008,0.8092,0.0,0.0,0.0,0.0,0.0,0.0,0.0,0.8693,0.932,0.9887,0.0,0.997,0.0,1.0996,1.0556,1.0504,0.0,1.0875,1.059,1.0759,1.2341,1.3232,1.3232,1.4128,1.4955,1.5666,1.6326,1.7155,1.8046,1.8046,1.8525,1.9424,1.9424,1.9424,1.9424,0.0,1.9424,1.9424,1.9424,1.9424,1.9424,1.9424,1.9424,1.939,1.9032,1.8738,1.8444,0.0,0.0,0.0,0.0,0.0,0.0,0.0,0.0,0.0,0.0,0.0,0.0,0.0,0.0,0.0,0.0,0.0,0.0,0.0,0.0,0.0555,0.0555,0.0555,0.1058,0.2264,0.1109,0.1109,0.2264,0.0907,0.0252,0.0252,0.0101,0.0,0.0,0.0,0.0,0.0,0.0,0.0,0.0,0.0,0.1611,0.4016,0.0,0.5672,0.7988,0.0,0.0,0.0,0.0,0.7988,0.7988,0.7988,0.7988,0.7988,0.7988,0.8163,0.8378,0.8448,0.8608,0.8733,0.8716,0.8594,0.8445,0.8354,0.815,0.7995,0.8015,0.0,0.8327,0.8347,0.0,0.8385,0.8435,0.0,0.8387,0.8645,0.9964,1.0469,0.9354,1.0296,1.116,1.1378,1.1436,1.2127,1.3798,1.3096,1.26,1.2504,1.4063,1.502,1.5257,1.5257,1.5908,1.7325,1.87,1.9424,1.9424,1.9424,1.9424,1.9424,1.9424,1.9424,1.9424,1.9424,0.0,1.9424,1.9424,1.9424,1.9424,1.9424,1.9424,1.9339,1.9078,1.8771,1.8457,0.0,0.0,0.0,0.0,0.0,0.0,0.0,0.0,0.0,0.0,0.2103,0.1483,0.0,0.0,0.0,0.0,0.0,0.0,0.0,0.0,0.0,0.3316,0.3316,0.3416,0.3667,0.3416,0.3416,0.3665,0.2314,0.1661,0.1611,0.0504,0.0,0.0,0.0,0.0,0.0,0.0,0.0,0.0,0.0,0.1611,0.4016,0.4016,0.0,0.0,0.0,0.0,0.0,0.0,0.7988,0.7988,0.7988,0.7988,0.7988,0.7988,0.8231,0.8452,0.8476,0.8686,0.8814,0.8743,0.8594,0.8445,0.8354,0.815,0.0,0.0,0.0,0.8357,0.8425,0.8445,0.0,0.8374,0.0,0.0,0.0,0.0,1.084,0.0,0.0,0.0,0.0,0.0,0.0,0.0,0.0,1.5289,1.4232,1.5725,1.7208,1.8532,1.859,1.8706,1.9004,1.9243,1.9424,1.9424,1.9424,1.9424,1.9424,1.9424,1.9424,1.9424,1.9424,0.0,1.9424,1.9424,1.9424,1.9424,1.9424,1.9424,1.9417,1.9305,1.8951,1.8484,0.0,0.0,0.0,0.0,0.0,0.0,0.0,0.6293,0.6068,0.5487,0.4406,0.3421,0.2804,0.2219,0.0,0.0,0.0,0.0,0.0,0.0,0.0,0.0,0.0,0.0,0.502,0.4368,0.0,0.0,0.0,0.2665,0.1963,0.0,0.0,0.0,0.0,0.0,0.0051,0.0756,0.0656,0.005,0.0756,0.1812,0.0,0.0,0.0,0.0,0.0,0.0,0.0,0.0,0.7988,0.7988,0.7988,0.7988,0.7988,0.7988,0.8197,0.8374,0.8374,0.8533,0.8665,0.852,0.8425,0.8333,0.8184,0.0,0.0,0.0,0.8988,0.9605,0.9719,0.0,0.0,0.0,0.0,0.0,0.0,0.0,0.0,0.0,0.0,0.0,0.0,0.0,0.0,0.0,0.0,1.7165,1.5891,1.739,1.8583,1.9366,1.9424,1.9424,1.9424,1.9424,1.9424,1.9424,1.9424,1.9424,1.9424,1.9424,1.9424,1.9424,1.9424,0.0,1.9424,1.9424,1.9424,1.9424,1.9424,1.9424,1.9424,1.9424,1.8998,1.849,0.0,0.0,0.0,0.0,0.0,0.0,0.0,0.7095,0.7095,0.7095,0.6337,0.5389,0.4472,0.3898,0.3702,0.0,0.0,0.0,0.0,0.0,0.0,0.0,0.0,0.0,0.0,0.0,0.0,0.0,0.0,0.0,0.0,0.0,0.0,0.0,0.0,0.0,0.01,0.1452,0.1405,0.0,0.0,0.0,0.0,0.0,0.0,0.0,0.0,0.0,0.0,0.0,0.7988,0.7988,0.7988,0.7988,0.7988,0.7988,0.815,0.8323,0.8323,0.8374,0.8448,0.8357,0.8323,0.8231,0.8025,0.7988,0.0,0.0,0.9832,1.0871,1.1318,0.0,0.0,0.0,0.0,0.0,0.0,0.0,0.0,0.0,0.0,0.0,0.0,0.0,0.0,0.0,0.0,0.0,1.7547,1.8706,1.9424,1.9424,1.9424,1.9424,1.9424,1.9424,1.9424,1.9424,1.9424,1.9424,1.9424,1.9424,1.9424,1.9424,1.9424,0.0,0.0,1.9424,1.9424,1.9424,1.9424,1.9424,1.9417,1.9299,1.8938,1.8484,0.0,0.0,0.0,0.0,0.0,0.0,0.0,0.7095,0.7095,0.7095,0.7007,0.6922,0.6802,0.4884,0.4039,0.0,0.0,0.0,0.0,0.0,0.0,0.0,0.0,0.0,0.0,0.0,0.0,0.0,0.0,0.0,0.0,0.0,0.0,0.0,0.0,0.0,0.0,0.1423,0.0,0.0,0.0,0.0,0.0,0.0,0.0,0.0,0.0,0.0,0.0,0.0,0.0,0.7988,0.7988,0.7988,0.7988,0.7988,0.0,0.0,0.8323,0.8374,0.8448,0.8357,0.8323,0.8231,0.8025,0.0,0.0,1.0137,1.0578,1.1172,1.2783,1.3072,1.3008,0.0,0.0,1.2539,0.0,0.0,0.0,0.0,0.0,0.0,0.0,0.0,0.0,0.0,0.0,0.0,1.9171,1.9307,1.9424,1.9424,1.9424,1.9424,1.9424,1.9424,1.9424,1.9424,1.9424,1.9424,1.9424,1.9424,1.9424,1.9424,1.9424,0.0,0.0,1.9424,1.9424,1.9424,1.9424,1.9424,1.9332,1.9065,1.8764,1.8457,0.0,0.0,0.0,0.0,0.0,0.0,0.7095,0.7095,0.7095,0.7095,0.7095,0.7095,0.7095,0.6245,0.5888,0.0,0.0,0.0,0.0,0.0,0.0,0.0,0.0,0.0,0.0,0.0,0.0,0.76,0.0,0.0,0.0,0.0,0.0,0.0,0.0,0.0,0.0,0.0,0.0,0.0,0.0,0.0,0.0,0.0,0.0,0.0,0.0,0.0,0.0,0.0,0.0,0.0,0.7988,0.7988,0.0,0.0,0.8032,0.8133,0.8133,0.8174,0.8201,0.8147,0.8133,0.8313,0.9034,0.0,0.9677,1.1277,1.245,1.341,1.4168,1.4456,1.4522,1.4476,1.3477,0.0,0.0,0.0,0.0,0.0,0.0,0.0,0.0,0.0,0.0,0.0,0.0,0.0,1.8824,1.9172,1.9424,1.9424,1.9424,1.9424,1.9424,1.9424,1.9424,1.9424,1.9424,1.9424,1.9424,1.9424,1.9424,1.9424,1.9424,0.0,0.0,1.9424,1.9424,1.9424,1.9424,1.9424,1.939,1.9032,1.8738,1.8444,0.0,0.0,0.0,0.0,0.0,0.7095,0.7095,0.7095,0.7095,0.7095,0.7095,0.7095,0.7095,0.7095,0.7095,0.7095,0.0,0.0,0.0,0.0,0.0,0.0,0.0,0.0,0.0,0.0,0.7465,0.7465,0.7465,0.0,0.0,0.0,0.0,0.0,0.0,0.0,0.0,0.0,0.0,0.0,0.0,0.0,0.0,0.0,0.0,0.0,0.0,0.0,0.0,0.0,0.0,0.0,0.0,0.0,0.0,0.0,0.7988,0.7988,0.7988,0.7988,0.7988,0.7988,0.8287,0.8825,0.0,0.0,1.0981,1.2521,1.3802,1.4814,1.5397,1.5649,1.5771,1.5771,1.4676,1.4106,0.0,0.0,0.0,0.0,0.0,0.0,0.0,0.0,0.0,0.0,0.0,0.0,1.8343,1.8838,1.9105,1.9105,1.9192,1.9239,1.9239,1.9325,1.9424,1.9424,1.9424,1.9424,1.9424,1.9424,1.9424,1.9424,1.9424,0.0,0.0,1.9424,1.9649,2.0026,1.9878,2.0123,2.0466,2.0003,1.9718,1.9538,0.0,0.0,0.0,0.0,0.0,0.0,0.7095,0.7095,0.7095,0.7095,0.7095,0.7095,0.7095,0.7095,0.7095,0.7095,0.0,0.0,0.0,0.0,0.0,0.0,0.0,0.0,0.0,0.0,0.7102,0.7102,0.7102,0.7102,0.7102,0.7102,0.0,0.0,0.0,0.0,0.0,0.0,0.0,0.0,0.0,0.0,0.0,0.0,0.0,0.0,0.0,0.0,0.0,0.0,0.0,0.0,0.0,0.0,0.0,0.0,0.7988,0.7988,0.7988,0.7988,0.7988,0.7988,0.9019,0.9998,0.0,0.0,1.2348,1.3955,1.4309,1.4794,1.6397,1.6663,1.6714,1.6714,1.6657,0.0,0.0,0.0,0.0,0.0,0.0,0.0,0.0,0.0,0.0,0.0,0.0,0.0,1.7995,1.8337,1.8497,1.8497,1.8778,1.8925,1.8925,1.9219,1.9424,1.9424,1.9424,1.9424,1.9424,1.9424,1.9424,0.0,0.0,0.0,0.0,1.9424,2.0256,2.1548,2.1059,2.1812,2.3048,2.2335,2.2073,2.2015,0.0,0.0,0.0,0.0,0.0,0.0,0.0,0.7095,0.7095,0.7095,0.7095,0.7095,0.7095,0.7095,0.7095,0.7095,0.0,0.0,0.0,0.0,0.0,0.0,0.0,0.0,0.0,0.0,0.7095,0.7095,0.7095,0.7095,0.7095,0.7095,0.6918,0.6517,0.0,0.0,0.0,0.0,0.0,0.0,0.0,0.0,0.0,0.0,0.0,0.0,0.0,0.0,0.0,0.0,0.0,0.0,0.0,0.0,0.0,1.0681,0.0,0.0,1.0435,1.0681,1.0681,1.0681,1.0974,1.1556,1.2474,0.0,1.3661,1.5063,1.5531,1.5839,1.6337,1.6573,1.6707,1.6707,1.654,0.0,0.0,0.0,0.0,0.0,0.0,0.0,0.0,0.0,0.0,0.0,0.0,0.0,1.7729,1.7816,1.8063,1.8477,1.8577,1.8631,1.8631,1.8718,1.8771,1.8771,1.8771,1.9256,2.0168,2.0168,2.0168,0.0,0.0,0.0,0.0,2.1148,2.1791,2.2212,2.2046,2.2277,2.265,2.2236,2.2116,2.2059,0.0,0.0,0.0,0.0,0.0,0.0,0.0,0.7095,0.7095,0.7095,0.7095,0.7095,0.7095,0.7095,0.7095,0.7095,0.0,0.0,0.0,0.0,0.0,0.0,0.0,0.0,0.7095,0.7095,0.7095,0.7095,0.7095,0.7095,0.7095,0.7095,0.7095,0.7051,0.634,0.0,0.0,0.0,0.0,0.0,0.0,0.0,0.7988,0.0,0.0,0.0,0.0,0.0,0.0,0.0,0.0,0.0,0.0,0.0,0.0,0.0,1.2086,1.1551,0.0,1.1896,1.1896,1.1896,1.2285,0.0,0.0,0.0,1.4848,1.5635,1.5979,1.6106,1.6106,1.6253,1.6373,1.6373,1.6219,0.0,0.0,0.0,0.0,0.0,0.0,0.0,0.0,0.0,0.0,0.0,0.0,0.0,1.7582,1.7582,1.7756,1.8136,1.8263,1.8323,1.8323,1.8437,1.849,1.849,1.9023,1.9709,2.0498,2.1032,2.1248,0.0,0.0,0.0,0.0,2.2162,2.2855,2.3368,2.3172,2.3443,2.393,2.3595,2.3454,2.3419,0.0,0.0,0.0,0.0,0.0,0.0,0.0,0.0,0.7095,0.7095,0.7095,0.7095,0.7095,0.7095,0.7095,0.7095,0.0,0.0,0.0,0.0,0.0,0.0,0.0,0.0,0.7095,0.7095,0.7095,0.7095,0.7095,0.7095,0.7095,0.7095,0.7095,0.7095,0.7095,0.7095,0.7095,0.7095,0.7267,0.7584,0.7597,0.777,0.0,0.0,0.0,0.0,0.0,0.0,0.0,0.0,0.0,0.0,0.0,0.0,0.0,0.0,0.0,0.0,0.0,1.2188,0.0,0.0,0.0,0.0,0.0,0.0,0.0,1.5784,1.5784,1.5784,1.5784,1.5784,1.5784,1.5784,1.5784,0.0,0.0,0.0,0.0,0.0,0.0,0.0,0.0,0.0,0.0,0.0,0.0,0.0,1.7582,1.7687,1.774,1.774,1.807,1.8225,1.8117,1.8448,1.8638,1.8748,2.0012,2.0647,2.0755,2.2028,2.2568,0.0,0.0,0.0,0.0,2.2674,2.3572,2.4799,2.4377,2.5069,2.6299,2.584,2.5693,2.5693,0.0,0.0,0.0,0.0,0.0,0.0,0.0,0.0,0.0,0.0,0.7095,0.7095,0.7095,0.7095,0.7095,0.0,0.0,0.0,0.0,0.0,0.0,0.0,0.0,0.0,0.7095,0.7095,0.7095,0.7095,0.7095,0.7095,0.7095,0.7095,0.7095,0.7095,0.7095,0.7095,0.7095,0.7095,0.7251,0.7434,0.7553,0.7706,0.0,0.0,0.0,0.0,0.9899,1.0435,0.0,0.0,0.0,0.0,0.0,0.0,0.0,0.0,1.5343,1.5289,1.4956,0.0,1.4854,1.4854,1.5099,1.5343,0.0,0.0,0.0,0.0,0.0,0.0,0.0,1.5784,1.5784,1.5784,1.5784,0.0,0.0,0.0,0.0,0.0,0.0,0.0,0.0,0.0,0.0,0.0,0.0,0.0,1.7582,1.8551,1.9117,1.9117,2.0264,2.0302,1.9233,1.9313,1.9859,2.0936,2.129,2.1958,2.2944,2.3248,2.3408,0.0,0.0,0.0,2.3509,2.454,2.5157,2.5454,2.5358,2.5526,2.583,2.5723,2.5693,2.5693,0.0,0.0,0.0,0.0,0.0,0.0,0.0,0.0,0.0,0.0,0.0,0.0,0.0,0.0,0.0,0.0,0.0,0.0,0.0,0.0,0.0,0.0,0.0,0.7095,0.7095,0.7095,0.7095,0.7095,0.7095,0.7095,0.7095,0.7095,0.7095,0.7095,0.7095,0.7095,0.7095,0.7095,0.7227,0.7433,0.7539,0.0,0.0,0.0,0.0,0.0,1.1356,1.1848,0.0,1.3301,1.3782,1.4022,0.0,0.0,0.0,0.0,1.5784,1.5784,1.5784,1.5784,1.5784,1.5784,1.5784,1.5784,1.5784,0.0,0.0,0.0,0.0,0.0,0.0,0.0,0.0,0.0,0.0,0.0,0.0,0.0,0.0,0.0,0.0,0.0,0.0,0.0,0.0,0.0,0.0,1.7891,1.8506,1.922,1.9878,2.0538,2.1296,2.1347,2.059,2.0538,2.0939,2.1702,2.2307,2.2976,2.3741,2.4353,2.4609,0.0,0.0,0.0,2.4658,2.5382,2.5693,2.5693,2.5693,2.5693,2.5693,2.5693,2.5693,2.5693,0.0,0.0,0.0,0.0,0.0,0.0,0.0,0.0,0.0,0.0,0.0,0.0,0.0,0.0,0.0,0.0,0.0,0.0,0.0,0.0,0.0,0.0,0.7095,0.7095,0.7095,0.7095,0.7095,0.7095,0.7095,0.7095,0.7095,0.7095,0.7095,0.7095,0.7095,0.7095,0.7095,0.7095,0.7217,0.7353,0.7529,0.0,0.0,0.0,0.0,0.0,0.0,0.0,0.0,1.5051,1.5092,1.4364,1.5439,0.0,0.0,0.0,0.0,0.0,1.5784,1.5784,1.5784,1.5784,1.5784,1.5784,1.5784,0.0,0.0,0.0,0.0,0.0,0.0,0.0,0.0,0.0,0.0,0.0,0.0,0.0,0.0,0.0,0.0,0.0,0.0,0.0,0.0,0.0,0.0,1.8708,1.9878,2.0135,2.0794,2.1954,2.2206,2.2316,2.2316,2.2106,2.2106,2.2307,2.3484,2.3998,2.4048,2.5177,2.5693,2.5693,0.0,0.0,2.5693,2.5693,2.5693,2.5693,2.5693,2.5693,2.5693,2.5693,2.5693,2.5693,0.0,0.0,0.0,0.0,0.0,0.0,0.0,0.0,0.0,0.0,0.0,0.0,0.0,0.0,0.0,0.0,0.0,0.0,0.0,0.0,0.0,0.7095,0.7095,0.7095,0.7095,0.7095,0.7095,0.7095,0.7095,0.7095,0.7095,0.7095,0.7095,0.7095,0.7095,0.7095,0.7095,0.7095,0.7109,0.7156,0.7485,0.0,0.0,0.0,0.0,0.0,0.0,0.0,0.0,1.5683,1.5683,1.5534,1.573,0.0,0.0,0.0,0.0,0.0,1.5784,1.5784,1.5784,1.5784,1.5784,1.5784,1.5784,0.0,0.0,0.0,0.0,0.0,0.0,0.0,0.0,0.0,0.0,0.0,0.0,0.0,0.0,0.0,0.0,0.0,0.0,0.0,0.0,0.0,0.0,0.0,2.1347,2.2466,2.3176,2.3384,2.4501,2.5079,2.5079,2.3939,2.3939,2.5079,2.5274,2.5382,2.5382,2.5586,2.5693,2.5693,0.0,2.5693,2.5693,2.5693,2.5693,2.5693,2.5693,2.5693,2.5693,2.5693,2.5693,2.5693,0.0,0.0,0.0,0.0,0.0,0.0,0.0,0.0,0.0,0.0,0.0,0.0,0.0,0.0,0.0,0.0,0.0,0.0,0.0,0.0,0.7018,0.7092,0.7095,0.7095,0.7095,0.7095,0.7095,0.7095,0.7095,0.7095,0.7095,0.7095,0.7095,0.7095,0.7095,0.7095,0.7095,0.7095,0.7095,0.7211,0.0,0.0,0.0,0.0,0.0,0.0,0.0,0.0,0.0,0.0,1.5784,1.5784,1.5784,0.0,0.0,0.0,0.0,0.0,1.5784,1.5784,1.5784,1.5784,1.5784,1.5784,1.5784,1.5784,0.0,0.0,0.0,0.0,0.0,0.0,0.0,0.0,0.0,0.0,0.0,0.0,0.0,0.0,0.0,0.0,0.0,0.0,0.0,0.0,0.0,0.0,2.2717,2.3384,2.4048,2.4766,2.5382,2.5693,2.5693,2.5079,2.5069,2.5693,2.5693,2.5693,2.5693,2.5693,2.5693,2.5693,0.0,2.5693,2.5693,2.5693,2.5693,2.5693,2.5693,2.5693,2.5693,2.5693,2.5693,2.5693,0.0,0.0,0.0,0.0,0.0,0.0,0.0,0.0,0.0,0.0,0.0,0.0,0.0,0.0,0.0,0.0,0.0,0.0,0.0,0.0,0.6933,0.7041,0.7339,0.7404,0.7095,0.7095,0.7095,0.7095,0.7095,0.7095,0.7095,0.7095,0.7095,0.7095,0.7095,0.7095,0.7139,0.7401,0.7554,0.7745,0.0,0.0,0.0,0.0,0.0,0.0,0.0,0.0,0.0,0.0,0.0,0.0,0.0,0.0,0.0,1.5784,1.5784,1.5784,1.5784,1.5784,1.5784,1.5784,0.0,1.5784,1.5784,1.6015,0.0,0.0,0.0,0.0,0.0,0.0,0.0,0.0,0.0,0.0,0.0,0.0,0.0,0.0,0.0,0.0,0.0,0.0,0.0,0.0,0.0,0.0,2.4097,2.4146,2.4658,2.5684,2.5693,2.5693,2.5693,2.5693,2.5693,2.5693,2.5693,2.5693,2.5693,2.5693,2.5693,2.5693,2.5693,2.5693,2.5693,2.5693,2.5693,2.5693,2.5693,2.5693,2.5693,2.5693,2.5693,2.5693,0.0,0.0,0.0,0.0,0.0,0.0,0.0,0.0,0.0,0.0,0.0,0.0,0.0,0.0,0.0,0.0,0.0,0.0,0.0,0.0,0.6889,0.69,0.8111,0.8237,0.7139,0.7095,0.7095,0.7095,0.7095,0.7095,0.7095,0.7095,0.7095,0.7095,0.7095,0.7095,0.7183,0.8277,0.8899,0.9251,1.0639,0.0,0.0,0.0,0.0,0.0,0.0,0.0,0.0,0.0,0.0,0.0,0.0,0.0,1.5784,1.5784,1.5784,1.5784,1.5784,1.5784,1.5784,1.5784,1.5784,0.0,1.5784,1.6709,0.0,1.6062,0.0,0.0,0.0,0.0,0.0,0.0,0.0,0.0,0.0,0.0,0.0,0.0,0.0,0.0,0.0,0.0,0.0,0.0,0.0,0.0,2.5538,2.5586,2.5586,2.5693,2.5693,2.5693,2.5693,2.5693,2.5693,2.5693,2.5693,2.5693,2.5693,2.5693,2.5693,2.5693,2.5693,2.5693,2.5693,2.5693,2.5693,2.5693,2.5693,2.5693,2.5693,2.5693,2.5693,2.5693,0.0,0.0,0.0,0.0,0.0,0.0,0.0,0.0,0.0,0.0,0.0,0.0,0.0,0.0,0.0,0.0,0.0,0.0,0.0,0.8611,0.8813,0.8941,0.9599,0.9749,0.9266,0.9266,0.9266,0.9266,0.9266,0.8925,0.8233,0.8233,0.7841,0.7139,0.7885,0.8233,0.8277,0.9449,1.0129,1.0517,1.1919,1.2951,0.0,0.0,0.0,0.0,0.0,0.0,0.0,0.0,1.5784,1.5784,1.5784,1.6339,1.681,1.6015,1.6339,1.699,1.699,1.699,1.699,1.699,1.7537,0.0,0.0,1.7365,1.7777,1.8033,1.8488,0.0,0.0,0.0,0.0,0.0,0.0,0.0,0.0,0.0,0.0,0.0,0.0,0.0,0.0,0.0,0.0,0.0,0.0,0.0,0.0,2.5693,2.5693,2.5693,2.5693,2.5693,2.5693,2.5693,2.5693,2.5693,2.5693,2.5693,2.5693,2.5693,2.5693,2.5693,2.5693,2.5693,2.5693,2.5693,2.5693,2.5693,2.5693,2.5693,2.5693,2.5693,2.5693,2.5693,0.0,0.0,0.0,0.0,0.0,0.0,0.0,0.0,0.0,0.0,0.0,0.0,0.0,0.0,0.0,0.0,0.0,0.0,0.9426,0.9742,0.9968,1.0083,1.0751,1.1123,1.1123,1.152,1.1348,1.0611,1.0611,1.0183,0.9449,0.9449,0.9013,0.8229,0.9056,0.9449,0.9497,1.0773,1.146,1.1885,1.332,1.4102,0.0,0.0,0.0,0.0,0.0,0.0,0.0,0.0,1.6386,1.648,1.6842,1.7584,1.8095,1.721,1.7576,1.828,1.828,1.828,1.828,0.0,0.0,0.0,1.8956,1.8818,1.8956,1.9405,0.0,0.0,0.0,0.0,0.0,0.0,0.0,0.0,0.0,0.0,0.0,0.0,0.0,0.0,0.0,0.0,0.0,0.0,0.0,0.0,0.0,2.5449,2.5527,2.5527,2.5615,2.5693,2.5693,2.5693,2.5693,2.5693,2.5693,2.5693,2.5693,2.5693,2.5693,2.5693,2.5693,2.5693,2.5732,2.6149,2.6524,2.6887,2.6887,2.6887,2.6839,2.6428,2.6294,2.6294,0.0,0.0,0.0,0.0,0.0,0.0,0.0,0.0,0.0,0.0,0.0,0.0,0.0,0.0,0.0,0.0,0.0,0.0,0.9334,0.9701,0.9938,0.9938,1.1461,1.2328,1.2328,1.347,1.2954,1.0611,1.0611,1.0611,1.0611,1.0611,1.0611,1.0611,1.0611,1.0611,1.0712,1.2211,1.2963,1.3332,1.4806,1.5571,1.5784,0.0,0.0,0.0,0.0,0.0,0.0,0.0,1.7738,1.7917,1.9131,1.9497,1.9488,1.9497,1.9497,1.9542,1.9542,1.9542,0.0,0.0,0.0,0.0,2.1025,2.1293,2.098,1.9761,0.0,0.0,0.0,0.0,0.0,0.0,0.0,0.0,0.0,0.0,0.0,0.0,0.0,0.0,0.0,0.0,0.0,0.0,0.0,0.0,0.0,2.4824,2.5106,2.5106,2.5488,2.5674,2.5684,2.5684,2.5684,2.5693,2.5693,2.5693,2.5693,2.5693,2.5693,2.5742,2.5742,2.5732,2.583,2.7078,2.8319,2.9407,2.9407,2.9407,2.9269,2.8049,2.7636,2.7636,0.0,0.0,0.0,0.0,0.0,0.0,0.0,0.0,0.0,0.0,0.0,0.0,0.0,0.0,0.0,0.0,0.0,0.0,1.1403,1.1917,1.2227,1.2227,1.3086,1.3561,1.3561,1.3913,1.3737,1.3039,1.3039,1.2644,1.1809,1.1809,1.1381,1.0654,1.1423,1.1954,1.2211,1.3449,1.4301,1.4806,1.5219,1.5571,1.5784,0.0,0.0,0.0,0.0,0.0,0.0,0.0,0.0,0.0,1.9405,2.0079,2.0621,1.9761,2.0079,2.0755,2.0755,2.0755,0.0,0.0,0.0,0.0,0.0,2.1293,0.0,0.0,0.0,0.0,0.0,0.0,0.0,0.0,0.0,0.0,0.0,0.0,0.0,0.0,0.0,0.0,0.0,0.0,0.0,0.0,0.0,0.0,0.0,2.4541,2.4609,2.4609,2.4736,2.4951,2.5264,2.5273,2.543,2.5693,2.5693,2.5693,2.5693,2.5693,2.6207,2.704,2.704,2.7542,2.8355,2.8727,2.9085,2.9407,2.9407,2.9407,2.9361,2.8993,2.8866,2.8866,0.0,0.0,0.0,0.0,0.0,0.0,0.0,0.0,0.0,0.0,0.0,0.0,0.0,0.0,0.0,0.0,0.0,0.0,0.0,1.2872,1.3213,1.3213,1.3774,1.4088,1.4088,1.4088,1.4088,1.4088,1.4088,1.373,1.3027,1.3027,1.2644,1.2046,1.2838,1.3281,1.3536,1.4446,1.507,1.5404,1.5524,1.5671,1.5879,0.0,0.0,0.0,0.0,0.0,0.0,0.0,0.0,0.0,2.0764,2.1445,2.1845,2.1132,2.1445,2.2031,2.2031,0.0,0.0,0.0,0.0,0.0,0.0,0.0,0.0,0.0,0.0,0.0,0.0,0.0,0.0,0.0,0.0,0.0,0.0,0.0,0.0,0.0,0.0,0.0,0.0,0.0,0.0,0.0,0.0,0.0,0.0,2.4072,2.417,2.417,2.4336,2.4541,2.4805,2.4805,2.5177,2.5859,2.6077,2.6395,2.6857,2.6577,2.6849,2.7636,2.8085,2.8993,3.0135,3.0135,3.0406,3.0866,3.0866,3.0866,3.0822,3.0316,3.0135,3.0135,0.0,0.0,0.0,0.0,0.0,0.0,0.0,0.0,0.0,0.0,1.2305,0.0,0.0,0.0,0.0,0.0,0.0,0.0,0.0,0.0,1.3213,1.3213,1.3774,1.4088,1.4088,1.4088,1.4088,1.4088,1.4088,1.4088,1.4088,1.4088,1.4102,1.4135,1.4402,1.4549,1.4636,1.517,1.5411,1.5458,1.5812,1.5967,1.6109,1.7358,0.0,0.0,0.0,0.0,0.0,0.0,0.0,0.0,2.2765,2.3091,2.3091,2.3091,2.3091,2.3091,2.3091,0.0,0.0,0.0,0.0,0.0,0.0,0.0,0.0,0.0,0.0,0.0,0.0,0.0,0.0,0.0,0.0,0.0,0.0,0.0,0.0,0.0,0.0,0.0,0.0,0.0,0.0,0.0,0.0,0.0,0.0,2.3516,2.373,2.373,2.4183,2.4454,2.4493,2.4575,2.5179,2.6249,2.676,2.7543,2.8489,2.7989,2.7814,2.8002,2.9223,3.0361,3.1356,3.1356,3.2052,3.3124,3.3124,3.3124,3.2939,3.1821,3.1356,3.1356,0.0,0.0,0.0,0.0,0.0,0.0,0.0,0.0,0.0,0.0,0.0,0.0,0.0,0.0,0.0,0.0,0.0,0.0,0.0,0.0,1.3213,1.3213,1.3774,1.4088,1.4088,1.4088,1.4088,1.4088,1.4088,1.4088,1.4088,1.4088,1.4208,1.4429,1.4489,1.4776,1.5217,1.5344,1.5524,1.5785,1.6875,1.7271,1.7404,1.8634,1.9131,0.0,0.0,0.0,0.0,0.0,0.0,0.0,2.3003,2.3091,2.3091,2.3091,2.3091,2.3091,0.0,2.3091,0.0,0.0,0.0,0.0,0.0,0.0,0.0,0.0,0.0,0.0,0.0,0.0,0.0,0.0,0.0,0.0,0.0,0.0,0.0,0.0,0.0,0.0,0.0,0.0,0.0,0.0,0.0,0.0,2.3091,2.3188,2.3237,2.3237,2.4196,2.489,2.5173,2.6064,2.6802,0.0,2.7448,2.7679,2.7921,2.8687,2.9544,3.0496,3.1745,3.2426,3.2698,3.2698,3.284,3.3124,3.3124,3.3124,3.3068,3.2797,3.2698,3.2698,0.0,0.0,0.0,0.0,0.0,0.0,0.0,0.0,0.0,0.0,0.0,0.0,0.0,0.0,0.0,0.0,0.0,0.0,0.0,0.0,1.3333,1.3621,1.3921,1.4088,1.4088,1.4088,1.4088,1.4088,1.4088,1.4088,1.4088,1.4229,1.4376,1.4529,1.4816,1.511,1.5404,1.5545,1.6013,1.6756,1.7412,1.8056,1.868,1.9898,2.035,2.0531,2.1712,0.0,0.0,0.0,0.0,0.0,0.0,0.0,2.3091,2.3091,2.3091,2.3091,0.0,0.0,0.0,0.0,0.0,0.0,0.0,0.0,0.0,0.0,0.0,0.0,0.0,0.0,0.0,0.0,0.0,0.0,0.0,0.0,0.0,0.0,0.0,0.0,0.0,0.0,0.0,0.0,0.0,2.3091,2.3091,2.3637,2.392,2.392,2.501,2.5707,2.5925,2.6517,2.7174,2.7885,2.8169,2.8665,2.9496,2.9764,3.0534,3.1717,3.2685,3.3124,3.3124,3.3124,3.3124,3.3124,3.3124,3.3124,3.3124,3.3124,3.2905,3.2667,0.0,0.0,0.0,0.0,0.0,0.0,0.0,0.0,0.0,0.0,0.0,0.0,0.0,0.0,0.0,0.0,0.0,0.0,0.0,0.0,0.0,1.4349,1.4531,1.458,1.437,1.437,1.4292,1.4088,1.4088,1.4235,1.4494,1.4489,1.4543,1.4623,1.5157,1.5563,1.5809,1.5819,1.6662,1.8002,1.8002,1.8726,1.9943,2.1168,2.1614,2.1747,2.2721,2.3091,2.3091,2.3091,0.0,0.0,0.0,0.0,2.3091,2.3091,2.3091,2.3091,0.0,0.0,0.0,0.0,0.0,0.0,0.0,0.0,0.0,0.0,0.0,0.0,0.0,0.0,0.0,0.0,0.0,0.0,0.0,0.0,0.0,0.0,0.0,0.0,0.0,0.0,0.0,0.0,0.0,2.3387,2.3387,2.4457,2.5083,2.5083,2.6171,2.676,2.676,2.6976,2.7504,2.8398,2.8831,2.9776,3.1094,3.0639,3.1016,3.2102,3.2679,3.293,3.293,3.3074,3.3124,3.3124,3.3124,3.3124,3.3111,3.2968,3.2629,3.2202,0.0,0.0,0.0,0.0,0.0,0.0,0.0,0.0,0.0,0.0,0.0,0.0,0.0,0.0,0.0,0.0,0.0,0.0,1.284,0.0,0.0,1.5482,1.6363,1.6445,1.5496,1.5504,1.5012,1.4088,1.4088,1.4747,1.5987,1.4959,1.4656,1.4961,1.5251,1.6128,1.7299,1.6231,1.7163,1.9268,1.9268,1.9988,2.1203,2.2403,2.2862,2.2862,2.3047,2.3091,2.3091,2.3091,2.3091,0.0,0.0,0.0,2.3091,2.3091,2.3091,2.3091,0.0,0.0,0.0,0.0,0.0,0.0,0.0,0.0,0.0,0.0,0.0,0.0,0.0,0.0,0.0,0.0,0.0,0.0,0.0,0.0,0.0,0.0,0.0,0.0,0.0,0.0,0.0,0.0,2.4006,2.4585,2.4585,2.563,2.6265,2.6265,2.7319,2.7896,2.7896,2.887,2.9417,2.9573,2.966,2.9813,3.003,3.0411,3.0898,3.1537,3.2089,3.2328,3.2365,3.2867,3.3124,3.3124,3.3124,3.3124,3.3061,3.2516,3.2277,3.2139,0.0,0.0,0.0,0.0,0.0,0.0,0.0,0.0,0.0,0.0,0.0,0.0,0.0,0.0,0.0,1.3947,1.4514,1.4924,1.508,1.5936,1.6483,1.6593,1.705,1.709,1.6601,1.6601,1.6363,1.5876,1.5876,1.6376,1.7241,1.6849,1.6915,1.7294,1.6868,1.745,1.868,1.8126,1.8894,2.0531,2.0531,2.1212,2.2359,2.2906,2.3091,2.3091,2.3091,2.3091,2.3091,2.3091,2.3091,2.3091,2.3091,0.0,0.0,0.0,0.0,0.0,0.0,0.0,0.0,0.0,0.0,0.0,0.0,0.0,0.0,0.0,0.0,0.0,0.0,0.0,0.0,0.0,0.0,0.0,0.0,0.0,0.0,0.0,0.0,0.0,0.0,0.0,0.0,0.0,2.5094,2.5755,2.5755,2.6789,2.7412,2.7412,2.8478,2.9067,2.9067,2.9534,2.9792,2.9792,2.9792,2.9792,2.9804,3.0043,3.0444,3.0984,3.1524,3.175,3.1763,3.2026,3.2127,3.2127,3.2127,3.2127,3.2102,3.1851,3.1574,3.1286,0.0,0.0,0.0,0.0,0.0,0.0,0.0,0.0,0.0,0.0,0.0,0.0,0.0,0.0,0.0,0.0,1.5833,1.6378,1.6879,1.7408,1.7747,1.7747,1.798,1.802,1.7738,1.7747,1.7577,1.7302,1.7433,1.787,1.8574,1.8554,1.9148,2.0042,1.8752,1.8818,1.9943,1.9625,2.035,2.1712,2.1436,2.2031,2.3091,2.3091,2.3091,2.3091,2.3091,2.3091,2.3135,2.342,2.3507,2.3594,2.3887,0.0,0.0,0.0,0.0,0.0,0.0,0.0,0.0,0.0,0.0,0.0,0.0,0.0,0.0,0.0,0.0,0.0,0.0,0.0,0.0,0.0,0.0,0.0,0.0,0.0,0.0,0.0,0.0,0.0,0.0,0.0,0.0,0.0,2.6254,2.6924,2.6924,2.7947,2.8518,2.8518,2.9365,2.9792,2.9792,2.9792,2.9792,2.9792,2.9792,2.9792,2.9792,2.9792,3.0018,3.0432,3.0959,3.1198,3.1198,3.1336,3.1386,3.1386,3.1386,3.1386,3.1373,3.1248,3.0947,3.0595,0.0,0.0,0.0,0.0,0.0,0.0,0.0,0.0,0.0,0.0,0.0,0.0,1.5199,1.6,1.6325,1.5816,1.6612,1.7063,1.6918,1.8162,1.8917,1.8917,1.9883,0.0,1.8917,1.8917,1.839,1.7302,1.7772,1.8708,2.0051,1.9366,2.0413,2.279,2.044,2.0079,2.1114,1.9988,0.0,0.0,2.1756,2.2031,2.3091,2.3091,2.3091,2.3091,2.3091,2.3091,2.3256,2.4339,2.4702,2.4914,0.0,2.6307,2.6307,0.0,0.0,0.0,0.0,0.0,0.0,0.0,0.0,0.0,0.0,0.0,0.0,0.0,0.0,0.0,0.0,0.0,0.0,0.0,0.0,0.0,0.0,0.0,0.0,0.0,0.0,0.0,0.0,0.0,0.0,0.0,2.7412,2.8004,2.8004,2.9106,2.9702,2.9702,2.9753,2.9792,2.9792,2.9792,2.9792,2.9792,2.9792,2.9792,2.9792,2.9792,2.9817,2.9867,3.0419,3.0658,3.0696,3.1185,3.1386,3.1386,3.1386,3.1386,3.1336,3.0834,3.0633,3.0545,0.0,0.0,0.0,0.0,0.0,0.0,0.0,0.0,0.0,0.0,0.0,0.0,0.0,1.768,1.792,1.8035,1.8581,1.9052,1.9251,1.975,2.004,2.004,2.0401,2.0401,2.004,2.004,1.9937,1.9798,1.9987,2.0609,2.1665,2.1422,2.1929,2.3047,2.14,2.1346,2.2448,2.1996,0.0,0.0,0.0,0.0,0.0,0.0,0.0,0.0,0.0,0.0,0.0,0.0,0.0,0.0,2.6141,2.6524,2.6524,2.6524,0.0,0.0,0.0,0.0,0.0,0.0,0.0,0.0,0.0,0.0,0.0,0.0,0.0,0.0,0.0,0.0,0.0,0.0,0.0,0.0,0.0,0.0,0.0,0.0,0.0,0.0,0.0,0.0,0.0,0.0,0.0,2.9197,2.9197,2.9573,2.9792,2.9792,2.9792,2.9792,2.9792,2.9792,2.9792,2.9792,2.9792,2.9792,2.9792,2.9792,2.9792,2.9804,2.9993,3.0093,3.0093,3.0281,3.0369,3.0369,3.0369,3.0369,3.0344,3.0156,3.0093,3.0055,0.0,0.0,0.0,0.0,0.0,0.0,0.0,0.0,0.0,1.8008,0.0,0.0,0.0,0.0,1.8997,1.9453,1.9883,2.0254,2.0586,2.0605,2.0605,2.0605,2.0605,2.0605,2.0605,2.0605,2.0781,2.119,2.1346,2.1816,2.2519,2.2656,2.2828,2.3047,2.2262,2.235,0.0,0.0,0.0,2.3091,0.0,0.0,2.3091,0.0,0.0,0.0,0.0,0.0,0.0,0.0,0.0,0.0,0.0,2.7597,2.7597,2.7597,2.7597,0.0,0.0,0.0,0.0,0.0,0.0,0.0,0.0,0.0,0.0,0.0,0.0,0.0,0.0,0.0,0.0,0.0,0.0,0.0,0.0,0.0,0.0,0.0,0.0,0.0,0.0,0.0,0.0,0.0,0.0,0.0,2.9792,2.9792,2.9792,2.9792,2.9792,2.9792,2.9792,2.9792,2.9792,2.9792,2.9792,2.9792,2.9792,2.9792,2.9972,3.0279,3.0279,3.0113,2.983,3.0139,3.0279,3.0317,3.0608,3.0746,3.0746,3.0746,3.0746,3.0746,0.0,0.0,0.0,0.0,0.0,0.0,0.0,0.0,1.8037,1.8047,0.0,0.0,0.0,0.0,0.0,1.9902,2.0322,2.0605,2.0605,2.0605,2.0605,2.0605,2.0615,2.0625,2.0625,2.0635,2.082,2.1229,2.1699,2.2119,2.2539,2.2906,2.3091,2.3091,2.3091,2.3091,2.3091,0.0,2.3091,2.3091,0.0,2.3135,2.3135,0.0,0.0,0.0,2.45,2.4872,0.0,0.0,0.0,0.0,0.0,2.9792,2.9792,2.9792,2.9792,0.0,0.0,0.0,0.0,0.0,0.0,0.0,0.0,0.0,0.0,0.0,0.0,0.0,0.0,0.0,0.0,0.0,0.0,0.0,0.0,0.0,0.0,0.0,0.0,0.0,0.0,0.0,0.0,0.0,2.9792,2.9792,2.9792,2.9792,2.9792,2.9792,2.9792,2.9792,2.9792,2.9792,2.9792,2.9792,2.983,2.983,2.9818,2.9869,3.0381,3.1254,3.1254,3.0733,2.9934,3.0871,3.1254,3.1315,3.2249,3.2593,3.2593,3.2593,3.2593,3.2593,0.0,0.0,0.0,0.0,0.0,0.0,1.8383,1.8432,1.8539,0.0,0.0,0.0,1.9521,1.9951,2.0292,2.0419,2.0537,2.0605,2.0605,2.0605,2.0605,2.0605,2.0879,2.1045,2.1045,2.1357,2.1728,2.2158,2.2285,2.2549,2.2925,2.3042,2.3091,2.3091,2.3091,2.3091,2.3091,2.3091,0.0,0.0,2.3091,2.3594,0.0,0.0,0.0,0.0,0.0,2.6696,2.6389,0.0,2.8767,2.8307,0.0,0.0,2.9792,2.9792,2.9792,0.0,2.9792,0.0,0.0,0.0,0.0,0.0,0.0,0.0,0.0,0.0,0.0,0.0,0.0,0.0,0.0,0.0,0.0,0.0,0.0,0.0,0.0,0.0,0.0,0.0,0.0,0.0,0.0,0.0,2.9792,2.9792,2.9792,2.9792,2.9792,2.9792,2.9792,2.9792,2.9792,2.9792,2.9792,2.9792,3.0482,3.0796,3.0833,3.1513,3.1974,3.2213,3.2213,3.2083,3.1865,3.2105,3.2213,3.2249,3.25,3.2593,3.2593,3.2593,3.2593,3.2593,0.0,0.0,0.0,0.0,0.0,1.8383,1.8848,1.887,1.8994,0.0,0.0,0.0,2.0675,2.067,2.075,2.1155,2.0996,2.084,2.084,2.1016,2.1153,2.1153,2.1367,2.1504,2.1504,2.1758,2.209,2.251,2.251,2.2734,2.3091,2.3091,2.3091,2.3091,0.0,0.0,0.0,0.0,0.0,0.0,2.3637,0.0,0.0,2.5336,2.5922,0.0,0.0,0.0,2.7452,2.9209,2.9365,0.0,0.0,0.0,0.0,0.0,0.0,0.0,0.0,0.0,0.0,0.0,0.0,0.0,2.9792,2.9792,0.0,0.0,0.0,0.0,0.0,0.0,0.0,0.0,0.0,0.0,0.0,0.0,0.0,0.0,0.0,0.0,0.0,2.9792,2.9792,2.9792,2.9792,2.9792,2.9792,2.9792,2.9792,2.9792,2.9792,2.9792,2.9792,2.9792,2.9998,3.0381,3.0932,3.1426,3.1815,3.2357,3.282,3.3171,3.3171,3.3429,3.3802,3.3802,3.3567,3.3241,3.365,3.3802,3.3802,3.3802,3.3802,3.3802,0.0,0.0,0.0,1.8607,1.8676,1.8822,1.9287,1.9465,1.9548,0.0,1.9895,2.0657,2.1956,2.1379,2.1207,2.2109,2.1746,2.1419,2.1309,2.167,2.1967,2.2081,2.2007,2.2036,2.215,2.2085,2.2207,2.2578,2.2578,2.273,2.3091,2.3091,2.3178,2.3256,0.0,0.0,0.0,0.0,0.0,2.3387,2.4372,2.4872,0.0,0.0,2.6771,0.0,2.7936,2.8307,2.8426,2.9456,2.9792,0.0,0.0,0.0,0.0,0.0,2.9792,0.0,0.0,0.0,0.0,0.0,0.0,0.0,2.9792,2.9792,2.9792,0.0,0.0,0.0,0.0,0.0,0.0,0.0,0.0,0.0,0.0,0.0,0.0,0.0,0.0,0.0,2.9792,2.9792,2.9792,2.9792,2.9792,2.9792,2.9792,2.9792,2.9792,2.9792,2.9792,2.9792,2.9792,2.9895,3.0381,3.1217,3.1426,3.196,3.2749,3.2855,3.3394,3.4177,3.4177,3.4691,3.5504,3.5504,3.4986,3.4245,3.5133,3.5504,3.5504,3.5504,3.5504,3.5504,0.0,0.0,0.0,1.915,1.916,1.9297,1.9727,2.0471,2.1109,2.1424,2.1549,2.189,2.2629,2.2566,2.2645,2.3148,2.3114,2.2676,2.184,2.1836,2.2267,2.3152,2.2679,2.2826,2.3743,2.3165,2.2886,2.2974,2.2974,2.3013,2.3091,2.3091,2.3594,2.4414,2.3507,0.0,0.0,0.0,0.0,2.45,2.4702,0.0,2.6307,2.736,2.8359,2.917,2.9404,2.9495,2.9495,0.0,2.9792,2.9792,0.0,0.0,0.0,0.0,0.0,0.0,0.0,0.0,0.0,0.0,0.0,0.0,2.9792,2.9792,2.9792,0.0,0.0,0.0,0.0,0.0,0.0,0.0,0.0,0.0,0.0,0.0,0.0,0.0,0.0,0.0,2.9792,2.9792,2.9792,2.9792,2.9792,2.9792,2.9792,2.9792,2.9792,2.9792,2.9792,2.9792,2.9792,3.0558,3.1007,3.1217,3.2749,3.3553,3.3739,3.4558,3.5034,3.5213,3.5213,3.5326,3.5504,3.5504,3.5392,3.5246,3.5424,3.5504,3.5504,3.5504,3.5504,3.5504,0.0,0.0,0.0,2.105,2.1092,2.125,2.1628,2.2135,2.2505,2.2706,2.2982,2.3574,2.4633,2.4316,2.4299,2.4987,2.4812,2.4406,2.3872,2.4052,2.4414,2.4965,2.4668,2.4754,2.5324,2.4977,2.4808,2.4808,2.4808,2.4808,2.4808,2.4808,2.5094,2.563,2.5052,0.0,0.0,0.0,2.5136,2.563,2.563,0.0,2.7412,2.853,2.9314,2.9792,2.9792,2.9792,2.9792,2.9792,2.9792,0.0,0.0,2.9792,2.9792,0.0,2.9792,2.9792,0.0,0.0,0.0,2.9792,0.0,0.0,0.0,2.9792,2.9792,0.0,0.0,0.0,0.0,0.0,0.0,0.0,0.0,0.0,0.0,0.0,0.0,0.0,0.0,0.0,2.9792,2.9792,2.9792,2.9792,2.9792,2.9792,2.9792,3.0241,3.0279,2.983,3.0709,3.0983,3.0482,3.1439,3.2141,3.2593,3.3553,3.4245,3.4773,3.5279,3.5504,3.5504,3.5504,3.5504,3.5504,3.5504,3.5504,3.5504,3.5504,3.5504,3.5504,3.5504,3.5504,3.5504,2.1542,0.0,0.0,2.2947,2.3014,2.3149,2.3458,2.374,2.3988,2.4079,2.4479,2.5263,2.6609,2.6108,2.5962,2.6812,2.6503,2.616,2.5959,0.0,2.6595,2.6801,2.6595,2.6607,2.6801,2.6595,2.6524,2.6524,2.6524,2.6524,2.6524,2.6524,2.6595,2.6801,2.6595,0.0,0.0,0.0,0.0,2.6801,0.0,2.7331,2.8215,2.9365,2.9792,2.9792,2.9792,2.9792,2.9792,2.9792,0.0,2.9792,2.9792,2.9792,0.0,0.0,0.0,0.0,0.0,0.0,0.0,0.0,0.0,2.9792,0.0,0.0,0.0,2.9792,0.0,0.0,0.0,0.0,0.0,0.0,0.0,0.0,0.0,0.0,0.0,0.0,0.0,0.0,0.0,2.9792,2.9792,2.9792,2.9972,3.0075,3.0075,3.0983,3.1119,3.0355,3.1792,3.2249,3.1499,3.2393,3.3241,3.3993,3.4211,3.4725,3.5504,3.5504,3.5504,3.5504,3.5504,3.5504,3.5504,3.5504,3.5504,3.5504,3.5504,3.5504,3.5504,3.5504,3.5504,3.5504,2.3564,2.3274,0.0,0.0,2.3436,2.3458,2.3478,2.4659,2.5703,2.6202,2.6308,2.6595,0.0,0.0,0.0,0.0,0.0,0.0,2.6476,0.0,0.0,2.7896,2.7005,2.6964,2.7884,2.7005,2.6524,2.6524,2.6524,2.6524,2.6524,2.6524,2.7005,2.7896,2.6924,0.0,0.0,0.0,2.7046,0.0,2.7936,2.8004,0.0,2.9365,2.9792,2.9792,2.9792,2.9792,2.9792,0.0,2.9792,2.9792,0.0,2.9792,0.0,0.0,0.0,0.0,0.0,0.0,0.0,0.0,2.9792,0.0,0.0,0.0,2.9792,2.9792,0.0,0.0,0.0,0.0,0.0,0.0,0.0,0.0,0.0,0.0,0.0,0.0,0.0,0.0,0.0,2.9792,2.9792,2.9792,3.0558,3.1044,3.1044,3.1924,3.2393,3.2285,3.25,3.2558,3.2464,3.338,3.3876,3.4027,3.4905,3.5392,3.5504,3.5504,3.5504,3.5504,3.5504,3.5504,3.5504,3.5504,3.5504,3.5504,3.5504,3.5504,3.5504,3.5504,3.5504,3.5504,2.4671,2.485,0.0,0.0,2.5493,2.5697,2.5697,2.6517,2.7324,2.7865,2.7938,0.0,0.0,0.0,0.0,0.0,0.0,2.891,0.0,0.0,0.0,0.0,0.0,0.0,0.0,2.8661,2.8422,2.8422,2.8422,2.8422,2.8422,2.8422,2.8673,2.9067,2.8621,0.0,2.9067,0.0,0.0,0.0,0.0,0.0,0.0,2.9624,2.9792,2.9792,2.9792,2.9792,2.9792,0.0,2.9792,0.0,0.0,0.0,0.0,0.0,0.0,0.0,0.0,0.0,0.0,0.0,0.0,0.0,2.9934,0.0,3.0457,0.0,0.0,0.0,0.0,0.0,0.0,0.0,0.0,0.0,0.0,0.0,0.0,0.0,0.0,0.0,0.0,0.0,0.0,0.0,3.1462,3.1997,3.1997,3.289,3.3171,3.2629,3.3685,3.4007,3.3415,3.4361,3.4872,3.4872,3.5294,3.5504,3.5504,3.5504,3.5504,3.5504,3.5504,3.5504,3.5504,3.5504,3.5504,3.5504,3.5504,3.5504,3.5504,3.5504,3.5504,3.5504,2.5983,0.0,0.0,0.0,0.0,2.7557,2.7708,2.8072,2.8536,2.9051,0.0,0.0,2.9741,2.9792,0.0,0.0,0.0,2.9792,0.0,0.0,2.9792,0.0,0.0,0.0,0.0,0.0,2.9792,2.9792,2.9792,2.9792,2.9792,2.9792,2.9792,2.9792,0.0,2.9792,2.9792,0.0,0.0,2.9792,2.9792,2.9792,2.9792,2.9792,2.9792,2.9792,2.9792,2.9792,2.9792,2.9792,2.9972,0.0,3.097,0.0,0.0,0.0,0.0,0.0,3.057,0.0,0.0,0.0,0.0,0.0,0.0,0.0,0.0,0.0,0.0,0.0,0.0,0.0,0.0,0.0,0.0,0.0,0.0,0.0,0.0,0.0,0.0,0.0,0.0,0.0,0.0,3.1573,3.2464,3.2996,3.2996,3.3891,3.4109,3.3429,3.4773,3.5133,3.4428,3.5133,3.5504,3.5504,3.5504,3.5504,3.5504,3.5504,3.5504,3.5504,3.5504,3.5504,3.5504,3.5504,3.5619,3.5814,3.5814,3.5926,3.6085,3.5651,3.5504,3.5504,2.8023,2.762,0.0,0.0,0.0,2.826,2.8762,2.885,2.9076,0.0,0.0,0.0,0.0,0.0,0.0,0.0,0.0,2.9792,2.9792,0.0,2.9792,0.0,0.0,2.9792,0.0,0.0,0.0,2.9792,2.9792,2.9792,2.9792,2.9792,2.9792,2.9792,2.9792,2.9792,2.9792,2.9792,2.9792,2.9792,2.9792,2.9792,2.9792,0.0,2.9792,2.9792,2.9792,0.0,0.0,2.9792,3.0419,0.0,0.0,0.0,0.0,0.0,0.0,0.0,0.0,0.0,0.0,3.2522,0.0,0.0,0.0,0.0,3.2558,0.0,0.0,0.0,0.0,0.0,0.0,3.2593,0.0,0.0,0.0,0.0,0.0,0.0,0.0,0.0,0.0,0.0,0.0,3.2558,3.3415,3.3959,3.3959,3.4905,3.5439,3.5407,3.5472,3.5472,3.5457,3.5472,3.5504,3.5504,3.5504,3.5504,3.5504,3.5504,3.5504,3.5504,3.5504,3.5504,3.5504,3.5504,3.5926,3.6538,3.6538,3.704,3.756,3.6053,3.5504,3.5504,0.0,0.0,0.0,0.0,0.0,2.885,2.9415,2.9503,0.0,0.0,0.0,0.0,0.0,0.0,2.9792,0.0,0.0,2.9792,2.9792,2.9792,0.0,0.0,0.0,2.9792,0.0,0.0,0.0,0.0,0.0,2.9792,2.9792,2.9792,2.9792,2.9792,0.0,2.9792,0.0,0.0,0.0,0.0,0.0,2.9792,2.9792,0.0,0.0,2.9792,2.9792,3.0216,0.0,3.0733,3.1365,3.2249,3.2855,3.2855,3.2713,3.3345,3.3101,0.0,0.0,0.0,3.338,3.2749,0.0,0.0,0.0,0.0,0.0,0.0,0.0,0.0,0.0,0.0,3.3739,3.4409,3.4524,0.0,0.0,0.0,0.0,0.0,0.0,0.0,0.0,0.0,0.0,3.3518,3.4442,3.4986,3.4986,3.5326,3.5504,3.5504,3.5504,3.5504,3.5504,3.5504,3.5504,3.5504,3.5504,3.5504,3.5504,3.5504,3.5504,3.5537,3.6038,3.6228,3.629,3.6799,3.7175,3.7397,3.7397,3.7573,3.7735,3.7205,3.7011,3.7011,2.9164,0.0,0.0,0.0,0.0,0.0,0.0,0.0,0.0,0.0,2.9792,0.0,2.9792,0.0,2.9792,0.0,2.9792,2.9792,2.9792,2.9792,0.0,2.9792,2.9792,0.0,0.0,0.0,0.0,0.0,0.0,2.9792,2.9792,2.9792,2.9792,2.9792,0.0,2.9792,2.9792,0.0,2.9792,0.0,0.0,3.0113,0.0,0.0,3.0394,2.9792,0.0,3.0419,3.1217,3.1217,3.2069,3.3206,3.3808,3.3822,3.3754,3.4361,3.4109,3.365,3.365,3.4075,0.0,3.3788,3.4075,0.0,3.3754,0.0,0.0,0.0,0.0,0.0,0.0,0.0,0.0,3.5392,3.5504,3.5504,0.0,3.5504,0.0,0.0,0.0,0.0,0.0,0.0,3.4543,3.4543,3.5133,3.5504,0.0,0.0,3.5504,3.5504,3.5504,3.5504,3.5504,3.5504,3.5504,3.5504,3.5504,3.5504,3.5504,3.5782,3.5894,3.5911,3.6692,3.7024,3.707,3.7573,3.795,3.8206,3.8206,3.8374,3.8541,3.8007,3.7793,3.7835,0.0,0.0,0.0,0.0,2.9792,0.0,0.0,0.0,2.9792,0.0,2.9792,2.9792,2.9792,2.9792,2.9792,2.9792,2.9792,0.0,2.9792,2.9792,0.0,0.0,2.9792,2.9792,2.9792,0.0,0.0,0.0,0.0,0.0,2.9792,2.9792,2.9792,2.9792,2.9792,0.0,2.9792,2.9792,2.983,2.9934,3.0833,3.0696,3.0139,3.1938,3.1476,2.9934,2.9934,3.052,3.1352,3.1352,3.2558,3.4061,3.4061,3.4725,3.5504,3.5504,3.5504,3.5504,3.5504,3.5504,3.5504,3.5504,0.0,0.0,0.0,0.0,3.5504,0.0,0.0,0.0,0.0,0.0,0.0,3.5504,3.5504,3.5504,3.5504,0.0,0.0,0.0,0.0,0.0,0.0,3.5504,3.5504,3.5504,3.5504,3.5504,0.0,0.0,3.5504,3.5504,3.5504,3.5504,3.5504,3.5504,3.5504,3.5504,3.5537,3.5554,3.5587,3.6306,3.6661,3.6691,3.7515,3.7835,3.7863,3.7908,3.8346,3.8962,3.8962,3.9437,3.9927,3.8458,3.7892,3.8007,2.9792,2.9792,2.9792,0.0,2.9792,2.9792,0.0,0.0,0.0,0.0,2.9792,2.9792,2.9792,2.9792,2.9792,2.9792,2.9792,0.0,0.0,0.0,0.0,2.9792,2.9792,2.9792,2.9792,2.9792,0.0,2.9792,0.0,0.0,2.9792,2.9792,2.9792,2.9792,0.0,0.0,2.9792,2.9792,3.0216,3.0871,3.1106,3.1462,0.0,0.0,3.2285,3.1865,3.1865,3.2464,3.3276,3.3276,3.4109,3.51,3.51,3.5279,3.5504,3.5504,3.5504,3.5504,3.5504,3.5504,3.5504,3.5504,3.5504,3.5504,0.0,0.0,0.0,0.0,0.0,0.0,0.0,0.0,0.0,0.0,0.0,0.0,0.0,0.0,0.0,3.5504,0.0,0.0,0.0,3.5504,3.5504,3.5504,3.5504,3.5504,0.0,0.0,0.0,3.5504,3.5504,3.5504,3.5504,3.5504,3.5504,3.5504,3.6054,3.6306,3.6337,3.713,3.7485,3.7544,3.8302,3.8608,3.8663,3.9279,3.961,3.9782,3.9782,3.9927,4.0045,3.9653,3.9506,3.9532,2.9792,0.0,0.0,2.9792,0.0,0.0,2.9792,0.0,0.0,2.9792,2.9792,0.0,2.9792,2.9792,2.9792,2.9792,2.9792,0.0,2.9792,0.0,0.0,2.9792,2.9792,2.9792,2.9792,2.9792,0.0,2.9792,0.0,0.0,2.9792,2.9792,2.9792,2.9792,0.0,2.9792,0.0,3.0241,3.0733,3.1278,3.2105,0.0,0.0,3.3547,3.3602,3.3276,3.3719,3.3925,3.3993,3.3993,3.4658,3.5504,3.5504,3.5504,3.5504,3.5504,3.5504,3.5504,3.5504,3.5504,3.5504,3.5504,3.5504,3.5504,3.5504,3.5504,3.5504,0.0,0.0,0.0,0.0,0.0,0.0,0.0,0.0,0.0,0.0,0.0,0.0,0.0,0.0,0.0,0.0,3.5504,3.5504,3.5504,3.5504,3.5504,0.0,0.0,0.0,3.5504,3.5504,3.5504,3.5504,3.5814,3.5975,3.6006,3.6753,3.7114,3.7144,3.7933,3.8274,3.833,3.9086,3.9437,3.9463,3.9927,4.0096,4.0096,4.0096,4.0096,4.0096,4.0096,4.0096,4.0096,0.0,0.0,0.0,0.0,0.0,0.0,0.0,2.9792,0.0,2.9792,0.0,2.9792,2.9792,2.9792,2.9792,2.9792,0.0,2.9792,2.9792,2.9792,2.9792,2.9792,2.9792,2.9792,2.9792,2.9792,0.0,0.0,0.0,0.0,2.9792,2.9792,2.9792,0.0,0.0,0.0,0.0,3.0871,3.1352,3.1706,3.3345,3.3602,3.315,3.4854,3.4953,3.4312,3.518,3.4953,3.4211,3.4211,3.4758,3.5504,3.5504,3.5504,3.5504,3.5504,3.5504,3.5504,3.5504,3.5504,3.5504,3.5504,3.5504,3.5504,3.5504,3.5504,3.5504,3.5504,3.5504,3.5504,0.0,0.0,0.0,0.0,0.0,0.0,0.0,0.0,0.0,0.0,0.0,0.0,0.0,0.0,0.0,3.5504,3.5587,0.0,0.0,0.0,0.0,3.5636,3.5636,3.5636,3.5636,0.0,3.6768,3.6768,3.7557,3.795,3.7978,3.8734,3.9059,3.9113,3.9808,4.0096,4.0096,4.0096,4.0096,4.0096,4.0096,4.0096,4.0096,4.0096,4.0096,4.0096,0.0,0.0,0.0,0.0,0.0,2.9792,2.9792,2.9792,2.9792,2.9792,2.9792,2.9792,2.9792,2.9792,2.9792,2.9792,2.9792,0.0,0.0,0.0,0.0,2.9792,2.9792,2.9792,2.9792,2.9792,2.9792,0.0,0.0,0.0,2.9792,2.9792,0.0,0.0,0.0,0.0,3.097,3.1143,0.0,3.3518,3.3876,3.4394,3.5034,3.5359,3.5392,3.5246,3.5439,3.5392,3.5246,3.5246,3.5359,3.5504,3.5504,3.5504,3.5504,3.5504,3.5504,3.5504,3.5504,3.5504,3.5504,3.5504,3.5504,3.5504,3.5504,3.5504,3.5504,3.5504,3.5504,3.5504,3.5504,0.0,0.0,0.0,0.0,0.0,0.0,0.0,0.0,0.0,0.0,0.0,0.0,0.0,0.0,0.0,0.0,0.0,0.0,0.0,0.0,0.0,3.6415,0.0,0.0,0.0,3.7602,3.7602,3.8358,3.8718,3.8745,3.9532,3.9901,3.9901,4.0045,4.0096,4.0096,4.0096,4.0096,4.0096,4.0096,4.0096,4.0096,4.0096,4.0096,4.0096,0.0,0.0,0.0,0.0,0.0,0.0,0.0,2.9792,0.0,2.9792,2.9792,2.9792,2.9792,2.9792,2.9792,2.9792,2.9792,2.9792,2.9792,2.9792,2.9792,2.9792,2.9792,0.0,3.052,3.052,3.052,3.052,0.0,0.0,2.9792,2.9792,0.0,0.0,0.0,3.1044,0.0,0.0,0.0,3.4061,3.4576,3.5067,3.5504,3.5504,3.5504,3.5504,3.5504,3.5504,3.5504,3.5504,3.5504,3.5504,3.5504,3.5504,3.5504,3.5504,3.5504,3.5504,3.5504,3.5504,3.5504,3.5504,3.5504,3.5504,3.5504,3.5504,3.5504,3.5504,3.5814,3.6212,3.6631,3.6995,0.0,0.0,0.0,0.0,0.0,0.0,0.0,0.0,0.0,0.0,0.0,0.0,0.0,0.0,0.0,0.0,0.0,0.0,0.0,0.0,0.0,0.0,0.0,0.0,0.0,3.8386,3.9156,3.9516,3.9558,3.9927,4.0096,4.0096,4.0096,4.0096,4.0096,4.0096,4.0096,4.0096,4.0096,4.0096,4.0096,4.0096,4.0096,4.0096,0.0,2.9792,0.0,0.0,2.9792,0.0,2.9792,2.9792,2.9792,2.9792,2.9792,2.9792,2.9792,2.9792,2.9792,2.9792,2.9792,2.9792,2.9792,2.9792,2.9792,2.9792,2.9792,3.0241,3.118,3.1217,3.1278,0.0,0.0,0.0,0.0,0.0,0.0,0.0,0.0,0.0,0.0,0.0,3.4129,3.4394,3.518,3.5504,3.5504,3.5504,3.5504,3.5504,3.5504,3.5504,3.5504,3.5504,3.5504,3.5504,3.5504,3.5504,3.5504,3.5504,3.5504,3.5504,3.5504,3.5504,3.5504,3.5504,3.5504,3.5504,3.5504,3.5504,3.5522,3.5701,3.6337,3.7054,3.769,3.7921,0.0,0.0,0.0,0.0,0.0,0.0,0.0,0.0,0.0,0.0,0.0,0.0,0.0,0.0,0.0,0.0,0.0,0.0,0.0,0.0,0.0,3.8035,3.8035,0.0,3.9166,3.9166,3.9808,4.0096,4.0096,4.0096,4.0096,4.0096,4.0096,4.0096,4.0096,4.0096,4.0096,4.0096,4.0096,4.0096,4.0096,4.0096,4.0096,4.0096,0.0,0.0,0.0,0.0,0.0,0.0,2.9792,2.9792,2.9792,2.9792,2.9792,2.9792,2.9792,2.9792,2.9792,2.9792,2.9792,2.9792,2.9792,2.9792,2.9792,2.9792,2.9792,3.0241,3.118,3.1217,3.1609,0.0,0.0,0.0,0.0,0.0,0.0,0.0,0.0,0.0,0.0,3.3959,3.4543,3.5359,3.5472,3.5504,3.5504,3.5504,3.5504,3.5504,3.5504,3.5504,3.5504,3.5504,3.5504,3.5504,3.5504,3.5504,3.5504,3.5504,3.5504,3.5504,3.5504,3.5504,3.5504,3.5504,3.5504,3.5504,3.5504,3.5504,3.5701,3.6353,3.713,3.769,3.7793,3.8346,3.8799,0.0,0.0,0.0,0.0,0.0,0.0,0.0,0.0,0.0,0.0,4.1088,0.0,0.0,0.0,0.0,0.0,0.0,0.0,3.8799,0.0,3.8799,3.8799,3.9584,3.9995,3.9995,4.007,4.0096,4.0096,4.0096,4.0096,4.0096,4.0096,4.0096,4.0096,4.0096,4.0096,4.0096,4.0096,4.0096,4.0096,4.0096,4.0096,4.0096,0.0,0.0,0.0,0.0,0.0,0.0,0.0,2.9792,2.9792,2.9792,2.9792,2.9792,2.9792,2.9792,2.9792,2.9792,2.9792,3.0037,3.0582,3.062,3.0871,3.1439,3.1476,3.1901,3.2855,3.289,3.3066,0.0,0.0,0.0,0.0,0.0,0.0,0.0,0.0,3.3959,3.4905,3.4905,3.5133,3.5504,3.5504,3.5504,3.5504,3.5504,3.5504,3.5504,3.5504,3.5504,3.5504,3.5504,3.5504,3.5504,3.5504,3.5504,3.5504,3.5504,3.5504,3.5504,3.5504,3.5504,3.5504,3.5504,3.5504,3.5504,3.5504,3.5504,3.5701,3.6446,3.76,3.8624,3.9076,3.9411,3.961,0.0,0.0,0.0,0.0,0.0,0.0,0.0,0.0,0.0,0.0,0.0,0.0,0.0,0.0,0.0,0.0,0.0,0.0,4.0943,0.0,4.0943,4.0943,4.1259,4.1433,4.1433,4.1433,4.1433,4.1433,4.1433,4.1433,4.1433,4.1433,4.1433,4.1433,4.1433,4.1433,4.1433,4.1433,4.1433,4.1433,4.1433,4.1433,4.1485,2.9792,0.0,2.9792,0.0,2.9792,2.9792,2.9792,2.9792,2.9792,2.9792,2.9792,2.9792,2.9792,2.9792,2.9792,2.9792,2.9792,3.0216,3.1143,3.1217,3.1609,3.2558,3.2593,0.0,3.3993,3.3993,3.4129,3.4428,3.4129,0.0,0.0,0.0,0.0,0.0,3.4312,3.4839,3.5504,3.5504,3.5504,3.5504,3.5504,3.5504,3.5504,3.5504,3.5504,3.5504,3.5504,3.5504,3.5504,3.5504,3.5504,3.5504,3.5504,3.5504,3.5504,3.5504,3.5504,3.5504,3.5504,3.5504,3.5504,3.5504,3.5668,3.5799,3.5799,3.6022,3.6399,3.7128,3.8342,3.9437,3.9995,4.0096,4.0096,4.0096,0.0,0.0,0.0,0.0,0.0,0.0,0.0,4.254,4.2303,0.0,0.0,0.0,0.0,0.0,0.0,0.0,0.0,0.0,0.0,0.0,4.2286,4.2286,4.2286,4.2286,4.2286,4.2286,4.2286,4.2286,4.2286,4.2286,4.2286,4.2286,4.2286,4.2286,4.2286,4.2313,4.2507,4.2594,4.262,4.2791,4.2868,4.2943,2.9792,2.9792,2.9792,2.9792,2.9792,2.9792,2.9792,2.9792,2.9792,2.9792,2.9792,2.9792,2.9792,2.9792,2.9792,2.9792,2.9792,3.0216,3.1143,3.1217,3.1609,0.0,0.0,3.3031,3.3993,3.3993,3.4476,3.5472,0.0,0.0,3.5472,0.0,3.4953,3.4027,3.5019,3.5504,3.5504,3.5504,3.5504,3.5504,3.5504,3.5504,3.5504,3.5504,3.5504,3.5504,3.5504,3.5504,3.5504,3.5504,3.5504,3.5504,3.5504,3.5504,3.5504,3.5504,3.5504,3.5504,3.5504,3.5504,3.5504,3.5504,3.6054,3.6584,3.6584,3.7203,3.7978,3.8718,3.9516,4.007,4.0096,4.0096,4.0096,4.0096,0.0,0.0,0.0,0.0,0.0,0.0,4.2946,4.3115,4.2354,0.0,0.0,0.0,0.0,0.0,0.0,0.0,0.0,4.2286,4.2286,0.0,4.2286,4.2286,4.2286,4.2286,4.2286,4.2286,4.2286,4.2286,4.2286,4.2286,4.2286,4.2286,4.2286,4.2286,4.2286,4.2366,4.3036,4.3291,4.3346,4.3948,4.4196,4.4196,2.9792,2.9792,2.9792,2.9792,2.9792,2.9792,2.9792,2.9792,2.9792,2.9792,2.9792,3.0037,3.0696,3.0177,2.9792,0.0,3.0381,3.1156,0.0,3.2749,3.3533,3.4524,3.4591,3.4706,3.5019,3.5019,3.518,3.5504,0.0,0.0,0.0,3.5504,3.5326,3.5019,3.5359,3.5504,3.5504,3.5504,3.5504,3.5504,3.5504,3.5504,3.5504,3.5504,3.5504,3.5504,3.5504,3.5504,3.5504,3.5504,3.5504,3.5504,3.5504,3.5504,3.5504,3.5504,3.5504,3.5504,3.5504,3.5504,3.5619,3.6117,3.6415,3.6722,3.7308,3.8019,3.8608,3.8854,3.9542,4.0096,4.0096,4.0493,4.0849,4.0849,4.1457,0.0,0.0,0.0,0.0,0.0,4.3741,4.4113,0.0,4.4327,0.0,0.0,0.0,0.0,0.0,0.0,0.0,0.0,4.3887,0.0,4.3887,4.3887,4.3887,4.3887,4.3887,4.3887,4.3887,4.3887,4.3887,4.3887,4.3887,4.3887,4.3898,4.4299,4.4492,4.4527,4.5173,4.5422,4.5446,4.5617,4.5687,4.5774,2.9792,2.9792,2.9792,2.9792,2.9792,2.9792,2.9792,2.9792,2.9792,2.9792,2.9792,3.0139,3.1106,3.0696,0.0,3.0809,3.1402,3.2141,3.3066,3.3671,3.4461,3.5472,3.5504,3.5504,3.5504,3.5504,0.0,3.5504,3.5504,3.5504,3.5504,3.5504,3.5504,3.5504,3.5504,3.5504,3.5504,3.5504,3.5504,3.5504,3.5504,3.5504,3.5504,3.5504,3.5504,3.5504,3.5504,3.5504,3.5504,3.5504,3.5504,3.5504,3.5504,3.5701,3.5863,3.5587,3.5504,3.5554,3.5846,3.5911,3.6086,3.6859,3.7247,3.7671,3.8486,3.9022,3.9342,3.9342,3.9975,4.0493,4.0493,4.1119,4.161,4.161,4.2236,4.2709,4.2709,0.0,0.0,0.0,0.0,0.0,0.0,4.4615,4.4615,0.0,0.0,0.0,0.0,0.0,0.0,4.4615,4.4615,0.0,4.4615,4.4615,4.4615,4.4615,4.4615,4.4615,4.4615,4.4615,4.4615,4.4598,4.4841,4.4934,4.4971,4.5597,4.5833,4.589,4.6524,4.6796,4.6801,4.7044,4.711,4.7176,2.9792,2.9792,2.9792,0.0,2.9792,0.0,2.9792,2.9792,2.9792,2.9792,2.9869,3.0241,3.118,3.1352,3.1779,3.2713,0.0,0.0,0.0,3.4061,3.4509,3.5472,3.5504,3.5504,3.5504,3.5504,3.5504,3.5504,3.5504,3.5504,3.5504,3.5504,3.5504,3.5504,3.5504,3.5504,3.5504,3.5504,3.5504,3.5504,3.5504,3.5504,3.5504,3.5504,3.5504,3.5504,3.5504,3.5504,3.5504,3.5554,3.5587,3.5587,3.5651,3.6117,3.6538,3.5782,3.5619,3.5814,3.6508,3.6661,3.6873,3.769,3.8414,3.9166,3.9927,4.0146,4.018,4.018,4.0747,4.1288,4.1288,4.188,4.2371,4.2371,4.3014,4.3477,4.3477,0.0,0.0,0.0,0.0,0.0,4.4615,4.4615,4.4615,0.0,0.0,0.0,0.0,0.0,4.4615,4.4615,4.4615,4.4615,4.4615,4.4615,4.4615,4.4615,4.4615,4.4615,4.4615,4.4615,4.4626,4.4692,4.5258,4.552,4.5597,4.6216,4.6478,4.6548,4.7194,4.7449,4.753,4.8094,4.8306,4.8306,0.0,0.0,2.9792,2.9792,2.9792,2.9792,2.9792,2.9792,2.9792,2.9792,3.0419,3.1217,3.2177,3.2925,3.3754,3.4739,3.4109,3.3774,3.3993,3.4725,3.5246,3.5504,3.5504,3.5504,3.5504,3.5504,3.5504,3.5504,3.5504,3.5504,3.5504,3.5504,3.5504,3.5504,3.5504,3.5504,3.5504,3.5504,3.5504,3.5504,3.5504,3.5504,3.5504,3.5504,3.5504,3.5504,3.5504,3.5504,3.5587,3.6134,3.6337,3.6461,3.7055,3.7383,3.7368,3.6569,3.6783,3.7294,3.7456,3.7515,3.7719,3.8442,3.9236,3.9876,4.0045,4.0527,4.0933,4.0933,4.1525,4.2033,4.2033,4.2642,4.3149,4.3149,4.3809,4.4316,4.4316,4.4496,0.0,0.0,4.4615,4.4615,4.4615,4.4615,4.4615,0.0,0.0,0.0,0.0,4.4615,4.4615,4.4615,4.4615,4.4615,4.4615,4.4615,4.4615,4.4615,4.4615,4.4615,4.4615,4.4615,4.4852,4.5294,4.5433,4.5757,4.624,4.6887,4.7172,4.7216,4.7856,4.8075,4.8094,4.8248,4.8306,4.8306,2.9792,3.0139,3.0457,3.0457,3.0771,3.1095,3.1095,3.1095,3.1095,3.1095,3.1513,3.2213,3.3136,3.3705,3.4394,3.5392,3.4986,3.4691,3.4691,3.5213,3.5504,3.5504,3.5504,3.5504,3.5504,3.5504,3.5504,3.5504,3.5504,3.5504,3.5504,3.5504,3.5504,3.5504,3.5504,3.5504,3.5504,3.5504,3.5504,3.5504,3.5504,3.5504,3.5537,3.5863,3.6006,3.607,3.643,3.6538,3.66,3.701,3.716,3.7203,3.7661,3.8035,3.8218,3.7787,3.7732,3.7863,3.8218,3.8302,3.8486,3.9262,4.0034,4.0595,4.0595,4.117,4.1694,4.1694,4.2286,4.2811,4.2811,4.3436,4.3944,4.3944,4.4316,4.4615,4.4615,4.4615,0.0,4.4615,4.4615,4.4615,4.4615,4.4615,4.4615,4.4615,4.4869,0.0,4.4998,4.5267,4.5294,4.5025,4.4998,4.5125,4.5407,4.5407,4.5407,4.5407,4.5407,4.5407,4.5407,4.5407,4.5597,4.5915,4.6233,4.6548,4.691,4.7533,4.7797,4.7838,4.8172,4.8306,4.8306,4.8306,4.8306,4.8306,2.996,3.0658,3.1254,3.1389,3.2069,3.2593,3.2593,3.2593,3.2593,3.2593,3.2713,3.3101,3.391,3.4129,3.4576,3.5439,3.5504,3.5504,3.5504,3.5504,3.5504,3.5504,3.5504,3.5504,3.5504,3.5504,3.5504,3.5504,3.5504,3.5504,3.5504,3.5504,3.5504,3.5504,3.5504,3.5504,3.5504,3.5504,3.5504,3.5504,3.5504,3.5569,3.5718,3.6353,3.6676,3.6873,3.7544,3.7793,3.7822,3.7921,3.7978,3.7978,3.8092,3.8596,3.9086,3.9086,3.8652,3.829,3.8924,3.9169,3.9402,4.0095,4.0815,4.1373,4.1373,4.1931,4.2472,4.2472,4.3064,4.3589,4.3589,4.413,4.4615,4.4615,4.4615,4.4615,4.4615,0.0,4.4615,4.4615,4.4615,4.4615,4.4615,4.4615,4.4626,4.472,4.5205,4.5545,4.5622,4.6119,4.6216,4.5808,4.5699,4.5865,4.6389,4.6407,4.6407,4.6407,4.6407,4.6407,4.6407,4.6407,4.6454,4.6571,4.715,4.7449,4.7572,4.8075,4.8306,4.8306,4.8306,4.8306,4.8306,4.8306,4.8306,4.8306,3.0833,3.1106,3.1462,3.2249,3.25,3.2593,3.2593,3.2593,3.2593,3.2593,3.3276,3.3842,3.3993,3.4758,3.5326,3.5504,3.5504,3.5504,3.5504,3.5504,3.5504,3.5504,3.5504,3.5504,3.5504,3.5504,3.5504,3.5504,3.5504,3.5504,3.5504,3.5504,3.5504,3.5504,3.5504,3.5504,3.5504,3.5504,3.5504,3.5504,3.5504,3.5863,3.6446,3.6554,3.7024,3.7632,3.7764,3.7793,3.7892,3.8525,3.8745,3.8843,3.9532,3.9825,3.9927,3.9927,3.985,3.9756,3.9876,4.0373,4.0871,4.1009,4.1576,4.2117,4.2117,4.2709,4.325,4.325,4.3859,4.4401,4.4401,4.453,4.4615,4.4615,4.4615,4.4615,4.4615,0.0,4.4615,4.4615,4.4615,4.4615,4.4615,4.4615,4.4814,4.532,4.5433,4.5707,4.624,4.6359,4.6618,4.7084,4.6548,4.6312,4.6407,4.6407,4.6407,4.6407,4.6407,4.6407,4.6407,4.6407,4.671,4.7237,4.7363,4.7695,4.8172,4.8267,4.8306,4.8306,4.8306,4.8306,4.8306,4.8306,4.8306,4.8306,3.1106,3.1997,3.2855,3.3276,3.3788,3.4158,3.4158,3.4158,3.4158,3.4158,3.4543,3.4806,3.4806,3.5213,3.5504,3.5504,3.5504,3.5504,3.5504,3.5504,3.5504,3.5504,3.5504,3.5504,3.5504,3.5504,3.5504,3.5504,3.5504,3.5504,3.5504,3.5504,3.5504,3.5504,3.5504,3.5504,3.5504,3.5504,3.5504,3.5537,3.5911,3.6306,3.6691,3.7526,3.806,3.8442,3.8887,3.9022,3.9076,3.9437,3.9542,3.961,3.9978,4.0096,4.018,4.0561,4.0679,4.0679,4.0679,4.1221,4.1779,4.1779,4.2354,4.2895,4.2895,4.3487,4.4045,4.4045,4.4333,4.4615,4.4615,4.4615,4.4615,4.4615,4.4615,0.0,0.0,4.4615,4.4615,4.4615,4.4615,4.4615,4.4615,4.4615,4.4852,4.5459,4.5808,4.6264,4.691,4.7259,4.7554,4.7858,4.7575,4.7431,4.7431,4.7431,4.7431,4.7431,4.7431,4.7431,4.7431,4.7431,4.7575,4.7879,4.7879,4.8055,4.8306,4.8306,4.8306,4.8306,4.8306,4.8306,4.8306,4.8306,4.8306,4.8306,3.1815,3.3031,3.4061,3.4312,3.4986,3.5504,3.5504,3.5504,3.5504,3.5504,3.5504,3.5504,3.5504,3.5504,3.5504,3.5504,3.5504,3.5504,3.5504,3.5504,3.5504,3.5504,3.5504,3.5504,3.5504,3.5504,3.5504,3.5504,3.5504,3.5504,3.5504,3.5504,3.5504,3.5504,3.5504,3.5504,3.5504,3.5668,3.575,3.5814,3.6569,3.6994,3.7261,3.8453,3.9032,3.9262,3.9876,4.0096,4.0096,4.0096,4.0096,4.013,4.0316,4.0367,4.0519,4.1238,4.1593,4.1677,4.1508,4.1982,4.2557,4.2557,4.3115,4.369,4.369,4.4147,4.4615,4.4615,4.4615,4.4615,4.4615,4.4615,4.4615,4.4615,0.0,0.0,0.0,4.4615,4.4615,4.4615,4.472,4.4814,4.4814,4.4934,4.5284,4.5908,4.6359,4.6932,4.7572,4.8055,4.8306,4.8306,4.8306,4.8306,4.8306,4.8306,4.8306,4.8306,4.8306,4.8306,4.8306,4.8306,4.8306,4.8306,4.8306,4.8306,4.8306,4.8306,4.8306,4.8306,4.8306,4.8306,4.8306,4.8306,4.8306,4.8306,3.3636,3.391,3.4279,3.5246,3.5439,3.5504,3.5504,3.5504,3.5504,3.5504,3.5504,3.5504,3.5504,3.5504,3.5504,3.5504,3.5504,3.5504,3.5504,3.5504,3.5504,3.5504,3.5504,3.5504,3.5504,3.5504,3.5504,3.5504,3.5504,3.5504,3.5504,3.5504,3.5504,3.5504,3.5504,3.5504,3.5522,3.6228,3.6523,3.6584,3.7397,3.8104,3.8728,3.8854,3.9368,4.002,4.007,4.0096,4.0096,4.0096,4.0096,4.0231,4.0899,4.1119,4.1271,4.1999,4.2709,4.3071,4.2388,4.276,4.3308,4.3308,4.391,4.4513,4.4513,4.4564,4.4615,4.4615,4.4615,4.4615,4.4615,4.4615,4.4615,4.4615,0.0,0.0,4.4615,4.4615,4.4615,4.4615,4.5089,4.5433,4.5433,4.594,4.6548,4.7194,4.7299,4.7593,4.8191,4.8287,4.8306,4.8306,4.8306,4.8306,4.8306,4.8306,4.8306,4.8306,4.8306,4.8306,4.8306,4.8306,4.8306,4.8306,4.8306,4.8306,4.8306,4.8306,4.8306,4.8306,4.8306,4.8306,4.8306,4.8306,4.8306,4.8306,3.391,3.4509,3.5052,3.5424,3.5504,3.5504,3.5504,3.5504,3.5504,3.5504,3.5504,3.5504,3.5504,3.5504,3.5504,3.5504,3.5504,3.5504,3.5504,3.5504,3.5504,3.5504,3.5504,3.5504,3.5504,3.5504,3.5504,3.5504,3.5504,3.5504,3.5504,3.5504,3.5504,3.5504,3.5504,3.575,3.6196,3.6461,3.6889,3.7411,3.8189,3.8635,3.8962,3.9463,3.9833,4.0096,4.0096,4.0096,4.018,4.0629,4.0781,4.0899,4.1644,4.188,4.2033,4.2777,4.3538,4.4079,4.3819,4.3927,4.413,4.413,4.435,4.4615,4.4615,4.4615,4.4615,4.4615,4.4615,4.4615,4.4615,4.4615,4.4615,4.4615,0.0,4.472,4.5115,4.5169,4.5294,4.5673,4.5915,4.6063,4.6063,4.6264,4.6664,4.7342,4.7406,4.7656,4.8267,4.8306,4.8306,4.8306,4.8306,4.8306,4.8306,4.8306,4.8306,4.8306,4.8306,4.8306,4.8306,4.8306,4.8306,4.8306,4.8306,4.8306,4.8306,4.8306,4.8306,4.8306,4.8306,4.8306,4.8306,4.8306,4.8306,4.8306,3.4461,3.5019,3.5504,3.5504,3.5504,3.5504,3.5504,3.5504,3.5504,3.5504,3.5504,3.5504,3.5504,3.5504,3.5504,3.5504,3.5504,3.5504,3.5504,3.5504,3.5504,3.5504,3.5504,3.5504,3.5504,3.5504,3.5504,3.5504,3.5504,3.5504,3.5504,3.5504,3.5619,3.5846,3.5846,3.6259,3.6994,3.7217,3.7629,3.8206,3.8978,3.9289,3.9342,3.9901,4.0096,4.013,4.0367,4.0468,4.0544,4.1305,4.1542,4.1677,4.2405,4.2811,4.3115,4.3623,4.4164,4.4615,4.4615,4.4615,4.4615,4.4615,4.4615,4.4615,4.4615,4.4615,4.4615,4.4615,4.4615,4.4615,4.4615,4.4615,4.4615,4.4615,4.4776,4.5025,4.5433,4.5673,4.594,4.6359,4.6594,4.671,4.671,4.6892,4.7176,4.7656,4.7677,4.7858,4.8287,4.8306,4.8306,4.8306,4.8306,4.8306,4.8306,4.8306,4.8306,4.8306,4.8306,4.8306,4.8306,4.8306,4.8306,4.8306,4.8306,4.8306,4.8306,4.8306,4.8306,4.8306,4.8306,4.8306,4.8306,4.8306,4.8306,4.8306,3.5504,3.5504,3.5504,3.5504,3.5504,3.5504,3.5504,3.5504,3.5504,3.5504,3.5504,3.5504,3.5504,3.5504,3.5504,3.5504,3.5504,3.5504,3.5504,3.5504,3.5504,3.5504,3.5504,3.5504,3.5504,3.5504,3.5504,3.5504,3.5504,3.5504,3.5504,3.5504,3.5894,3.6615,3.6615,3.707,3.7863,3.858,3.8908,3.8962,3.9782,4.0096,4.0113,4.0113,4.0113,4.0214,4.095,4.1221,4.1322,4.2049,4.2303,4.2439,4.32,4.3961,4.4615,4.4615,4.4615,4.4615,4.4615,4.4615,4.4615,4.4615,4.4615,4.4615,4.4615,4.4615,4.4615,4.4615,4.4615,4.4615,4.4615,4.4598,4.4598,4.4598,4.5115,4.5511,4.5494,4.6039,4.6407,4.6413,4.6999,4.7406,4.7406,4.7937,4.8306,4.8306,4.8306,4.8306,4.8306,4.8306,4.8306,4.8306,4.8306,4.8306,4.8306,4.8306,4.8306,4.8306,4.8306,4.8306,4.8306,4.8306,4.8306,4.8306,4.8306,4.8306,4.8306,4.8306,4.8306,4.8306,4.8306,4.8306,4.8306,4.8306,4.8306,4.8306,3.5504,3.5504,3.5504,3.5504,3.5504,3.5504,3.5504,3.5504,3.5504,3.5504,3.5504,3.5504,3.5504,3.5504,3.5504,3.5504,3.5504,3.5504,3.5504,3.5504,3.5504,3.5504,3.5504,3.5504,3.5504,3.5504,3.5504,3.5504,3.5504,3.575,3.6275,3.6275,3.6692,3.7456,3.7456,3.7847,3.858,3.8799,3.9236,3.9756,3.9995,4.0417,4.0865,4.0865,4.1187,4.166,4.188,4.1965,4.2083,4.2828,4.3081,4.3217,4.3995,4.4429,4.4615,4.4615,4.4615,4.4615,4.4615,4.4615,4.4615,4.4615,4.4615,4.4615,4.4615,4.4615,4.4615,4.4615,4.4615,4.4615,4.4615,4.4961,4.5232,4.5232,4.5732,4.6288,4.6774,4.6977,4.7259,4.7697,4.7917,4.8035,4.8035,4.8191,4.8306,4.8306,4.8306,4.8306,4.8306,4.8306,4.8306,4.8306,4.8306,4.8306,4.8306,4.8306,4.8306,4.8306,4.8306,4.8306,4.8306,4.8306,4.8306,4.8306,4.8306,4.8306,4.8306,4.8306,4.8306,4.8306,4.8306,4.8306,4.8306,4.8306,4.8477,4.8709,3.5504,3.5504,3.5504,3.5504,3.5504,3.5504,3.5504,3.5504,3.5504,3.5504,3.5504,3.5504,3.5504,3.5504,3.5504,3.5504,3.5504,3.5504,3.5504,3.5504,3.5504,3.5504,3.5504,3.5504,3.5504,3.5504,3.5636,3.5958,3.5958,3.6321,3.7054,3.7054,3.7499,3.8234,3.8234,3.8826,3.9818,3.9818,4.0266,4.0976,4.0976,4.1221,4.1644,4.1644,4.1914,4.2337,4.2625,4.2743,4.2844,4.3623,4.3876,4.3961,4.4462,4.4615,4.4615,4.4615,4.4615,4.4615,4.4615,4.4615,4.4615,4.4615,4.4615,4.4615,4.4615,4.4615,4.4615,4.4615,4.4615,4.4682,4.4906,4.5258,4.5571,4.5833,4.6383,4.6932,4.7342,4.7614,4.7897,4.8267,4.8306,4.8306,4.8306,4.8306,4.8306,4.8306,4.8306,4.8306,4.8306,4.8306,4.8306,4.8306,4.8306,4.8306,4.8306,4.8306,4.8306,4.8306,4.8306,4.8306,4.8306,4.8306,4.8306,4.8306,4.8306,4.8306,4.8306,4.8306,4.8306,4.8325,4.8477,4.855,4.8568,4.871,4.893,4.9139,3.5669,3.5669,3.5669,3.5669,3.5669,3.5669,3.5669,3.5669,3.5654,3.5609,3.5594,3.5564,3.5519,3.5504,3.5504,3.5504,3.5504,3.5504,3.5504,3.5554,3.5587,3.5587,3.5729,3.5791,3.5791,3.5681,3.5926,3.6615,3.6661,3.7145,3.7988,3.7988,3.8432,3.9214,3.9214,3.9977,4.1305,4.1305,4.1694,4.2286,4.2286,4.2337,4.2388,4.2388,4.2422,4.2574,4.3284,4.3521,4.3639,4.4333,4.4615,4.4615,4.4615,4.4615,4.4615,4.4615,4.4626,4.4665,4.4665,4.472,4.4759,4.4759,4.4759,4.472,4.4626,4.4654,4.4665,4.4665,4.472,4.4934,4.5485,4.5622,4.5858,4.6407,4.7044,4.747,4.747,4.7957,4.8306,4.8306,4.8306,4.8306,4.8306,4.8306,4.8306,4.8306,4.8306,4.8306,4.8306,4.8306,4.8306,4.8306,4.8306,4.8306,4.8306,4.8306,4.8306,4.8306,4.8306,4.8306,4.8306,4.8306,4.8306,4.8306,4.8306,4.8306,4.8306,4.8344,4.8345,4.8383,4.8796,4.8945,4.9013,4.9371,4.9518,4.9547,3.7,3.7,3.7,3.7,3.7,3.7,3.7,3.7,3.6821,3.6342,3.6267,3.6073,3.5564,3.5504,3.5504,3.5504,3.5504,3.5504,3.5504,3.6023,3.6353,3.6353,3.7527,3.8174,3.8174,3.6986,3.6446,3.6615,3.7249,3.8251,3.9586,3.9586,4.0288,4.1567,4.1567,4.1748,4.2049,4.2049,4.2151,4.2286,4.2286,4.2642,4.3139,4.3139,4.3555,4.4124,4.4293,4.4333,4.4378,4.4547,4.4615,4.4615,4.4615,4.4615,4.4615,4.4615,4.4934,4.5294,4.5294,4.5648,4.6014,4.6014,4.6014,4.5757,4.4814,4.4988,4.5294,4.5294,4.5681,4.6063,4.6167,4.6618,4.7039,4.7172,4.7697,4.8094,4.8094,4.821,4.8306,4.8306,4.8306,4.8306,4.8306,4.8306,4.8306,4.8306,4.8306,4.8306,4.8306,4.8306,4.8306,4.8306,4.8306,4.8306,4.8306,4.8306,4.8306,4.8306,4.8306,4.8306,4.8306,4.8306,4.8306,4.8306,4.8306,4.8306,4.8307,4.8639,4.8761,4.8813,4.9218,4.9371,4.9386,4.946,4.9706,4.9999,3.7404,3.7404,3.7404,3.7404,3.7404,3.7404,3.7404,3.7404,3.73,3.6971,3.6926,3.6791,3.6447,3.6417,3.6568,3.6982,3.7014,3.7192,3.7607,3.7996,3.8225,3.8225,3.8998,3.9416,3.9416,3.9003,3.8782,3.8782,3.9224,3.9992,4.1153,4.1153,4.156,4.2286,4.2286,4.2489,4.2828,4.2828,4.3047,4.3413,4.3413,4.3623,4.3978,4.3978,4.4215,4.4615,4.4615,4.4615,4.4615,4.4615,4.4615,4.4615,4.4615,4.4786,4.5025,4.5025,4.5459,4.5915,4.5915,4.6167,4.6407,4.6407,4.6407,4.624,4.5597,4.5707,4.5915,4.5915,4.6167,4.6501,4.6819,4.7172,4.7491,4.7777,4.8094,4.8306,4.8306,4.8306,4.8306,4.8306,4.8306,4.8306,4.8306,4.8306,4.8306,4.8306,4.8306,4.8306,4.8306,4.8306,4.8306,4.8306,4.8306,4.8306,4.8306,4.8306,4.8306,4.8306,4.8306,4.8306,4.8306,4.8306,4.8402,4.8586,4.8586,4.8692,4.8898,4.9092,4.9187,4.9234,4.9617,4.9787,4.98,4.9987,5.0214,5.0421,3.7749,3.7749,3.7749,3.7749,3.7749,3.7749,3.7749,3.7749,3.7704,3.7599,3.7584,3.7539,3.7419,3.7526,3.7901,3.8628,3.8838,3.9235,3.9945,4.0142,4.0202,4.0202,4.0434,4.0588,4.0588,4.1383,4.1595,4.1189,4.1331,4.1777,4.2489,4.2489,4.2557,4.2675,4.2675,4.3031,4.3623,4.3623,4.3995,4.4615,4.4615,4.4615,4.4615,4.4615,4.4615,4.4615,4.4615,4.4615,4.4615,4.4615,4.4682,4.4748,4.4748,4.5169,4.5648,4.5648,4.6088,4.6571,4.6571,4.6641,4.6733,4.6733,4.6733,4.6733,4.6733,4.6641,4.6571,4.6571,4.6664,4.6892,4.7449,4.7551,4.7715,4.821,4.8306,4.8306,4.8306,4.8306,4.8306,4.8306,4.8306,4.8306,4.8306,4.8306,4.8306,4.8306,4.8306,4.8306,4.8306,4.8306,4.8306,4.8306,4.8306,4.8326,4.8383,4.8326,4.8326,4.8402,4.8402,4.8402,4.8402,4.8402,4.8622,4.8994,4.8994,4.9187,4.9522,4.9561,4.9589,4.9631,5.0043,5.0195,5.0249,5.0584,5.0712,5.0712,3.9155,3.9155,3.9155,3.9155,3.9155,3.9155,3.9155,3.9155,3.8931,3.8332,3.8257,3.8033,3.7464,3.8068,3.8563,3.8677,3.9376,3.9884,3.9975,4.0649,4.1029,4.1029,4.2255,4.2959,4.2959,4.3743,4.3171,4.1189,4.182,4.2544,4.324,4.324,4.3623,4.4293,4.4293,4.4344,4.4445,4.4445,4.4513,4.4615,4.4615,4.4615,4.4615,4.4615,4.4615,4.4615,4.4615,4.4615,4.4615,4.4615,4.4961,4.5399,4.5399,4.5783,4.6288,4.6288,4.6751,4.7259,4.7259,4.7656,4.8037,4.8037,4.8037,4.8037,4.8037,4.7635,4.7259,4.7259,4.7677,4.8075,4.8172,4.8172,4.821,4.8287,4.8306,4.8306,4.8306,4.8306,4.8306,4.8306,4.8306,4.8306,4.8306,4.8306,4.8306,4.8306,4.8306,4.8306,4.8306,4.8306,4.8306,4.8306,4.8306,4.8477,4.883,4.8458,4.8458,4.883,4.883,4.883,4.883,4.883,4.9027,4.9416,4.9416,4.9445,4.9518,4.9885,5.0031,5.0056,5.0472,5.0614,5.0624,5.0673,5.0712,5.0712,3.9388,3.9388,3.9388,3.9388,3.9388,3.9388,3.9388,3.9388,3.9305,3.9005,3.896,3.8856,3.8571,3.9283,4.0205,4.1195,4.1626,4.2064,4.2539,4.2889,4.3093,4.3093,4.3737,4.4062,4.4062,4.4429,4.4092,4.3093,4.3417,4.3741,4.4062,4.4062,4.4248,4.4615,4.4615,4.4615,4.4615,4.4615,4.4615,4.4615,4.4615,4.4615,4.4615,4.4615,4.4615,4.4615,4.4615,4.4615,4.4654,4.4998,4.5267,4.5545,4.589,4.643,4.6955,4.6955,4.7406,4.7897,4.7897,4.8094,4.8306,4.8306,4.8306,4.8306,4.8306,4.8094,4.7897,4.7897,4.8114,4.8306,4.8306,4.8306,4.8306,4.8306,4.8306,4.8306,4.8306,4.8306,4.8306,4.8306,4.8306,4.8306,4.8306,4.8306,4.8306,4.8306,4.8306,4.8306,4.8306,4.8306,4.8402,4.864,4.864,4.883,4.9234,4.9062,4.9062,4.9234,4.9234,4.9108,4.8913,4.9123,4.946,4.9846,4.9846,4.9962,5.0183,5.0358,5.0451,5.0442,5.0624,5.0712,5.0712,5.0712,5.0712,5.0712]}]]